ECMWFNIL_850_thetae_000.txt.gz
Theta_e
333 331 330 332 332 329 326 325 324 322 322 325 325 326 326 326 327 327 326 324 322 322 323 323 323 324 324 324 324 324 325 327 327 327 328 330 331 331 331 331 332 333
331 332 332 332 332 330 328 326 324 324 325 326 325 324 324 326 327 327 327 326 325 324 324 322 322 323 325 327 327 326 327 327 327 326 326 328 329 330 329 329 329 331
327 329 332 332 332 330 328 326 325 327 327 328 327 326 325 325 326 327 327 327 326 325 325 323 322 324 325 326 326 326 327 327 326 327 326 325 326 327 328 328 328 329
325 326 330 331 331 328 326 326 327 328 328 329 328 327 326 325 326 326 325 325 325 325 325 323 322 323 323 325 327 326 326 327 327 328 327 326 326 327 328 329 328 328
322 324 327 328 328 327 326 327 327 327 327 328 327 327 326 325 325 325 324 324 324 325 324 323 323 323 325 326 325 324 325 326 326 327 326 326 326 327 327 328 329 328
322 324 325 326 327 327 328 328 326 325 325 325 325 326 326 324 323 323 324 324 325 325 325 324 323 324 325 325 324 325 325 325 325 325 326 326 326 327 327 328 329 329
326 327 327 328 329 328 329 328 327 326 324 323 324 324 324 323 323 323 324 325 325 325 324 324 324 324 324 324 326 326 324 325 327 328 327 327 326 327 327 328 329 330
326 327 328 328 329 329 330 330 329 329 327 323 322 323 323 322 322 323 324 325 325 325 325 325 325 324 323 324 325 325 325 329 330 328 326 327 326 326 325 326 327 328
325 326 327 328 329 330 330 330 329 329 329 327 324 323 323 322 323 323 324 324 325 326 326 326 326 324 323 323 324 325 327 330 329 326 326 327 326 325 324 324 325 326
327 328 328 329 330 330 330 329 328 328 329 329 327 325 323 324 324 323 323 324 326 326 327 328 328 327 324 323 325 327 327 327 327 326 326 326 325 324 324 325 325 326
330 331 330 330 330 330 329 329 329 329 328 329 329 327 326 326 326 325 324 325 327 327 327 327 328 327 325 324 325 326 325 326 327 326 325 326 325 323 324 326 326 326
332 332 331 330 330 330 330 329 330 329 329 328 328 328 327 328 328 327 327 327 328 327 327 328 328 327 325 324 324 325 325 326 326 325 326 326 323 321 323 326 326 326
332 332 331 331 330 329 329 330 330 329 328 328 327 327 327 327 328 328 328 328 328 328 328 328 327 327 325 324 324 325 326 326 324 324 326 324 321 321 324 325 326 326
331 331 330 330 329 329 329 329 330 329 329 328 327 327 326 326 327 328 328 328 329 330 329 327 328 330 328 325 325 325 326 325 323 324 325 322 321 324 324 324 324 325
331 330 330 330 329 329 330 330 330 329 328 327 326 326 325 326 327 328 328 328 329 330 330 330 331 332 329 325 325 326 326 324 321 323 324 323 323 325 324 322 322 324
331 330 330 330 330 330 330 330 329 328 327 326 326 326 326 326 327 328 329 329 329 330 331 331 332 330 326 325 326 327 326 323 319 321 323 323 324 324 324 322 322 323
331 331 331 330 330 330 331 331 329 327 327 326 326 326 327 327 328 328 329 329 329 330 331 331 331 328 324 324 327 328 326 322 318 320 322 323 324 324 324 323 322 322
330 331 331 330 330 331 331 331 329 327 326 326 326 326 326 327 327 328 329 329 329 330 330 330 331 327 322 324 327 327 325 321 317 319 322 323 323 323 323 322 322 322
330 331 331 330 331 331 331 330 329 327 327 326 325 326 326 326 327 327 328 329 329 329 329 329 331 327 323 323 326 326 323 321 319 318 320 322 323 323 321 319 321 322
330 331 331 331 331 331 331 330 328 327 326 325 325 325 325 326 326 326 327 327 327 328 328 328 329 328 324 321 323 324 323 321 320 318 319 320 322 323 320 317 319 320
330 331 332 332 333 332 333 331 328 326 326 325 324 324 325 326 327 326 327 327 326 326 327 327 327 326 323 321 320 321 322 321 319 318 319 319 320 322 321 317 317 318
331 331 332 333 333 332 332 330 327 325 325 325 325 325 325 326 327 327 328 329 328 326 326 326 327 326 325 323 321 320 320 320 319 320 320 320 319 321 322 319 317 318
332 331 331 331 331 332 332 329 326 325 325 326 327 326 325 325 324 324 325 326 326 325 325 326 326 326 326 325 323 321 319 318 319 320 321 322 321 320 321 321 319 319
332 331 330 330 331 331 330 328 326 325 325 326 325 324 325 326 324 322 322 324 323 322 323 324 324 324 325 325 323 322 319 317 318 320 322 323 322 319 319 320 320 321
331 330 329 329 330 330 328 328 327 325 325 325 324 323 324 326 323 321 322 324 323 322 322 323 323 324 325 325 323 322 320 319 319 320 323 323 321 318 317 319 319 320
331 329 328 328 329 330 329 328 326 324 323 324 323 322 323 323 322 321 321 321 321 322 323 323 324 325 325 325 323 322 321 320 320 321 323 324 322 318 318 319 318 318

ECMWFNIL_850_thetae_003.txt.gz
Theta_e
338 338 335 335 335 333 332 334 334 333 332 333 333 333 331 326 324 323 324 328 329 328 329 328 327 325 324 325 327 328 330 331 332 332 332 331 330 329 329 330 331 331
337 337 336 336 336 334 333 333 333 333 333 333 333 331 328 325 325 325 326 326 325 327 328 327 327 326 326 326 326 328 331 331 331 332 332 330 329 329 329 329 330 330
337 336 335 336 336 334 333 333 333 334 334 334 333 332 330 328 327 325 326 325 324 326 328 327 327 328 329 329 328 329 330 330 330 330 331 330 329 330 330 330 330 330
337 335 335 334 334 333 332 332 334 334 334 334 333 332 330 329 325 324 326 327 327 329 329 329 330 330 330 331 330 328 327 328 330 331 330 328 327 327 328 330 331 330
335 333 332 332 332 332 331 332 334 333 333 334 333 332 332 330 327 326 327 328 330 332 332 331 332 331 330 330 330 326 325 328 330 330 328 326 325 326 327 329 330 328
334 332 329 329 331 331 332 333 333 333 333 333 332 332 332 330 327 325 325 326 329 330 329 329 330 329 328 328 327 326 326 327 327 326 325 324 325 328 329 329 329 326
336 335 333 332 333 332 333 333 332 332 333 333 332 332 332 331 329 327 325 325 325 326 325 325 325 325 326 327 327 326 326 326 326 325 324 324 325 328 330 330 328 324
336 336 335 334 334 333 333 332 331 331 331 332 332 332 332 332 331 329 327 325 325 325 325 325 325 325 325 326 328 326 325 325 325 325 324 323 325 328 330 328 325 323
335 335 335 334 334 333 332 331 329 329 330 330 331 331 332 332 331 329 327 325 325 326 326 326 325 325 325 326 327 326 325 325 324 325 324 324 326 328 329 326 324 324
336 336 335 335 334 333 332 330 329 328 329 329 329 330 331 331 331 330 329 327 327 327 328 329 328 328 326 325 326 327 328 327 325 325 324 323 325 327 327 326 325 325
337 336 336 335 334 332 331 331 330 329 329 329 329 330 330 329 330 330 330 330 329 328 328 328 329 330 329 326 326 328 328 327 326 326 324 322 324 325 325 326 326 324
337 336 335 334 333 333 332 332 330 330 330 329 329 329 329 329 329 329 329 329 330 330 329 327 327 329 331 328 328 329 329 327 327 327 325 322 323 324 324 326 326 322
336 335 335 334 333 332 332 331 331 330 330 329 328 328 329 329 328 328 328 328 329 329 329 328 328 329 329 326 324 328 331 329 327 328 326 323 323 324 324 325 325 321
334 335 334 333 332 332 331 331 331 331 331 330 329 329 330 329 328 327 328 328 329 329 328 329 329 329 327 323 322 327 331 330 327 328 327 324 323 324 324 324 323 320
335 334 334 333 332 332 331 332 332 332 332 331 330 330 329 329 328 328 328 328 329 329 329 330 330 329 328 327 326 328 329 327 326 328 328 324 323 323 323 324 324 321
335 335 334 333 333 332 332 332 333 333 333 331 330 330 329 329 329 329 328 328 328 329 329 330 331 330 331 331 329 327 325 325 326 328 327 324 323 323 323 324 324 322
335 334 335 334 333 333 332 332 333 334 333 332 330 329 329 329 328 328 328 328 328 329 330 331 332 331 331 332 329 325 323 323 324 325 324 323 323 323 324 323 322 321
334 334 334 334 334 333 333 333 334 334 333 332 331 329 329 328 328 327 328 328 329 330 330 331 331 330 329 330 327 323 321 321 321 321 321 323 324 324 324 323 322 322
333 333 333 333 333 333 333 333 333 334 333 332 330 328 327 327 327 327 327 328 328 328 328 329 328 328 328 328 326 324 322 322 321 320 321 323 325 325 324 323 322 321
332 332 332 332 333 333 334 334 334 334 334 331 329 328 327 327 327 327 328 328 327 326 325 326 326 326 326 326 326 326 325 323 322 322 322 324 326 326 325 324 322 320
332 332 332 332 333 334 335 335 335 335 334 330 328 327 327 327 327 327 327 327 327 326 325 326 327 326 324 325 326 327 326 325 323 322 323 325 326 325 325 325 324 320
332 332 332 333 333 334 335 335 335 336 333 329 327 327 328 328 327 326 326 326 326 325 324 324 325 324 323 324 324 325 326 325 323 322 323 325 326 325 324 326 325 321
331 331 332 332 332 333 333 333 334 334 332 329 328 328 328 327 326 325 326 326 325 323 322 323 324 324 323 323 323 324 326 326 324 323 323 324 326 326 326 327 325 320
331 331 332 333 332 332 332 333 333 332 331 329 328 328 328 328 327 326 326 327 326 325 324 322 323 324 323 322 322 323 324 325 324 323 322 323 326 328 329 328 324 320
331 331 333 333 331 330 331 331 331 330 331 330 329 328 327 327 327 327 327 328 327 327 325 323 324 325 323 321 323 323 324 325 324 323 322 323 326 327 328 327 324 320
330 332 333 333 331 330 330 331 330 331 331 330 328 327 326 326 326 327 327 328 327 327 326 325 327 326 322 321 322 322 323 324 324 323 322 322 325 325 325 325 323 320

ECMWFNIL_850_thetae_006.txt.gz
Theta_e
337 338 334 331 330 329 327 328 331 333 331 329 331 333 332 328 325 325 325 325 326 325 326 328 329 327 327 327 327 327 327 328 331 332 331 331 331 330 329 327 327 328
338 339 334 329 330 331 330 331 333 331 329 332 334 333 331 328 328 329 326 324 323 322 323 324 325 326 327 327 328 329 329 328 329 330 330 330 329 328 327 326 326 326
338 337 336 334 335 336 333 331 329 329 332 335 335 334 333 333 333 330 325 322 321 322 324 326 327 328 329 328 328 329 328 327 328 329 330 329 328 326 326 327 328 329
339 337 335 334 334 332 328 327 329 332 335 334 334 334 334 333 332 329 325 323 323 325 328 330 331 331 330 328 327 328 328 326 328 330 330 328 326 326 325 326 328 330
339 337 332 329 330 330 326 327 332 334 333 332 332 331 332 331 330 328 326 325 324 326 329 332 332 331 330 328 326 326 327 326 326 328 329 328 326 324 324 325 327 329
335 334 329 325 325 326 325 329 332 331 330 329 329 329 330 328 326 326 325 325 324 325 328 330 330 330 331 331 329 328 327 327 326 326 326 326 325 325 325 325 326 326
332 330 327 324 325 326 327 329 330 329 329 330 330 331 331 329 328 328 327 326 325 326 329 329 328 330 333 333 333 332 330 327 327 327 327 325 325 326 325 325 324 323
334 334 332 331 330 331 331 331 330 330 330 330 331 332 332 332 331 330 329 328 328 329 329 328 328 329 332 333 333 333 332 329 330 331 329 326 326 326 324 324 323 322
334 337 337 335 333 334 333 333 332 331 330 329 330 331 331 331 331 331 331 330 330 330 331 331 330 329 330 331 331 332 331 330 330 331 330 328 328 328 325 323 322 322
332 335 336 336 335 335 334 334 332 330 330 330 330 330 330 329 330 331 330 329 330 330 330 330 331 330 329 329 328 329 329 329 328 328 329 329 329 329 326 324 323 322
334 336 337 336 335 335 334 334 332 331 330 329 329 330 330 330 331 330 329 329 329 329 329 329 330 330 330 329 328 327 327 326 324 324 325 328 330 329 327 326 326 324
337 337 338 337 336 335 334 333 332 330 330 330 331 331 331 330 329 329 329 329 329 329 329 329 329 329 329 328 328 328 326 324 322 322 322 325 329 331 329 327 327 327
338 338 338 337 336 336 334 334 333 332 331 329 328 328 327 327 327 329 330 330 329 329 329 329 329 329 329 329 328 329 327 325 325 325 324 326 328 330 330 328 327 327
337 338 338 337 336 335 334 332 332 331 329 326 325 326 326 328 330 330 330 329 328 328 328 328 329 329 330 330 329 329 329 328 327 327 325 325 326 328 328 327 327 326
334 336 337 336 335 334 332 331 330 331 331 329 329 329 329 330 330 330 329 330 329 328 328 329 329 330 330 331 331 330 330 329 328 324 322 322 322 323 323 324 326 326
330 333 335 336 335 333 332 330 329 331 333 333 333 332 330 329 329 329 330 330 329 329 328 329 329 330 329 330 331 330 329 328 325 322 321 321 321 321 322 325 327 327
330 333 335 335 333 331 330 328 327 331 333 334 334 333 332 331 330 329 329 329 328 328 328 329 329 328 327 328 328 328 328 327 325 324 325 324 322 322 323 325 326 327
334 335 336 335 334 331 329 328 329 331 333 334 335 334 333 332 330 329 328 328 328 328 328 329 328 327 326 325 326 326 327 327 326 326 326 325 323 323 323 324 326 327
334 336 336 335 334 332 330 331 332 333 334 335 335 335 334 332 329 328 328 328 328 328 328 327 327 325 324 324 324 325 325 326 325 325 326 326 325 324 324 325 326 327
334 335 335 334 333 332 332 332 332 333 334 334 335 335 333 331 329 328 328 328 328 327 327 326 325 324 325 325 325 326 325 325 324 325 326 325 324 324 324 325 325 326
335 335 334 333 333 332 332 332 333 334 334 334 335 335 333 330 328 328 328 328 327 326 326 326 326 325 326 325 324 325 325 324 324 324 325 325 323 323 323 323 324 325
337 334 333 333 332 332 332 333 334 335 335 334 334 335 334 330 328 328 328 328 327 326 326 327 327 326 325 324 323 324 324 323 323 323 323 324 323 323 322 322 323 324
336 335 333 333 333 333 333 334 334 334 334 333 334 334 333 330 329 329 328 328 327 326 326 328 328 328 327 326 325 325 324 323 323 323 323 324 324 323 322 322 323 324
336 334 333 333 332 333 333 334 333 332 332 332 333 332 332 330 329 328 328 328 328 326 327 328 328 328 327 326 327 326 324 323 323 323 323 323 323 323 321 321 322 324
335 333 332 332 332 333 334 333 332 331 332 332 330 330 331 331 330 329 328 328 327 326 327 328 327 327 327 327 327 327 324 322 322 323 323 323 323 323 321 321 322 323
335 332 331 331 331 332 334 333 331 330 331 331 329 330 331 330 329 327 326 326 326 326 327 327 328 327 327 327 327 325 322 321 321 322 322 323 323 323 322 322 322 322

ECMWFNIL_850_thetae_009.txt.gz
Theta_e
324 324 321 318 316 318 321 322 321 320 319 320 324 326 328 329 328 326 325 322 323 324 323 323 324 325 324 325 325 325 326 326 326 327 327 328 330 329 327 325 325 325
326 325 323 320 319 319 321 322 319 318 318 320 323 327 330 330 329 326 323 322 322 322 322 321 322 325 327 327 328 327 327 327 326 326 327 329 330 328 326 324 324 324
326 324 322 321 320 320 322 322 321 321 322 324 328 331 331 330 329 326 324 324 323 322 323 321 323 328 330 329 330 329 328 328 327 326 327 329 329 327 325 324 323 323
325 324 323 320 319 322 327 327 325 323 323 326 330 331 330 329 326 324 322 322 322 323 322 322 326 330 332 331 331 331 330 329 328 327 326 327 326 326 325 324 324 324
324 324 323 321 319 323 328 327 323 322 324 326 328 328 328 327 324 321 322 321 320 321 322 322 325 329 332 332 332 331 331 330 329 328 327 327 326 326 326 326 326 325
324 322 321 320 320 321 323 322 321 323 326 327 328 328 328 327 324 324 325 324 322 324 325 324 324 326 329 330 330 330 330 330 330 329 327 327 328 328 328 328 327 325
323 321 318 318 318 319 319 320 322 326 328 328 329 329 328 328 327 328 328 327 327 327 327 327 327 326 327 328 328 329 330 330 331 330 328 328 330 330 330 329 328 326
323 321 318 318 317 319 319 321 325 329 330 330 330 329 329 329 330 330 329 329 329 329 328 328 328 328 328 328 328 328 329 329 329 330 329 329 330 330 330 330 329 327
323 321 318 318 319 320 322 323 327 330 332 332 331 329 329 329 330 330 330 330 330 329 328 329 329 329 328 328 328 329 329 328 327 328 328 328 328 328 329 330 330 329
324 321 319 318 320 323 325 327 329 331 332 331 330 330 330 330 331 330 330 330 330 329 329 329 329 329 328 328 329 329 328 328 327 327 326 326 324 324 325 328 330 330
325 324 321 320 322 325 329 331 332 333 333 331 330 330 330 331 330 330 330 330 329 329 329 329 330 329 329 329 329 328 328 328 328 327 326 324 324 323 324 327 330 330
328 327 324 322 324 329 332 333 334 334 333 331 330 330 330 330 330 330 329 328 328 329 329 329 330 329 329 328 328 328 328 328 328 327 326 326 326 325 325 326 328 329
329 327 326 327 328 330 332 332 333 332 332 330 330 330 331 330 329 327 325 326 328 330 329 328 328 327 328 328 328 329 329 329 329 328 328 328 326 323 322 322 323 324
329 328 330 331 332 333 331 330 330 329 329 329 328 329 328 327 326 324 324 326 328 328 327 327 327 327 328 328 328 329 329 329 329 328 328 327 324 321 321 321 321 321
330 333 334 333 334 334 331 329 330 329 327 326 324 324 325 324 324 324 323 325 326 327 328 328 327 327 327 327 327 328 327 328 328 328 327 326 323 322 322 321 321 321
331 335 336 335 336 335 331 329 330 328 325 323 321 323 324 325 326 327 326 326 327 328 329 328 327 326 326 327 327 327 326 326 326 326 327 326 325 325 324 323 322 321
329 334 336 336 337 335 330 328 328 326 323 322 322 323 325 328 329 329 329 328 328 329 328 327 326 326 326 326 326 326 326 325 325 325 326 326 326 325 326 325 322 322
327 332 335 335 335 333 329 328 327 325 324 324 324 326 328 330 331 332 331 329 329 328 328 327 327 326 326 326 325 325 324 324 325 325 326 325 325 325 326 325 323 322
327 331 333 331 329 328 327 327 327 326 325 325 327 329 331 332 333 334 332 330 329 328 328 327 327 326 325 325 325 325 324 325 325 326 326 325 325 325 325 325 324 322
329 331 329 326 325 326 326 326 325 325 326 327 330 331 333 334 334 334 333 330 328 328 328 328 327 327 326 325 326 327 326 326 325 325 325 324 323 324 324 324 324 324
335 331 327 326 327 327 327 326 326 327 327 329 331 333 333 334 335 335 334 331 329 328 328 328 327 327 327 327 328 328 328 327 326 326 325 323 323 323 323 323 324 324
337 330 327 328 328 328 328 328 329 329 329 331 333 334 334 334 334 334 334 332 329 328 328 328 328 328 327 327 328 328 328 327 327 327 326 323 321 322 323 324 324 323
336 330 327 328 328 329 330 330 330 331 331 332 333 334 333 333 332 332 332 331 329 328 328 328 328 327 327 326 327 327 327 327 327 327 326 323 321 321 322 323 324 323
338 333 329 328 328 329 331 331 332 332 332 333 333 333 332 331 330 330 330 330 330 329 329 328 327 327 326 326 326 326 326 327 327 327 325 322 321 321 322 322 323 323
339 337 332 329 331 332 332 332 332 332 333 332 331 331 331 330 330 330 331 330 329 328 327 327 327 327 326 325 325 325 326 327 326 325 322 321 321 321 321 321 322 322
339 338 335 334 335 335 334 333 333 333 333 332 331 331 331 330 330 330 331 330 327 326 326 326 327 327 325 323 324 324 325 326 325 322 321 321 320 320 320 320 321 321

ECMWFNIL_850_thetae_012.txt.gz
Theta_e
320 319 317 315 314 315 316 317 319 320 321 320 318 319 323 324 325 326 326 324 323 322 322 322 321 322 324 326 326 325 324 324 325 325 325 326 326 328 329 327 325 323
320 320 319 315 315 315 316 317 318 319 319 318 318 320 323 324 324 324 324 323 323 323 323 322 322 322 325 328 328 326 325 324 324 325 325 326 327 328 328 326 324 323
320 320 319 316 316 316 316 317 317 318 318 318 319 322 324 325 324 324 323 322 322 322 322 322 322 322 323 327 328 327 326 326 326 326 326 326 326 326 326 326 325 324
321 321 319 317 316 316 316 318 318 318 318 320 322 324 325 325 323 321 321 322 322 321 321 322 322 321 321 324 327 327 327 326 328 328 328 327 326 326 326 326 325 325
321 321 320 317 316 316 317 318 317 318 320 323 325 325 325 326 324 321 322 326 325 324 324 325 324 323 322 323 324 326 326 327 328 329 329 328 327 326 326 327 326 326
321 321 320 318 317 316 317 317 318 320 323 326 326 326 327 327 325 323 325 329 328 327 327 327 326 326 325 325 325 326 326 327 328 328 329 329 329 328 328 328 328 327
321 321 320 319 318 317 318 318 318 321 325 326 327 327 327 328 328 327 328 329 328 327 327 327 327 327 327 328 328 327 327 328 328 328 327 327 328 329 330 329 330 329
321 322 321 319 318 317 318 318 318 322 325 326 326 328 328 329 329 329 329 329 328 327 328 328 329 328 328 329 329 328 328 328 328 328 327 327 327 328 329 330 329 329
322 322 321 319 318 317 318 318 319 323 326 325 326 327 329 329 329 330 330 330 329 328 328 329 329 328 328 329 329 329 328 328 328 328 328 327 327 327 328 327 326 325
322 322 320 319 319 317 318 319 321 325 326 326 327 329 329 329 329 329 328 328 328 328 329 329 329 328 328 329 329 329 329 328 328 328 328 328 328 327 326 325 324 323
322 322 321 320 319 318 320 321 324 327 328 329 330 330 330 329 329 328 328 329 329 330 330 329 329 328 328 328 329 329 329 328 327 328 329 328 328 327 326 325 325 324
323 322 322 322 321 320 322 324 326 328 330 331 332 331 330 329 329 329 329 330 330 330 329 328 328 329 328 328 328 327 327 327 328 329 329 329 329 328 327 327 324 321
325 326 326 325 322 321 322 323 326 329 332 333 333 332 331 330 330 330 331 331 329 328 326 326 327 327 326 326 326 327 326 327 328 328 328 329 329 328 327 325 322 321
330 330 329 326 323 322 321 322 323 327 332 334 333 332 330 330 331 331 330 328 325 324 323 323 324 325 326 326 327 326 326 327 327 327 327 327 327 327 327 324 323 323
335 333 329 326 323 322 322 322 322 328 333 334 331 329 328 328 329 328 326 324 323 323 323 323 324 325 326 327 326 326 326 326 326 326 326 326 326 326 326 325 325 325
334 333 330 326 324 324 324 323 323 329 334 331 327 326 326 326 325 325 324 324 324 324 324 324 324 324 326 326 326 325 325 326 325 325 325 325 325 325 325 326 326 325
334 334 332 329 327 327 327 324 324 328 330 326 324 325 325 325 324 324 324 324 325 326 326 325 325 326 326 326 326 325 325 326 326 324 324 324 325 325 325 326 325 325
337 336 335 332 327 326 327 326 326 326 325 323 323 324 324 324 323 324 324 326 327 328 328 327 327 327 327 327 327 326 326 326 326 326 325 325 325 325 324 324 324 324
338 336 337 332 325 324 328 329 328 325 324 323 323 323 323 324 324 325 326 328 330 331 331 330 328 328 328 327 328 327 327 327 327 327 327 327 326 326 325 324 323 323
338 337 335 329 324 325 330 332 328 324 324 324 324 324 324 325 326 327 328 330 332 333 333 332 330 328 328 328 328 327 327 327 327 328 328 327 327 327 326 325 322 321
337 337 335 328 324 327 332 332 327 323 324 325 325 325 325 326 328 329 331 333 334 334 334 333 330 328 328 328 328 328 328 327 327 327 328 328 327 327 327 326 323 321
337 338 336 329 324 328 333 330 325 323 323 324 325 325 326 328 329 331 332 333 333 333 333 332 331 329 329 329 328 328 327 327 326 326 327 327 327 327 327 326 323 321
337 338 336 330 326 329 331 328 324 323 324 324 325 326 328 328 329 331 334 334 332 331 330 330 330 329 329 328 328 328 327 326 324 325 326 326 326 327 327 325 322 320
336 337 336 332 329 329 328 325 323 323 324 326 327 328 329 330 331 333 334 333 331 329 329 330 330 328 328 328 328 327 328 326 323 323 324 326 326 327 325 322 320 320
338 338 337 335 333 331 328 325 323 324 325 327 329 330 330 331 333 334 333 331 330 329 329 330 329 328 327 327 327 327 328 326 323 322 323 323 325 324 322 320 320 320
338 338 335 333 334 335 333 329 326 325 326 329 331 333 332 332 333 333 331 330 329 329 330 330 329 327 326 326 327 327 327 325 323 322 322 323 323 322 321 320 320 320

ECMWFNIL_850_thetae_015.txt.gz
Theta_e
321 319 318 317 316 315 316 315 315 315 315 316 317 318 318 318 320 322 323 325 324 323 323 322 322 322 321 321 321 322 322 322 323 324 325 325 325 325 326 328 328 327
321 320 319 317 316 315 315 315 315 316 316 316 317 317 317 317 319 321 322 323 323 322 323 322 322 322 321 322 322 322 323 322 321 323 323 324 324 325 325 326 327 326
321 320 320 318 316 315 315 315 315 316 316 317 317 317 316 316 318 321 322 322 323 322 322 321 321 321 321 321 322 323 323 323 322 322 323 324 324 325 325 325 325 325
321 321 320 319 317 316 315 315 316 317 317 317 317 318 318 319 320 321 321 322 322 321 320 321 323 323 323 322 322 322 322 322 322 323 324 325 326 327 327 326 325 325
322 321 321 319 318 316 315 316 316 317 317 317 319 320 320 321 320 320 322 324 325 323 322 324 326 326 326 325 325 325 325 325 324 324 325 326 326 328 328 328 328 327
325 323 322 320 319 318 316 316 316 317 317 319 322 323 323 323 320 319 323 327 328 327 327 328 328 328 328 328 328 328 328 327 327 326 326 327 327 327 327 328 328 329
327 324 322 322 322 320 317 316 317 317 318 321 324 325 325 325 322 322 325 328 328 328 328 328 328 328 328 328 328 328 329 328 328 328 327 327 327 327 327 326 327 328
329 324 323 324 326 324 319 316 317 317 319 324 325 326 326 326 327 327 328 329 328 328 328 328 329 329 329 328 328 329 329 329 329 328 328 328 328 327 327 327 327 327
333 326 324 327 328 327 321 317 317 318 320 324 325 326 328 327 328 328 328 328 328 327 328 328 329 329 329 329 328 328 329 329 329 329 328 328 328 328 328 328 328 327
337 328 327 330 330 328 322 317 318 318 321 324 325 327 328 328 328 328 328 329 328 327 328 329 329 330 329 329 328 328 328 328 328 328 327 327 328 328 329 328 328 327
338 330 329 331 330 328 323 319 318 318 321 324 325 327 328 328 327 327 328 328 327 327 328 329 329 329 329 328 328 328 328 327 326 326 326 327 327 328 328 328 328 327
340 332 327 326 328 327 322 319 319 319 321 324 325 327 328 328 327 327 327 327 326 327 327 327 328 327 327 327 327 327 326 325 325 325 326 326 326 326 326 326 327 327
339 333 324 323 330 330 324 321 320 320 322 324 326 328 328 327 327 327 327 326 326 326 326 326 326 326 325 325 325 324 324 325 325 325 325 325 324 324 324 324 326 326
337 332 324 323 332 333 327 324 324 323 324 324 327 329 327 325 326 327 327 326 326 326 326 326 325 325 325 324 324 324 325 325 325 324 324 323 323 322 323 323 324 325
338 332 324 323 329 328 326 328 328 325 325 325 327 329 325 323 325 327 328 327 327 328 327 325 324 324 324 324 324 325 325 325 325 324 324 323 323 323 323 322 322 323
335 330 324 323 325 325 328 332 330 325 323 325 328 328 323 322 325 328 328 328 329 329 327 325 324 325 325 325 325 326 326 326 326 326 325 325 325 325 325 324 323 323
332 330 327 324 325 329 332 333 331 327 323 324 328 325 322 323 327 329 329 328 328 327 326 326 326 326 326 326 326 327 327 327 327 327 327 327 326 326 326 326 326 326
334 332 329 326 327 332 332 331 332 327 322 324 327 323 322 326 328 329 330 328 327 326 326 326 327 327 328 328 327 326 327 327 328 327 327 327 327 327 327 327 327 327
338 332 329 327 329 332 333 332 331 325 322 326 326 324 325 327 328 329 329 327 326 325 326 327 328 329 331 331 329 327 327 328 328 327 327 327 327 327 327 327 327 327
340 334 330 329 329 330 332 333 327 322 323 326 326 327 328 328 328 329 328 327 326 326 328 329 329 329 331 332 332 329 328 328 328 328 328 327 327 327 326 326 327 327
341 337 333 331 331 332 334 333 326 321 322 325 328 331 330 327 327 328 327 327 327 328 329 330 329 329 329 331 332 331 329 328 328 328 328 328 327 326 324 324 325 327
341 338 334 333 334 335 335 333 326 321 322 327 332 334 332 328 327 327 328 328 328 329 331 330 329 329 329 330 331 330 329 329 329 328 328 327 327 325 322 322 323 326
340 337 334 333 334 335 334 330 323 321 326 331 334 334 333 329 327 327 328 327 328 330 332 331 330 330 330 330 330 330 330 329 328 328 327 327 326 325 323 322 323 325
339 337 334 332 333 335 335 330 324 323 329 332 333 333 332 329 328 328 327 328 329 331 333 333 332 331 330 330 329 329 329 327 327 326 326 325 325 324 322 322 323 324
340 337 333 332 333 335 336 332 326 325 328 331 333 334 332 330 329 329 329 329 331 333 333 333 332 331 330 329 329 329 328 326 326 326 325 323 322 321 321 322 323 323
340 339 336 333 333 335 336 335 331 329 331 334 335 335 334 331 329 329 331 332 332 332 332 332 331 330 329 329 329 329 328 326 325 324 323 321 321 320 321 321 322 322

ECMWFNIL_850_thetae_018.txt.gz
Theta_e
324 323 322 321 321 321 322 324 324 321 319 320 322 324 323 322 322 322 320 320 322 324 324 323 322 322 321 321 321 321 323 324 324 324 324 324 324 325 325 325 326 327
323 323 322 323 324 323 322 323 323 320 318 319 321 321 320 319 320 320 318 319 321 323 323 323 322 322 322 322 322 322 323 323 324 325 324 324 324 325 325 325 325 326
323 323 323 324 325 325 324 323 321 319 318 318 319 318 318 318 319 317 317 319 321 322 323 322 322 322 321 322 322 321 322 322 322 323 323 322 324 325 326 326 326 326
323 324 326 327 327 327 325 323 319 317 316 317 317 317 317 318 318 316 317 319 321 323 322 322 322 322 323 323 323 322 322 322 322 323 323 323 324 325 326 327 327 327
323 326 328 329 329 328 325 322 318 316 315 315 316 317 317 318 318 317 318 320 321 323 321 320 323 325 326 326 326 325 325 325 326 326 325 325 325 326 326 327 327 327
326 330 333 331 328 326 324 321 318 316 315 315 316 317 317 318 319 319 318 320 322 323 322 322 325 327 327 327 328 328 328 328 328 328 328 327 327 327 327 326 326 326
329 332 335 332 326 324 323 322 320 318 315 315 316 317 318 320 320 319 319 322 325 326 325 326 327 328 328 328 328 328 328 328 329 329 329 328 328 328 327 327 327 327
329 331 334 333 327 324 323 321 321 320 317 316 317 318 320 322 320 317 319 323 326 328 328 328 329 329 329 329 329 328 328 328 328 329 329 328 328 328 327 327 328 328
329 331 334 334 329 326 325 322 320 320 319 318 318 319 323 324 320 318 319 324 327 328 329 329 329 329 329 329 329 329 328 328 328 328 328 328 328 327 327 327 328 328
331 332 335 336 330 326 326 325 322 320 319 319 318 320 324 325 323 323 324 326 328 328 328 328 328 329 329 329 329 329 329 328 328 328 327 327 326 326 326 327 328 327
335 336 336 336 333 329 327 326 324 320 319 319 319 320 324 326 326 326 326 326 327 327 328 328 328 329 329 329 329 329 329 328 328 327 326 325 325 326 326 326 327 326
339 340 337 336 337 335 328 324 323 320 320 320 318 319 323 327 326 325 325 327 327 327 328 328 328 329 329 329 329 329 328 328 327 326 324 325 325 325 326 326 325 324
341 340 339 338 340 337 328 323 323 322 322 322 318 318 322 326 324 322 325 328 328 328 328 328 328 329 328 328 327 327 327 326 326 324 324 324 324 324 324 324 323 323
344 344 344 342 342 338 329 324 324 323 324 323 319 319 323 324 323 321 324 329 328 328 329 328 329 328 327 325 324 324 324 324 323 323 323 324 324 324 324 324 325 325
349 349 349 347 345 340 330 325 324 324 325 323 321 322 323 324 323 323 325 329 329 329 329 329 328 327 324 323 323 323 323 323 323 323 324 325 326 326 326 326 326 326
351 351 350 349 348 340 329 324 323 323 324 323 322 322 322 324 326 326 327 329 330 330 330 329 327 325 324 323 323 323 323 324 324 325 326 327 327 327 327 327 327 327
351 351 349 349 348 338 328 325 324 325 325 322 320 322 323 326 327 326 327 330 330 331 330 329 327 326 324 324 325 326 326 327 327 327 327 328 328 328 327 327 327 327
352 351 348 348 345 336 331 330 328 329 326 321 321 325 327 326 324 324 328 331 331 331 329 328 329 328 326 326 327 329 329 329 329 329 329 328 328 328 328 328 327 327
351 349 348 346 341 337 337 336 331 330 326 321 323 328 328 324 321 323 328 331 331 330 328 328 331 331 328 328 329 331 332 332 332 332 330 329 328 328 328 328 328 327
351 348 346 344 338 334 337 336 332 330 326 323 324 328 328 325 321 324 329 330 329 329 329 330 332 332 329 329 331 333 334 334 333 332 331 330 329 329 328 328 328 327
349 347 344 341 335 333 335 335 332 328 324 323 325 329 329 325 322 325 328 328 329 330 331 332 332 332 330 330 333 334 333 333 332 330 330 330 330 329 328 327 326 326
348 345 342 337 333 334 336 334 331 326 324 324 327 331 332 327 322 324 325 327 330 333 333 333 333 332 331 332 334 334 332 331 329 329 329 329 329 328 326 325 324 324
346 344 341 336 334 336 337 334 329 326 324 326 330 334 334 328 322 322 324 328 332 334 334 334 333 332 332 333 334 333 331 330 329 329 329 329 328 327 325 323 322 321
346 343 341 337 335 337 337 333 329 327 328 330 334 335 332 327 322 322 326 330 334 335 335 335 334 333 332 333 333 332 331 330 329 329 329 328 327 325 322 320 319 319
345 343 341 339 337 338 337 332 328 328 330 333 335 334 330 324 322 324 330 334 335 335 336 335 334 333 333 333 332 331 330 330 329 329 328 327 324 321 320 319 319 319
345 344 342 340 339 339 337 332 328 329 332 334 335 333 327 322 324 329 333 336 336 337 337 336 334 333 333 332 331 330 330 329 328 328 326 323 321 320 320 319 319 319

ECMWFNIL_850_thetae_021.txt.gz
Theta_e
341 340 340 338 335 331 330 331 331 333 334 333 332 330 328 327 327 326 324 321 319 319 321 322 323 323 322 321 321 321 321 321 322 323 323 322 323 324 324 325 326 326
338 338 338 335 333 332 331 332 332 334 334 331 328 326 325 326 325 323 321 320 318 318 320 322 323 323 322 322 322 321 321 321 322 324 324 324 325 325 325 326 327 328
335 336 335 334 333 335 334 332 332 332 333 331 326 322 322 322 321 320 320 319 318 318 321 322 323 322 322 322 321 321 321 321 323 324 325 325 325 325 326 327 328 328
334 333 333 332 333 335 333 331 330 330 331 329 323 320 320 320 319 319 319 318 317 318 321 323 323 322 321 322 322 322 322 322 324 325 326 325 325 325 326 326 327 327
332 331 331 332 333 334 333 331 329 328 328 326 322 320 319 317 317 318 318 317 317 318 321 322 322 321 321 323 324 324 324 325 326 326 326 326 326 326 326 326 326 326
331 330 330 331 331 332 332 329 325 325 325 324 322 320 318 316 316 317 318 318 317 318 321 322 322 321 322 325 327 327 327 327 327 328 328 328 328 327 327 327 327 327
330 329 330 330 330 331 330 327 325 324 324 323 321 318 316 316 316 317 318 318 318 319 321 322 321 320 323 327 328 328 328 328 328 329 329 329 329 329 329 328 328 328
329 329 330 330 331 330 330 329 327 326 326 325 321 318 316 316 317 318 319 320 318 319 321 322 321 322 324 328 329 329 329 329 329 330 330 329 329 328 328 328 328 328
330 329 329 331 332 331 331 331 328 328 330 328 322 318 316 316 319 321 321 320 318 319 322 325 324 325 326 328 329 329 330 330 330 330 329 329 328 328 328 328 328 327
330 329 329 331 332 332 333 334 332 331 332 330 323 318 318 320 320 320 321 320 318 319 323 326 327 327 328 328 329 330 330 330 330 329 329 329 328 327 326 325 326 326
331 329 329 330 331 332 334 335 336 334 332 329 324 318 321 326 324 321 322 320 319 320 322 325 327 328 328 328 329 329 329 330 330 330 329 329 328 326 324 324 325 324
334 330 329 329 330 332 334 335 337 337 333 328 323 319 323 329 327 323 322 321 322 324 323 323 327 328 328 328 328 329 329 330 330 330 329 329 327 325 323 324 324 323
339 334 329 328 330 334 336 336 338 340 336 328 322 320 324 328 327 324 323 322 326 328 324 322 327 329 328 328 328 329 329 330 330 330 329 328 327 325 324 324 324 325
344 341 336 334 338 340 338 338 340 341 337 330 323 321 323 327 327 324 324 326 329 328 324 323 327 329 328 328 328 329 329 329 329 329 328 327 326 325 325 325 326 326
348 347 345 344 345 344 340 340 342 343 341 332 325 322 323 326 327 325 325 328 329 325 323 325 328 329 329 329 329 329 330 329 327 326 326 325 325 325 326 326 327 327
351 351 350 349 348 346 344 343 340 342 342 335 326 324 325 326 327 325 324 327 327 323 322 326 329 329 329 329 329 330 330 327 325 324 324 324 325 326 327 327 327 327
352 352 352 352 350 347 346 345 340 339 340 336 328 324 325 326 326 324 325 326 326 323 322 326 330 330 329 330 330 330 330 327 325 325 324 325 326 327 327 327 327 328
351 352 352 352 352 349 347 347 344 340 339 336 332 328 327 327 326 326 328 327 325 324 324 327 330 329 330 331 331 331 330 327 326 326 326 328 329 330 330 330 329 328
350 352 352 352 352 350 348 347 343 336 333 335 337 334 330 327 325 327 331 327 324 325 326 328 328 326 328 332 332 332 331 329 328 329 330 332 332 332 333 332 331 330
350 351 352 351 351 350 349 347 342 336 332 333 336 335 331 327 325 329 330 325 323 324 326 328 328 325 328 332 332 332 331 330 331 332 333 333 334 334 334 332 331 330
350 350 351 351 351 350 349 347 344 339 334 332 333 334 331 327 327 328 327 323 324 325 325 327 327 327 330 333 332 332 332 331 332 333 334 334 333 333 332 330 329 329
349 350 350 350 350 349 348 346 345 342 337 333 333 334 332 330 328 326 324 324 326 326 326 326 327 328 331 332 333 333 332 332 333 333 334 333 332 331 330 329 328 328
349 349 349 349 349 348 348 347 345 342 338 336 335 335 333 331 327 324 323 325 328 327 326 326 328 329 330 332 334 334 333 332 332 333 334 332 330 329 329 328 327 325
348 348 348 349 348 348 347 347 345 341 338 336 335 334 333 330 326 323 323 326 329 331 329 327 327 328 329 332 334 335 334 333 332 333 333 332 329 329 328 327 324 321
347 348 348 348 348 347 347 346 344 342 338 336 335 334 333 330 326 323 324 327 332 334 332 327 326 327 329 332 335 335 335 333 333 333 332 330 329 328 326 324 321 320
347 347 347 347 347 347 346 344 343 341 338 336 335 333 331 328 325 324 327 331 334 335 331 327 327 327 330 333 336 336 335 334 332 330 329 328 328 325 323 322 321 320

ECMWFNIL_850_thetae_024.txt.gz
Theta_e
346 346 346 346 345 343 342 342 340 340 340 340 340 341 338 335 336 336 334 330 323 318 318 319 321 321 323 326 325 323 323 325 329 330 327 325 327 328 328 328 328 328
346 346 346 347 346 344 343 340 339 339 339 337 335 336 335 333 335 335 333 330 323 318 317 318 319 322 328 333 331 327 326 328 331 332 329 325 325 327 328 328 327 327
346 347 346 346 346 345 342 340 340 340 339 337 333 331 333 334 336 335 331 326 322 319 318 318 319 324 330 333 331 328 328 330 332 333 330 327 327 329 330 330 330 329
348 347 346 345 346 344 341 340 340 337 338 338 332 330 334 336 336 334 329 324 322 321 318 318 320 323 327 328 326 326 328 327 328 328 329 328 328 327 328 329 329 328
348 348 347 345 345 344 340 337 337 335 337 338 333 331 335 336 334 332 328 324 322 319 317 318 320 321 323 324 322 322 324 324 323 324 326 327 327 327 328 329 328 327
348 348 347 345 344 342 337 335 336 337 337 337 334 330 330 332 333 331 325 320 318 318 318 318 318 320 321 321 321 322 323 324 324 326 328 328 329 330 331 330 329 328
349 348 347 345 342 340 336 335 336 336 334 334 334 328 327 330 331 326 320 316 318 323 323 319 317 319 320 319 319 322 325 325 325 328 329 329 330 330 331 331 329 328
348 349 346 344 341 338 336 336 336 335 333 334 335 332 330 330 326 319 316 317 321 324 323 320 317 318 319 319 318 322 326 326 326 328 329 330 331 330 329 329 328 327
348 349 347 345 341 336 336 337 336 336 336 334 335 334 332 327 320 316 316 318 322 324 321 319 319 318 319 320 319 321 325 327 327 329 330 331 331 330 329 328 327 326
348 349 348 346 342 335 335 336 333 332 336 336 336 336 333 324 318 317 317 318 323 325 322 320 319 319 320 321 321 322 325 326 327 329 330 331 330 329 329 329 328 325
347 348 347 346 343 337 336 336 332 329 333 336 337 337 334 326 319 317 317 320 324 324 322 320 319 321 323 321 322 325 326 327 327 329 330 330 330 329 329 329 327 325
346 346 346 346 345 342 340 339 337 334 331 334 337 338 335 328 321 317 317 320 323 324 323 320 319 323 324 322 324 327 328 327 328 329 329 330 329 329 329 329 327 325
345 346 346 346 346 347 346 343 342 339 333 333 337 338 335 330 324 319 318 320 324 325 325 322 320 323 324 323 325 328 328 328 329 329 329 330 329 329 330 331 330 329
346 347 347 348 350 350 350 349 348 344 338 335 336 339 337 333 328 322 318 321 325 327 326 323 322 325 326 324 325 328 329 329 329 330 330 329 329 329 331 332 331 330
348 348 350 352 354 352 352 353 351 348 343 335 333 338 340 338 334 327 320 320 325 327 326 323 324 327 327 324 324 326 329 329 329 330 330 329 329 331 332 332 331 330
349 350 352 354 355 354 353 353 352 350 348 341 334 335 339 341 339 331 322 321 324 326 324 323 325 328 328 324 323 326 330 330 329 329 330 329 330 332 332 332 331 331
351 351 352 354 354 354 353 354 354 352 350 348 342 337 337 342 343 335 324 322 324 325 325 324 326 329 329 325 324 327 331 331 330 330 330 329 330 331 331 332 333 333
352 351 353 354 354 353 353 354 354 353 350 349 347 343 339 341 343 337 326 322 323 325 326 327 327 329 330 326 325 329 331 331 331 331 332 332 332 332 332 333 333 333
350 350 353 354 354 352 353 353 353 353 352 349 347 345 341 339 340 337 328 322 323 325 326 327 327 329 329 325 326 330 331 331 331 331 333 334 335 335 335 335 334 333
347 349 353 355 354 351 351 352 352 352 352 350 348 347 344 339 337 335 328 322 322 324 326 326 328 330 328 325 326 330 332 332 332 332 332 333 334 336 336 336 334 333
345 348 354 355 352 350 351 351 351 351 351 350 348 347 346 341 336 333 330 326 323 324 326 326 328 330 328 325 326 329 331 333 333 333 332 333 333 334 334 334 334 334
344 347 353 354 351 350 350 350 350 351 350 349 348 347 345 341 336 333 332 328 324 325 327 327 328 330 327 324 325 327 330 333 334 334 333 333 332 333 333 334 334 334
344 348 351 352 351 349 349 349 349 349 349 348 348 346 344 341 338 336 333 329 326 327 329 329 330 331 328 325 325 326 330 333 334 334 334 333 332 332 332 333 334 332
347 351 352 351 350 349 348 347 348 347 348 348 347 345 343 341 340 337 333 330 329 331 332 332 332 331 328 327 327 327 329 333 334 334 335 334 333 333 332 333 332 330
347 351 352 350 349 349 347 346 346 345 346 347 346 343 341 339 337 335 333 333 334 334 334 334 333 330 330 331 330 327 328 331 333 334 335 335 334 333 333 332 330 328
345 349 350 350 349 348 346 346 345 343 344 345 343 340 338 337 335 334 335 336 336 336 335 334 331 329 331 333 330 327 328 330 332 334 334 335 334 332 332 332 330 327

ECMWFNIL_850_thetae_027.txt.gz
Theta_e
347 347 347 348 348 346 346 347 347 347 347 349 348 346 347 347 346 345 344 343 342 341 339 334 332 334 336 335 329 327 330 330 333 336 335 333 333 334 335 334 334 334
347 347 347 347 348 347 345 345 347 347 345 345 347 349 348 347 347 344 343 343 342 340 337 332 328 327 329 329 323 321 323 323 328 335 335 331 330 332 334 334 334 333
348 347 347 347 348 347 344 344 346 346 343 342 344 347 349 348 346 342 341 342 341 337 332 326 324 322 322 323 322 321 322 321 326 334 336 333 329 329 332 334 335 335
348 348 347 346 348 348 345 344 344 342 342 344 343 345 349 349 344 338 336 337 334 330 324 320 322 322 320 320 321 321 321 320 323 328 334 335 330 326 327 331 335 336
347 348 347 346 347 349 348 344 341 340 342 344 343 345 348 346 340 335 335 333 326 321 319 316 319 321 320 319 321 321 320 320 320 322 325 328 328 327 327 330 334 335
348 348 347 347 346 348 349 345 341 340 341 342 344 347 345 340 335 333 334 329 320 318 321 318 317 319 319 319 321 321 320 320 320 320 321 323 329 334 334 333 332 330
348 347 347 347 347 347 348 346 344 343 342 342 345 347 343 336 331 329 328 323 318 320 323 320 319 320 319 318 319 320 320 319 320 320 321 323 328 334 337 334 329 325
347 348 347 347 347 348 348 347 346 346 344 343 344 344 340 333 330 327 325 320 317 319 321 319 321 324 321 318 318 319 319 319 319 320 322 323 326 331 334 331 327 325
346 347 347 347 347 347 348 348 347 345 342 341 342 342 337 333 331 329 325 321 317 318 318 319 323 326 322 318 318 319 319 319 319 321 323 324 328 331 331 330 330 329
345 346 346 347 348 348 348 348 348 345 340 339 343 343 338 333 333 332 328 323 319 318 318 319 323 325 321 318 318 319 319 319 319 321 323 325 328 331 333 334 333 330
344 346 346 347 348 349 350 348 348 346 343 341 342 343 339 335 334 333 329 325 321 318 317 318 321 324 322 319 318 318 319 320 319 321 324 325 327 328 330 331 330 328
344 345 346 346 347 350 352 352 347 346 349 347 340 338 339 337 334 332 331 329 324 319 317 317 320 325 323 319 318 319 320 320 320 321 323 325 327 327 328 329 331 331
344 345 345 346 348 349 352 353 348 346 352 351 342 337 339 337 333 332 332 331 328 323 319 317 320 324 323 319 319 321 322 322 322 322 324 326 326 328 330 332 334 334
346 346 348 350 352 351 351 351 347 348 353 353 348 343 340 337 334 332 331 332 332 329 322 318 320 324 323 320 320 321 323 323 323 324 326 326 325 329 333 335 335 335
354 357 358 359 359 357 355 354 349 349 353 354 352 349 345 342 338 334 333 334 336 333 324 318 320 323 324 321 321 323 324 324 325 325 325 326 328 332 334 335 334 335
360 363 363 363 363 360 359 359 356 351 353 354 355 353 350 348 344 342 341 339 339 336 327 319 319 323 324 323 323 324 325 325 325 325 327 330 332 332 332 334 335 335
360 364 364 362 362 361 359 360 359 355 354 356 356 354 352 350 348 346 345 343 341 337 330 323 319 322 325 324 323 325 325 325 326 328 332 332 330 329 330 333 335 336
360 364 365 362 362 361 359 359 358 357 356 356 355 354 352 351 348 346 345 343 342 338 334 326 320 322 326 324 323 324 324 325 326 330 333 332 330 331 333 334 336 336
360 364 365 362 361 361 359 358 357 356 356 354 353 354 353 351 349 346 345 344 342 341 337 329 321 322 326 324 323 324 326 327 326 327 330 329 330 334 336 336 336 336
362 364 364 362 361 359 358 357 356 355 354 353 353 354 353 353 350 348 347 345 343 342 338 329 322 322 325 324 323 324 327 329 328 327 328 328 330 334 337 337 336 336
363 365 362 360 359 358 357 356 355 355 354 353 353 353 353 353 351 350 348 346 344 343 338 329 323 325 328 326 324 323 326 329 329 327 328 329 330 333 336 337 337 338
362 363 362 360 359 357 356 355 354 355 353 352 352 352 352 351 350 350 349 345 343 341 336 330 327 330 331 327 325 325 327 329 327 325 328 331 332 332 335 337 336 336
357 359 359 359 358 356 355 354 353 353 352 351 350 351 350 349 349 349 348 346 343 339 335 332 330 330 328 325 325 326 328 329 326 324 327 331 332 333 335 336 336 335
349 350 353 356 356 355 354 353 352 351 351 350 349 349 349 347 346 348 347 345 343 340 336 333 330 328 326 325 325 326 329 329 326 324 326 328 331 335 336 336 336 335
341 344 349 353 355 354 354 352 351 350 349 348 348 347 347 345 344 343 342 342 341 339 337 334 331 329 327 327 327 329 330 329 326 326 328 328 330 334 336 337 336 333
338 341 346 351 354 354 353 351 350 348 347 347 346 346 345 343 342 340 339 340 340 338 336 335 334 332 331 330 331 332 331 329 329 330 330 330 332 335 338 339 336 333

ECMWFNIL_850_thetae_030.txt.gz
Theta_e
345 344 343 343 343 344 346 347 347 346 344 342 343 342 343 345 347 348 346 345 345 343 339 330 319 317 324 329 333 337 332 324 328 331 325 322 320 321 330 334 335 335
347 346 344 344 344 343 344 345 345 343 342 343 345 344 342 342 344 346 344 342 342 341 334 323 316 316 319 323 326 329 326 323 331 336 330 324 320 321 327 332 334 334
347 347 346 346 345 344 343 344 345 343 341 344 346 346 344 341 342 343 342 339 336 334 328 320 317 316 318 322 323 322 322 321 325 331 330 325 321 320 324 331 335 335
347 347 347 347 347 345 343 344 345 344 343 344 345 347 347 344 343 341 340 338 333 329 325 320 317 316 317 320 321 321 321 321 321 324 325 323 322 321 324 331 336 337
346 347 347 348 348 346 344 344 344 343 344 344 345 346 346 345 344 341 338 337 333 329 325 321 317 317 317 318 322 322 321 321 320 321 322 322 321 321 323 328 331 333
347 347 347 348 349 348 345 344 343 342 342 343 343 345 345 344 343 342 338 336 333 329 326 321 317 317 318 318 321 323 322 322 321 320 321 321 320 321 323 325 326 329
347 347 347 348 350 349 347 344 342 341 341 342 342 344 344 343 342 341 339 337 333 329 326 321 317 317 319 319 319 321 321 321 321 320 320 320 320 321 323 325 327 328
347 347 346 348 349 349 348 347 345 343 342 342 343 344 343 342 341 340 339 337 334 330 326 322 318 317 319 320 321 320 319 319 320 320 320 320 321 322 322 324 328 328
349 348 346 346 348 348 348 347 347 347 346 345 345 346 346 344 341 339 338 337 335 331 328 324 320 317 318 321 323 323 320 319 320 319 319 320 321 321 322 323 325 325
349 350 348 346 346 346 346 347 349 350 349 349 349 349 348 346 342 341 340 339 337 334 330 326 321 318 317 320 324 325 322 319 319 319 319 320 320 322 322 322 323 324
348 350 348 346 345 345 344 345 351 354 352 350 350 351 351 348 345 344 343 342 340 336 332 328 323 319 318 319 323 325 323 320 319 320 320 320 321 322 322 321 321 323
346 348 347 345 345 345 345 347 353 356 356 353 350 351 353 351 348 346 345 344 342 339 335 330 326 322 319 319 321 324 323 321 319 319 320 320 321 322 323 323 322 323
345 346 345 344 345 345 347 351 355 357 358 358 353 351 353 352 348 347 347 345 344 342 338 334 329 325 321 318 320 323 323 322 320 320 321 320 321 322 323 324 324 324
345 345 344 344 343 344 347 352 356 357 358 360 358 355 354 353 351 348 348 347 346 344 342 338 333 328 323 319 319 321 324 323 321 321 322 321 321 322 323 326 326 325
347 345 344 344 343 345 347 350 355 358 359 359 360 358 357 357 355 353 351 349 348 347 344 341 337 332 326 320 318 320 323 323 321 321 322 322 322 322 324 327 327 327
351 347 346 346 347 347 348 350 353 358 359 360 360 359 359 358 357 356 354 352 350 348 346 343 340 336 330 323 319 318 321 323 322 321 322 323 322 323 325 326 328 331
355 352 351 350 350 350 351 352 355 358 360 361 360 359 359 358 357 357 355 353 352 350 347 344 342 340 335 326 321 320 321 323 322 321 322 323 324 325 326 329 332 333
356 355 356 355 354 354 354 356 358 359 361 361 360 359 359 359 358 357 356 354 353 350 348 347 345 343 338 332 327 323 322 322 321 321 323 324 325 326 328 333 335 331
358 359 361 360 358 357 357 359 360 360 361 361 359 358 359 359 358 357 356 354 352 350 349 347 346 344 341 337 331 324 321 321 321 321 323 324 325 327 329 332 333 329
362 363 362 361 360 359 359 360 360 361 361 360 359 358 358 358 358 356 356 354 352 350 348 347 346 346 343 340 334 325 321 321 320 321 324 325 326 329 329 329 330 330
365 364 362 361 361 360 360 361 360 360 361 360 358 358 357 358 358 356 355 354 352 350 348 347 347 346 344 341 337 327 322 321 321 322 325 325 326 328 329 328 328 331
365 363 361 361 361 361 361 361 360 360 360 359 357 357 357 357 357 355 355 354 352 349 348 347 346 345 344 343 337 328 322 322 322 322 324 326 327 328 328 328 328 331
365 363 361 361 361 361 360 360 360 360 359 357 356 355 355 355 354 354 354 354 352 349 348 347 346 344 343 342 335 325 322 324 324 323 325 327 328 328 328 328 329 331
365 362 361 361 359 359 359 360 360 358 356 355 355 354 353 353 353 353 353 353 350 348 347 347 345 343 342 340 333 325 323 325 326 325 324 326 328 328 327 328 330 332
363 362 361 360 356 355 357 358 356 355 354 354 354 354 353 352 352 352 352 351 348 347 346 345 344 342 340 338 335 329 326 328 328 325 323 325 329 329 327 327 330 331
364 362 360 358 356 356 357 355 352 349 350 351 352 352 352 351 350 350 350 348 346 345 344 343 343 342 340 339 337 333 331 329 327 325 325 327 329 328 327 327 329 330

ECMWFNIL_850_thetae_033.txt.gz
Theta_e
341 342 341 341 344 344 344 344 345 347 345 343 341 340 340 338 338 340 341 342 341 341 341 340 341 336 323 320 326 329 331 329 323 321 320 320 321 322 322 321 325 330
340 341 340 341 343 344 344 344 344 345 344 343 341 340 339 338 338 340 342 342 342 340 339 337 339 336 323 317 322 325 328 327 322 320 320 319 319 320 319 320 323 326
340 340 340 340 343 343 343 344 345 345 344 342 341 341 340 339 340 342 343 344 342 341 340 337 334 330 322 317 318 320 324 324 322 320 319 319 320 320 319 319 321 321
340 339 340 341 342 342 342 343 345 346 346 344 342 341 340 341 341 343 344 344 343 341 341 339 333 325 318 317 318 318 321 322 322 321 320 320 320 320 320 320 322 321
340 339 340 341 342 342 341 342 343 344 346 345 344 341 340 341 342 343 343 342 341 340 340 339 333 324 319 318 318 318 320 321 321 321 320 319 320 320 320 321 322 323
342 340 340 341 342 341 342 342 341 342 344 345 345 343 341 340 341 342 342 341 340 339 339 337 332 325 320 318 318 318 319 319 320 320 320 319 319 320 320 321 322 323
344 340 340 341 342 342 342 342 342 342 343 344 345 344 342 340 340 341 341 341 340 340 339 337 333 327 321 318 319 319 319 320 320 319 320 320 320 320 320 321 322 323
345 341 340 341 342 344 344 343 343 343 344 345 345 344 342 340 339 341 342 341 341 340 339 338 335 330 323 318 318 319 321 323 322 320 320 320 319 320 319 320 322 324
347 343 340 340 342 344 344 344 344 344 344 345 344 344 343 341 339 340 341 342 341 340 339 338 337 334 328 321 318 318 320 323 324 321 319 320 320 321 320 320 322 323
349 345 341 341 342 343 343 344 344 345 345 345 345 344 343 341 340 340 341 342 341 340 340 338 337 336 332 326 320 317 319 322 325 323 320 320 321 321 320 321 322 323
350 347 343 341 341 342 343 343 345 345 345 344 344 344 342 342 342 342 341 341 341 340 339 338 338 336 334 330 324 319 318 320 324 324 321 320 321 320 320 321 321 323
352 348 344 341 341 342 343 343 345 345 344 344 344 344 344 343 343 343 343 342 342 341 341 340 339 338 337 334 329 322 318 319 323 324 323 320 320 321 321 320 321 322
350 346 342 340 341 341 341 343 345 345 345 344 345 345 346 345 344 344 344 344 344 344 343 343 342 341 339 337 333 327 320 318 322 324 323 321 320 320 320 320 321 321
348 343 340 340 342 342 341 342 344 346 346 345 345 347 347 347 346 346 346 347 347 347 346 346 345 344 342 340 337 331 323 318 319 323 324 321 319 319 320 320 321 322
347 343 341 341 343 343 343 343 344 345 347 347 348 347 347 349 349 349 350 351 351 350 350 349 348 346 344 342 340 336 328 320 317 321 324 322 319 319 319 320 321 322
348 345 343 343 344 343 343 344 345 347 349 350 350 350 350 352 352 353 353 352 353 353 352 351 350 348 346 344 343 340 334 327 320 318 322 323 320 318 319 320 321 322
350 347 346 345 343 343 343 344 347 350 352 353 353 353 353 356 356 356 355 354 354 354 354 353 352 350 348 347 346 343 339 333 325 319 320 323 321 319 319 320 322 322
352 350 349 347 345 345 344 346 350 352 354 354 355 355 357 359 360 359 358 357 356 356 355 355 354 352 350 349 348 346 342 338 330 321 318 321 322 320 319 320 321 322
354 352 351 350 348 347 346 348 352 354 355 355 356 357 359 360 361 361 360 358 358 358 357 356 355 354 352 351 350 349 346 342 336 326 318 319 323 322 319 319 321 323
355 355 355 353 352 351 351 352 354 356 356 356 357 359 360 361 362 361 361 360 359 359 357 357 356 354 353 352 351 349 348 345 340 331 322 320 324 324 320 319 321 324
357 357 358 357 356 355 355 355 356 357 358 358 359 361 361 362 362 361 361 360 359 359 358 357 356 354 354 353 351 350 348 345 341 336 327 321 324 325 321 319 323 326
359 358 359 360 359 358 358 358 358 359 360 360 361 362 362 362 361 361 360 359 359 359 357 356 356 354 353 352 351 349 348 345 342 338 330 325 326 326 322 321 324 327
361 360 360 360 361 360 360 359 360 361 362 362 362 362 362 362 361 361 359 359 359 358 357 357 355 354 353 351 350 348 347 345 343 338 331 329 330 327 322 323 325 327
362 362 361 362 362 363 362 361 362 362 363 362 363 362 362 361 360 359 358 358 358 358 357 356 355 354 352 350 349 347 347 345 342 337 333 331 330 326 324 324 325 326
363 364 363 363 364 364 364 363 363 363 363 363 362 362 360 360 359 357 357 357 357 357 356 355 354 354 352 350 348 347 346 343 340 336 333 331 328 324 323 323 324 327
364 365 365 365 365 364 363 363 362 362 363 362 361 361 360 359 357 356 355 355 354 354 354 353 352 352 351 349 347 347 345 343 339 333 330 328 325 322 322 323 324 327

ECMWFNIL_850_thetae_036.txt.gz
Theta_e
339 338 336 335 336 337 340 343 343 343 343 344 345 345 344 340 338 339 338 338 337 337 337 337 339 338 331 322 319 319 319 322 322 320 321 323 322 321 323 325 325 327
340 338 337 336 337 338 340 342 343 343 343 344 344 344 343 341 340 339 337 337 338 338 338 338 338 338 335 329 322 319 321 323 322 320 320 321 322 321 322 324 324 325
343 338 338 337 337 338 340 342 344 344 343 344 345 344 343 343 342 341 338 337 338 338 337 338 338 338 337 334 327 321 320 321 321 319 319 319 320 320 320 321 322 323
347 341 338 338 338 338 340 342 343 344 344 344 344 344 343 343 343 342 340 338 338 338 337 338 339 337 335 332 328 323 319 319 320 319 319 319 319 319 319 319 320 320
349 346 341 339 339 340 341 342 342 343 343 343 344 344 344 343 343 342 341 339 338 338 338 339 339 339 336 331 326 322 319 318 319 320 319 319 319 319 319 319 319 319
352 349 345 342 341 342 342 342 342 342 343 343 343 344 344 343 342 342 340 339 338 339 340 341 340 340 339 335 327 321 319 318 319 320 320 319 319 319 319 319 319 319
353 352 349 345 343 342 343 343 341 342 342 342 342 343 343 344 343 342 341 339 339 340 340 341 341 339 339 338 332 323 319 319 320 321 321 320 319 319 319 319 319 319
354 353 351 348 345 344 344 343 341 341 342 342 342 341 342 343 343 342 341 341 340 340 341 341 341 338 337 338 336 327 321 319 319 321 323 322 321 320 319 319 319 319
354 354 352 350 347 344 344 343 341 341 342 342 342 341 341 342 342 342 342 341 341 341 341 341 340 340 338 339 338 332 324 319 319 321 323 323 322 321 320 319 319 320
354 353 353 352 349 345 343 342 341 341 341 341 341 341 341 341 342 343 342 342 342 341 342 342 341 341 340 340 339 336 329 321 318 319 321 323 322 321 321 320 319 320
354 353 353 352 349 346 344 343 342 342 341 341 341 341 341 341 341 343 343 343 342 342 342 341 342 342 341 341 340 338 334 326 320 318 319 321 322 321 320 320 320 320
354 353 351 350 348 346 344 343 343 342 341 341 341 341 341 342 342 343 343 343 343 342 342 342 342 343 342 342 341 339 337 333 326 320 318 319 321 321 320 320 320 320
354 352 349 348 347 345 344 344 344 342 341 340 341 342 343 343 343 343 343 343 344 344 344 343 344 344 344 344 342 341 339 338 334 327 321 318 319 321 322 320 319 320
354 352 348 346 345 346 346 345 344 343 341 341 342 343 343 343 343 343 344 344 345 345 345 345 345 346 346 345 344 343 341 340 338 335 330 322 318 319 322 322 320 319
354 353 350 347 346 347 348 347 345 344 343 342 342 343 343 344 344 344 345 346 346 347 347 347 347 347 347 347 346 345 343 342 341 340 337 330 322 318 320 323 321 320
355 354 352 349 348 347 347 347 345 345 345 344 343 344 344 345 345 346 347 347 347 348 349 349 349 348 348 348 347 347 346 345 345 343 341 337 330 321 318 321 323 321
356 354 353 351 349 348 347 346 346 346 346 345 345 346 347 347 348 348 348 348 349 349 349 349 349 349 350 350 349 349 348 348 348 347 344 341 337 329 320 318 321 322
356 355 354 352 351 350 348 347 347 347 348 348 347 346 347 349 349 349 349 349 350 350 350 350 351 351 351 351 350 350 350 350 350 349 346 344 342 337 327 319 318 321
356 356 354 352 351 350 349 350 349 350 350 349 347 347 348 350 350 350 350 350 350 350 350 351 352 353 353 353 353 353 353 352 351 350 348 346 344 341 334 325 320 319
356 356 354 352 351 351 352 353 352 351 350 349 349 349 350 351 350 350 350 350 350 351 351 353 354 355 355 355 354 355 355 354 352 351 350 348 346 343 339 333 325 320
356 356 354 353 353 353 354 354 353 352 351 350 351 351 350 350 350 350 350 350 351 352 353 355 357 357 357 356 356 356 356 354 353 351 350 349 347 344 341 338 332 324
356 355 355 355 355 355 355 355 354 353 351 351 352 352 351 351 351 351 351 352 353 354 356 358 359 359 358 358 358 357 356 354 353 351 350 348 346 344 342 341 337 329
357 356 356 356 356 357 356 354 354 353 352 352 353 353 353 352 352 353 353 354 356 356 358 360 360 360 360 359 358 357 355 354 352 351 349 348 346 345 343 341 339 332
358 357 357 357 357 357 356 354 353 353 352 353 353 353 352 352 353 355 356 357 358 359 360 361 361 360 359 358 358 356 355 354 352 351 349 347 346 344 343 342 338 333
359 358 358 358 358 357 356 355 354 353 353 354 354 354 353 354 356 357 358 359 360 360 361 361 360 360 359 358 357 356 355 353 351 350 348 347 346 345 343 341 338 333
359 359 359 359 358 357 357 356 355 355 355 356 356 356 356 357 358 359 359 360 361 361 361 360 360 359 358 357 356 355 354 352 350 349 348 347 346 344 342 341 337 333

ECMWFNIL_850_thetae_039.txt.gz
Theta_e
348 347 346 345 344 342 339 336 335 336 338 340 340 340 341 340 340 341 341 340 340 339 339 338 337 336 337 338 333 324 319 320 319 318 318 319 320 320 320 320 322 326
349 349 347 345 344 342 340 337 336 337 339 340 340 340 341 341 341 341 340 339 338 338 338 337 336 336 337 338 332 322 318 319 319 318 317 318 319 320 320 320 321 325
350 349 348 347 345 342 340 338 337 337 339 340 341 340 340 341 341 341 341 340 338 337 337 336 336 336 337 337 335 328 321 319 319 319 318 318 319 320 320 320 321 323
350 349 349 348 346 343 340 339 338 337 338 340 341 341 341 341 342 343 342 342 340 338 336 335 335 336 337 337 337 334 328 321 319 320 320 319 319 319 320 320 320 321
349 349 349 348 348 345 342 340 338 337 337 338 340 341 342 342 342 343 343 342 341 339 337 336 336 336 337 337 337 336 332 325 321 320 321 320 319 318 318 319 320 320
349 349 349 349 348 347 344 340 337 337 337 337 338 340 342 342 342 343 343 343 342 340 339 337 336 336 337 338 337 336 333 327 323 321 320 320 320 319 318 318 319 319
349 349 349 349 349 348 347 341 336 336 336 337 338 339 342 343 343 343 343 343 342 341 340 338 337 336 337 338 338 337 335 330 326 324 321 319 320 320 319 318 318 319
350 349 349 349 349 349 348 344 338 336 336 337 338 339 341 343 343 343 343 343 343 341 341 340 338 336 337 338 338 339 338 335 330 325 321 319 319 319 319 319 319 318
350 350 349 350 350 349 349 346 341 337 336 337 338 339 341 342 343 343 343 343 343 342 342 341 340 338 337 338 340 340 340 338 335 329 323 320 319 319 319 320 320 319
350 350 350 350 350 350 349 346 343 339 336 337 338 339 341 342 343 343 343 343 342 342 342 341 340 340 339 339 340 341 340 339 338 335 329 323 319 318 318 319 320 320
350 351 351 351 351 351 349 347 344 341 337 336 338 339 341 342 342 343 344 343 342 342 342 341 340 340 340 339 340 341 341 340 339 339 336 331 324 319 318 318 320 320
351 351 351 352 352 351 350 349 347 343 338 337 337 339 341 342 342 342 343 342 342 342 342 342 342 341 341 340 340 341 342 341 340 339 340 338 332 325 320 318 318 319
351 352 352 352 352 352 351 350 348 345 340 337 337 339 340 341 341 342 342 342 342 342 342 342 343 343 343 342 341 341 342 342 342 341 341 341 339 333 327 322 318 318
351 352 352 352 352 352 352 351 350 346 341 338 338 338 339 340 340 341 342 342 342 342 342 342 343 344 344 343 343 343 343 343 343 343 343 342 341 339 335 330 324 320
352 352 353 353 353 353 353 352 351 348 344 341 339 337 338 339 339 340 342 342 342 342 342 342 342 343 343 344 344 344 344 344 343 343 344 344 343 342 340 337 334 328
353 353 352 353 353 353 353 353 352 350 348 344 339 336 337 338 339 340 341 342 342 342 342 342 342 343 343 344 345 345 345 345 345 345 345 345 345 344 342 341 340 337
354 353 353 354 354 354 354 354 353 352 350 346 341 338 336 337 338 339 340 342 343 343 343 342 343 343 344 345 346 347 347 346 347 346 347 347 346 345 345 344 343 341
354 354 354 354 354 354 354 354 354 353 351 348 344 339 336 336 337 338 339 341 343 344 343 343 343 344 345 346 347 347 347 347 348 348 348 348 348 347 347 347 346 344
354 355 355 354 355 355 355 355 355 354 352 349 345 341 338 337 337 337 339 340 343 344 343 343 343 344 345 347 347 347 347 348 349 349 349 349 349 349 349 349 349 347
355 355 354 354 355 356 356 356 355 353 351 348 346 345 342 338 336 337 338 340 341 342 342 342 343 344 345 347 347 348 348 349 350 350 351 351 350 350 350 349 349 348
355 355 354 355 356 357 357 356 355 354 352 349 349 346 342 339 338 337 338 339 340 341 342 343 343 344 346 347 348 348 349 351 352 352 352 352 351 350 350 350 349 348
355 355 355 356 357 357 357 356 355 355 353 351 350 346 344 343 342 340 339 340 340 341 343 344 344 345 346 348 349 349 350 353 353 353 353 352 351 351 351 350 350 348
355 356 356 357 357 358 357 356 356 355 354 353 351 348 346 345 343 342 341 341 341 342 343 344 344 345 347 349 350 351 352 354 353 352 352 352 351 352 351 351 350 348
355 357 357 357 357 358 357 357 357 356 355 354 352 348 345 344 344 344 342 341 341 342 342 343 344 345 348 350 351 352 354 354 353 353 353 353 352 352 351 350 349 347
356 357 357 357 357 357 357 358 357 357 357 356 354 350 347 346 346 345 343 342 342 341 342 344 346 348 349 351 353 354 356 355 354 354 354 353 352 351 351 350 349 347
356 357 357 357 357 357 358 358 358 358 358 357 355 353 352 350 349 348 347 345 343 343 343 346 348 350 352 353 355 356 358 357 357 356 355 353 352 351 351 350 349 346

ECMWFNIL_850_thetae_042.txt.gz
Theta_e
348 348 346 344 342 340 339 338 336 336 336 335 336 336 335 335 335 338 340 341 342 342 343 343 342 342 341 338 337 336 335 333 327 323 322 322 321 321 320 320 322 324
348 348 348 347 345 344 341 339 337 336 335 335 335 335 335 334 335 338 340 341 342 342 342 342 341 340 340 338 336 336 335 331 325 321 321 321 320 320 320 319 320 321
348 348 348 347 347 346 344 342 339 337 335 335 335 335 335 335 335 338 340 341 342 342 342 341 339 338 338 338 336 336 336 331 324 320 320 320 319 319 318 319 320 320
348 348 348 348 347 347 346 345 343 341 338 335 334 334 334 335 336 338 340 341 342 342 341 341 339 338 337 337 336 336 336 334 328 323 320 320 320 319 318 319 319 320
347 348 348 348 348 347 347 347 346 344 341 337 333 333 334 335 337 339 340 341 342 342 342 341 340 338 337 336 336 335 336 336 334 328 323 320 320 320 320 320 319 319
347 348 348 348 348 348 348 347 347 346 344 341 336 333 333 333 335 338 339 341 341 342 342 343 342 340 337 335 335 336 336 336 337 334 330 325 322 321 321 321 320 319
348 348 349 349 349 348 348 348 347 347 346 345 342 336 333 333 334 336 338 340 341 342 342 343 343 341 338 336 335 335 336 336 337 337 335 332 328 324 322 322 321 320
348 349 348 349 349 348 349 348 348 348 347 347 345 340 335 333 333 334 336 339 340 341 342 342 343 342 340 338 336 335 335 336 337 337 336 336 333 328 325 323 323 321
348 348 348 349 349 348 349 349 349 348 348 347 346 343 338 333 333 334 335 337 339 341 342 342 343 342 341 340 338 337 336 335 337 337 337 337 334 331 329 328 326 323
348 349 349 349 349 349 349 349 349 349 348 348 347 346 342 335 333 334 335 337 338 340 342 342 342 342 342 341 340 338 337 336 336 337 338 338 337 335 333 333 331 328
349 349 349 349 349 349 350 349 349 349 348 348 348 347 345 339 334 333 335 336 338 339 341 342 342 342 342 342 340 339 339 337 337 337 338 339 339 338 337 337 336 334
349 349 349 349 349 349 350 350 349 349 349 349 349 348 347 342 336 334 334 336 338 339 340 341 341 342 341 341 341 340 339 339 338 337 338 339 340 340 339 339 339 338
348 349 349 349 349 349 350 350 349 350 349 349 349 348 348 344 338 334 334 336 337 339 340 340 340 341 341 341 341 341 341 340 339 338 338 339 341 341 341 340 340 340
348 349 349 349 349 349 349 349 350 350 349 349 349 349 348 344 339 335 334 335 337 338 339 339 339 340 341 341 340 341 341 341 340 340 339 339 340 341 341 341 341 342
348 349 349 349 350 350 349 350 350 350 349 350 350 349 347 344 341 337 335 335 336 337 338 338 339 339 340 340 340 340 340 340 340 340 341 340 340 341 342 342 342 342
349 350 350 350 350 350 349 350 350 350 350 350 350 350 347 345 343 339 336 335 335 337 338 338 338 338 339 339 340 339 339 340 339 341 341 342 343 343 343 343 344 344
349 350 350 350 349 350 349 350 350 350 350 350 351 350 349 346 344 340 336 334 334 336 337 337 337 337 338 339 339 339 340 340 339 340 342 343 345 346 346 345 345 345
349 349 350 350 349 350 349 350 350 350 350 351 351 351 350 348 344 340 336 335 334 335 335 336 336 336 337 338 339 340 340 340 341 341 342 344 346 347 347 347 347 347
349 349 350 350 350 350 350 350 350 350 350 350 351 351 350 348 344 339 337 335 334 333 334 334 335 335 336 337 338 339 340 341 342 342 344 346 347 348 348 348 348 348
350 350 350 350 350 351 351 350 350 351 351 350 351 351 351 348 344 340 337 335 334 333 333 333 334 334 335 336 337 338 340 342 343 343 345 347 348 348 348 348 348 349
350 350 350 351 352 352 352 351 351 352 351 351 351 352 352 350 345 341 338 335 334 333 333 333 333 333 334 335 335 337 340 342 344 345 346 347 348 349 349 349 350 350
350 351 352 352 353 353 353 352 352 352 352 352 352 352 352 352 349 345 341 337 335 334 333 332 332 333 333 334 335 337 341 343 344 346 346 347 349 350 349 349 349 350
351 352 352 353 353 354 353 353 353 353 353 353 353 353 353 354 353 351 347 343 339 336 333 333 332 332 333 333 335 338 342 344 345 345 346 347 349 349 348 348 349 351
351 352 353 353 353 353 353 353 353 354 354 354 353 353 354 354 354 354 352 349 344 339 335 334 333 333 333 333 336 340 342 344 345 346 347 349 350 350 349 350 351 351
351 352 353 354 354 354 353 354 354 354 354 354 353 354 354 354 355 355 354 353 350 345 341 338 335 334 333 335 338 341 343 344 346 348 349 349 351 351 351 352 352 352
352 352 352 353 353 353 353 354 354 355 355 354 354 354 354 355 355 355 355 355 354 351 349 344 341 338 336 337 341 342 343 345 348 350 350 351 351 352 352 353 353 353

ECMWFNIL_850_thetae_045.txt.gz
Theta_e
347 347 346 345 344 342 340 338 337 337 337 337 337 337 337 336 336 336 336 336 337 337 338 339 341 342 342 343 344 344 342 339 337 336 334 329 325 324 323 322 323 324
347 347 347 347 347 345 343 341 339 338 337 337 337 337 336 336 336 336 335 335 335 335 337 338 340 342 342 342 342 343 341 339 337 336 334 329 326 324 324 324 324 323
346 346 347 346 347 346 346 345 343 340 338 337 337 337 336 336 335 335 335 335 335 335 335 338 340 341 341 341 341 341 340 339 337 336 334 330 326 323 322 323 323 322
345 345 346 345 346 346 346 347 346 344 342 340 338 337 337 336 335 335 335 335 335 335 335 337 340 341 341 341 341 340 340 339 338 337 336 332 326 322 322 322 321 320
343 344 345 345 345 345 346 347 347 346 345 343 339 337 336 336 335 335 335 335 335 335 336 337 340 340 340 341 340 340 339 339 338 336 336 334 328 323 321 321 321 320
343 343 344 345 345 345 346 346 347 347 346 346 343 340 337 335 335 334 334 335 335 336 337 338 339 340 340 340 340 339 338 338 337 336 336 336 332 326 321 321 321 321
342 343 343 344 345 345 345 346 346 347 346 346 345 344 340 337 334 333 333 333 335 336 338 338 339 340 340 341 341 340 339 338 337 336 336 336 335 331 326 323 321 321
343 343 343 344 344 345 345 346 346 347 346 346 346 345 345 341 337 334 332 332 333 335 337 338 339 339 340 341 342 342 340 338 337 335 335 335 336 335 333 328 326 323
343 343 344 344 345 345 345 345 346 346 347 347 347 346 346 345 341 337 334 332 332 333 335 337 338 340 340 340 341 342 342 340 338 336 335 335 335 336 336 335 333 330
343 344 344 344 345 345 345 346 346 346 347 347 347 347 346 346 345 343 339 335 332 332 333 334 336 339 340 340 341 341 343 342 340 338 336 335 335 336 337 337 337 336
343 343 344 344 345 345 345 346 346 346 347 347 347 347 347 347 347 346 344 339 334 332 333 334 335 337 339 340 341 341 342 342 342 341 339 337 336 335 336 337 338 338
343 343 344 344 344 345 345 345 346 346 347 347 348 348 347 347 347 347 346 343 337 333 333 334 334 336 338 339 340 341 341 342 342 342 341 339 338 336 336 336 337 339
343 343 344 344 344 344 345 345 346 346 347 347 347 348 348 348 347 347 347 345 341 336 333 333 334 335 337 338 340 340 341 341 342 342 342 341 339 338 337 336 337 339
343 343 343 344 344 344 345 345 345 346 347 347 347 348 348 348 348 348 347 346 344 340 335 333 333 334 336 337 339 340 340 341 341 342 342 342 340 339 338 337 336 338
343 344 344 345 345 345 345 345 346 346 347 347 347 348 348 348 348 348 348 347 346 343 339 335 333 334 335 337 338 339 340 340 340 341 341 341 341 340 340 338 337 338
344 344 344 345 345 345 345 346 346 347 347 347 348 348 348 349 348 348 348 348 348 346 342 337 334 333 334 335 337 338 339 339 339 340 340 341 341 341 341 339 339 339
345 345 345 345 345 346 346 346 346 346 347 347 348 348 348 348 349 349 349 348 348 348 344 339 334 332 334 335 336 337 338 339 339 339 340 340 340 341 341 341 341 341
345 345 345 345 346 346 346 346 347 347 347 348 348 348 349 349 349 349 349 349 349 348 345 340 334 332 333 334 335 336 337 338 338 339 339 340 340 341 341 341 342 343
345 345 346 346 346 346 347 347 347 347 348 348 348 348 348 349 349 349 349 349 349 349 346 342 336 333 333 333 334 335 337 338 338 338 339 340 339 340 340 341 343 344
345 345 345 346 346 347 348 348 348 348 348 348 349 349 349 349 349 349 349 349 350 349 348 344 339 335 334 334 334 334 336 337 338 338 339 339 339 340 340 341 343 345
345 346 346 346 347 347 348 348 348 348 349 349 349 349 349 349 349 349 349 349 350 350 349 346 341 337 336 335 334 334 335 336 337 338 338 339 340 340 341 342 344 346
346 346 346 347 347 348 349 349 349 349 349 350 350 350 350 350 349 350 350 349 350 350 350 348 345 343 341 339 338 337 337 337 337 337 338 339 339 340 342 343 345 346
346 346 347 347 348 348 349 348 349 349 349 349 350 349 349 349 349 350 350 350 350 350 350 350 349 349 346 342 342 342 341 340 338 337 338 339 339 341 342 344 346 347
345 346 347 347 348 348 348 348 349 349 349 349 349 349 349 349 349 350 350 350 350 350 350 349 350 350 347 343 342 342 342 341 340 339 340 340 341 343 343 344 346 347
345 346 347 347 348 348 348 349 349 349 349 349 350 350 350 350 350 350 349 349 349 349 350 349 350 350 347 343 342 341 342 343 343 343 343 342 344 345 345 345 346 348
346 347 347 347 347 348 349 349 349 349 350 350 350 351 351 351 351 351 351 351 350 349 348 349 350 351 348 345 342 341 341 343 344 344 343 344 346 347 346 346 347 348

ECMWFNIL_850_thetae_051.txt.gz
Theta_e
334 334 334 334 334 334 336 337 336 336 336 337 339 339 338 336 339 347 352 348 342 342 344 344 343 343 344 345 343 340 342 345 346 344 345 342 336 337 337 331 332 338
334 334 334 334 335 335 335 336 336 336 335 335 338 341 341 338 336 338 343 344 340 341 344 345 346 345 343 343 342 340 341 344 345 343 346 345 339 339 338 332 329 330
335 335 335 335 336 335 335 336 336 336 336 335 336 338 341 341 339 336 337 338 338 339 342 346 347 347 345 342 340 339 340 343 344 342 344 346 341 340 340 335 331 328
336 336 336 336 336 336 337 337 337 336 336 337 336 336 339 342 343 340 337 337 338 338 339 342 345 346 346 344 339 338 338 339 342 343 343 346 343 340 341 338 334 333
336 337 337 336 336 337 338 338 337 336 336 336 337 337 337 339 342 343 340 338 338 338 339 340 341 343 345 345 341 337 337 337 340 343 343 345 344 341 342 342 337 336
337 337 336 337 337 337 338 337 335 336 336 336 337 338 338 337 338 341 342 341 339 338 341 341 340 339 341 343 343 338 336 336 338 341 343 344 346 343 343 344 339 335
336 337 336 337 337 337 338 337 335 336 335 337 339 340 340 339 337 339 340 342 342 340 342 343 340 339 339 341 343 339 336 336 337 339 342 344 345 345 344 342 338 334
336 337 336 336 337 337 337 337 336 336 335 337 341 342 340 339 340 341 340 342 344 343 344 346 343 339 339 339 341 339 335 335 337 338 342 345 344 344 344 341 337 332
335 336 336 336 336 336 337 337 336 337 336 337 341 343 342 341 342 344 343 343 345 345 346 348 347 342 339 340 340 338 335 335 336 336 340 344 343 343 342 340 337 333
335 336 336 336 335 335 336 336 337 339 338 336 339 344 345 344 343 344 346 344 345 346 346 347 348 343 339 341 340 337 336 335 336 335 337 340 341 341 341 339 337 335
333 335 335 335 335 335 335 335 339 345 346 341 336 339 345 349 347 343 344 346 344 346 347 346 345 341 338 340 340 337 335 335 335 335 337 338 339 340 340 339 337 335
331 332 333 334 333 334 335 337 342 351 354 351 343 337 339 347 352 347 342 344 345 345 346 346 345 342 338 337 338 337 336 335 335 336 336 337 338 339 340 339 338 336
330 331 331 332 332 332 335 340 345 350 355 356 354 347 339 342 352 353 344 341 344 344 345 346 345 343 340 335 335 336 337 336 335 335 336 337 338 339 339 340 339 338
329 330 329 330 331 331 332 337 343 348 352 356 359 356 347 341 349 354 349 341 341 344 344 345 345 345 341 337 334 335 337 337 334 334 336 338 340 340 339 342 342 340
334 333 331 331 332 332 332 334 338 343 348 353 358 361 356 349 349 356 355 347 341 341 343 344 345 345 343 340 336 334 337 338 336 335 334 337 344 344 339 341 345 345
341 339 337 336 337 336 337 336 337 340 344 348 355 361 360 356 354 358 360 357 349 343 342 344 345 345 344 342 339 336 336 338 339 338 335 337 345 346 339 338 344 346
346 343 342 342 341 340 340 340 340 342 344 347 352 356 358 359 358 358 360 362 360 352 346 344 344 346 345 344 343 341 339 339 341 341 339 338 341 343 338 336 341 344
348 346 345 345 345 344 344 343 343 343 344 346 347 350 353 356 356 354 354 358 363 362 357 349 345 345 346 345 344 343 342 342 343 344 343 340 340 341 338 334 336 340
349 347 346 345 346 346 347 348 346 344 345 346 347 349 350 351 352 351 350 351 357 362 363 358 352 346 345 346 346 345 344 345 345 347 346 343 342 343 339 334 333 336
351 348 346 346 347 349 350 349 347 345 345 346 348 350 350 350 349 350 350 348 349 355 360 361 359 354 348 346 346 347 346 346 346 348 348 347 346 345 341 335 333 334
351 349 348 349 349 350 349 348 347 345 346 347 348 349 349 348 349 349 350 349 347 350 355 359 360 358 355 350 348 347 347 347 347 347 348 349 350 349 344 340 338 336
351 350 351 350 350 349 348 347 346 345 346 347 349 351 351 351 350 349 350 351 350 349 351 353 355 357 356 354 350 348 348 348 348 348 349 350 351 351 349 346 343 340
351 350 349 348 348 346 344 344 345 345 347 348 349 352 354 354 353 351 351 352 353 352 350 351 353 355 355 354 352 351 349 348 348 349 349 349 350 351 352 351 348 344
352 350 348 347 346 344 344 347 347 348 350 351 351 353 356 357 359 360 358 356 356 357 356 355 356 356 355 353 353 353 352 350 349 349 348 349 349 349 351 352 352 351
356 355 353 349 348 347 348 350 350 351 353 353 352 352 355 359 362 363 363 362 360 361 361 359 359 359 357 355 354 354 354 353 352 351 349 348 349 348 349 350 352 355
357 355 352 349 349 349 349 349 349 351 352 352 352 354 357 361 363 363 364 365 365 365 364 362 361 362 360 358 357 355 355 354 354 353 350 349 349 349 350 349 349 355

ECMWFNIL_850_thetae_054.txt.gz
Theta_e
333 334 335 336 336 337 338 339 339 340 341 342 341 338 339 342 344 345 343 341 340 340 341 341 340 341 342 344 349 353 353 349 344 344 343 342 340 332 326 324 322 330
332 332 333 333 334 335 336 337 338 339 340 339 340 340 339 340 343 345 345 342 342 340 341 341 341 342 342 342 345 348 349 346 343 343 343 342 342 338 330 326 323 324
332 332 332 332 332 332 333 334 336 338 341 341 341 343 343 343 343 345 347 346 343 341 340 341 343 344 344 343 342 345 346 345 342 341 342 342 341 342 337 330 325 322
332 332 331 331 330 330 332 333 334 338 343 343 342 342 345 346 346 346 347 347 346 344 341 340 341 343 344 345 344 343 344 343 342 340 341 342 340 341 341 337 329 324
332 333 331 332 332 331 332 333 333 335 339 342 342 342 342 344 346 347 347 348 348 347 345 342 340 340 342 346 345 344 344 342 340 341 340 341 341 340 340 341 336 329
333 332 333 333 333 332 333 332 333 335 337 341 343 343 342 342 343 346 348 349 348 348 349 346 341 339 341 343 345 345 344 342 339 339 339 340 341 341 340 340 340 334
333 333 332 333 334 334 335 333 334 337 338 342 344 343 344 343 341 341 345 350 351 350 350 348 343 340 341 342 343 342 342 342 340 338 337 338 340 341 340 339 340 338
334 334 334 334 334 335 335 335 336 337 338 342 346 345 345 344 342 341 342 348 352 351 350 349 346 344 343 342 342 342 341 340 341 339 337 336 338 340 340 339 339 339
335 334 335 335 335 335 335 335 336 337 338 342 344 346 348 346 343 343 342 343 347 351 351 349 348 347 345 344 342 342 341 340 339 340 339 337 337 338 339 339 339 338
336 336 335 335 335 335 335 335 335 336 338 340 342 346 350 349 345 345 345 344 343 348 352 350 348 348 347 346 345 343 342 340 339 339 339 338 336 336 337 337 338 338
338 337 336 336 335 335 335 335 336 336 338 340 341 344 348 349 348 346 346 346 344 344 348 349 349 349 348 347 347 345 345 344 341 338 339 340 338 336 336 337 337 338
340 339 338 336 336 336 336 335 336 339 341 341 341 343 346 348 348 347 345 346 346 344 345 347 348 349 349 348 347 347 349 348 345 341 339 340 341 339 338 338 338 338
339 338 338 337 335 337 337 338 339 341 343 345 345 344 346 349 349 348 345 345 346 346 345 347 348 348 348 348 347 348 352 351 348 344 341 341 342 341 340 339 338 339
339 338 336 335 335 336 339 342 344 345 346 350 351 350 350 351 352 351 349 348 348 347 346 347 348 346 346 348 348 349 351 353 351 347 344 342 340 340 342 340 338 339
341 338 336 334 335 336 337 341 344 347 349 350 352 354 354 355 355 354 354 354 353 350 349 348 346 344 343 345 347 347 349 351 351 348 346 344 341 340 341 340 339 340
347 341 338 338 337 336 336 338 340 345 348 350 352 353 355 356 357 357 356 357 357 355 353 350 346 341 340 341 343 344 345 347 349 348 347 345 344 342 342 342 341 342
354 347 343 341 339 337 337 336 337 340 343 347 350 351 353 355 357 358 358 357 359 359 357 354 348 342 338 338 339 340 343 344 346 347 346 345 344 343 342 342 341 342
358 352 347 344 341 338 337 336 336 338 340 344 348 351 352 352 355 356 357 357 358 361 361 358 354 348 344 340 338 339 341 343 344 345 345 344 343 342 342 342 341 341
361 357 352 347 344 342 340 338 337 337 339 341 345 348 350 350 352 353 355 355 356 360 363 362 359 355 352 348 344 342 342 342 344 345 345 344 343 342 342 341 341 342
363 361 357 353 350 347 346 344 341 339 339 341 345 347 348 348 350 352 354 355 355 356 359 362 363 361 359 356 353 350 347 345 344 345 345 346 345 344 343 343 342 342
364 363 361 359 357 354 352 350 347 345 344 345 348 349 349 349 350 352 354 355 356 356 357 359 362 363 362 361 359 357 354 351 348 348 348 347 347 347 347 346 345 345
364 363 363 363 361 359 357 354 352 351 350 350 351 352 352 352 353 354 355 357 358 358 357 356 358 361 362 361 361 362 361 358 355 352 352 350 350 350 350 350 349 349
363 364 365 364 363 361 358 356 355 355 355 355 355 355 355 355 355 355 355 356 357 358 357 355 355 358 361 361 362 363 363 362 360 357 355 353 352 353 353 353 353 352
363 365 366 365 362 362 359 357 358 358 358 358 358 357 356 357 358 358 357 357 357 357 358 357 356 357 358 360 362 362 363 363 361 360 358 355 354 354 355 355 355 355
363 365 367 365 362 361 359 358 358 359 360 360 359 359 359 359 361 362 362 361 361 360 361 361 361 360 359 359 360 361 362 363 363 362 361 358 357 356 354 354 355 356
363 365 368 367 364 362 360 359 360 360 361 362 362 361 360 360 361 362 363 365 366 365 364 364 364 364 363 362 362 361 362 363 363 363 362 360 360 359 357 355 355 355

ECMWFNIL_850_thetae_057.txt.gz
Theta_e
333 334 333 333 333 331 331 331 333 337 339 338 335 333 334 334 335 338 340 340 341 341 340 340 341 341 342 344 345 344 344 344 346 346 344 341 341 339 330 323 324 326
333 333 334 333 332 332 331 330 331 333 334 336 336 335 336 336 336 336 337 339 341 341 341 341 341 341 341 343 344 343 343 343 345 345 343 340 340 340 336 329 324 324
334 333 333 333 332 331 331 331 330 330 332 334 337 338 338 338 337 337 337 338 339 339 340 340 341 341 341 341 342 343 342 342 343 344 343 340 340 340 341 336 328 324
333 333 332 332 331 331 330 331 331 330 331 333 334 336 338 340 340 338 336 337 337 336 337 337 339 340 340 340 341 342 341 341 342 343 343 341 339 339 339 340 336 330
333 332 331 332 331 331 331 331 331 330 330 331 333 334 338 340 341 339 338 337 335 336 335 336 337 338 340 341 342 343 342 341 341 342 342 341 339 338 338 339 339 337
336 334 332 332 332 331 331 330 329 330 330 330 331 334 335 338 340 341 339 337 336 337 336 336 335 336 337 339 341 342 343 342 341 341 341 341 339 338 338 338 338 338
337 335 334 333 333 332 331 329 329 330 330 331 331 332 334 336 339 340 341 340 339 337 336 336 336 335 335 336 338 340 342 342 342 341 341 340 339 338 338 338 338 338
335 334 334 334 334 333 331 329 329 329 330 331 332 332 332 334 337 340 342 344 342 340 338 337 336 336 336 336 336 337 339 341 341 341 341 341 339 338 338 338 338 338
338 336 335 335 335 334 332 330 330 330 331 331 332 332 332 332 335 339 341 344 345 344 342 339 336 336 336 336 335 336 337 339 339 339 339 340 340 339 338 338 337 337
342 340 338 337 337 335 333 332 332 331 331 332 332 332 333 334 334 338 342 344 344 345 345 342 339 337 336 336 336 336 336 338 339 340 339 339 338 337 337 337 337 337
345 342 340 339 337 335 334 333 333 333 333 332 333 333 334 335 336 338 341 344 344 344 344 342 341 339 337 336 336 336 336 337 339 340 340 340 339 338 337 336 337 337
345 343 341 339 337 336 334 334 334 334 334 334 334 334 335 336 338 339 341 342 343 343 343 342 341 340 339 337 337 337 337 338 339 340 340 340 340 340 339 338 337 336
345 342 340 339 338 336 335 334 335 335 335 335 335 335 336 337 338 339 340 340 340 342 343 343 342 341 341 340 340 340 340 339 339 339 340 341 341 341 340 340 338 336
347 342 339 338 338 337 337 336 335 336 335 336 336 336 336 336 337 338 338 339 340 341 343 344 344 343 343 342 343 343 343 342 340 339 340 340 341 342 342 342 340 337
350 344 341 339 339 339 338 337 337 336 336 337 337 337 335 336 337 338 339 340 341 342 344 345 345 345 344 343 343 343 343 343 344 342 340 340 341 341 342 342 341 340
354 349 344 342 340 339 338 337 337 337 337 337 337 337 336 337 339 341 342 341 342 343 345 346 345 345 345 344 343 343 342 342 344 343 342 342 341 341 342 342 342 341
359 355 349 344 341 339 338 337 338 339 340 339 340 339 338 339 340 342 343 345 345 345 345 346 346 345 345 345 345 345 344 344 344 343 342 342 342 342 341 341 341 341
362 359 355 350 344 341 338 336 337 339 341 342 343 342 341 341 341 342 343 345 348 348 348 347 346 345 346 347 347 347 346 345 345 345 344 343 342 341 341 341 341 341
364 362 360 356 351 345 341 338 338 340 342 344 343 343 343 343 342 342 342 345 348 350 349 348 346 346 347 348 349 349 348 347 347 347 346 345 343 342 342 342 342 342
365 363 362 360 357 352 348 344 342 340 341 342 343 344 345 345 344 344 344 345 348 349 349 348 347 346 347 349 349 350 350 350 350 349 349 348 347 346 345 345 345 345
365 365 363 362 360 358 355 350 347 344 342 343 344 345 343 343 343 344 343 343 346 348 350 350 349 349 349 350 350 352 353 355 355 354 353 352 351 350 349 349 349 348
366 364 363 363 361 361 359 356 351 349 345 345 345 344 343 343 343 343 344 344 345 348 350 351 351 351 352 353 354 355 357 359 359 359 358 357 356 355 353 352 352 352
366 365 364 363 362 362 361 359 356 353 350 349 348 346 345 344 343 342 343 344 346 348 349 350 351 353 354 355 357 360 361 362 363 362 362 360 360 359 358 356 355 354
365 365 364 364 364 362 362 362 359 357 355 354 351 350 348 345 344 344 344 346 348 349 349 350 352 354 355 356 358 361 363 364 365 365 364 363 363 362 361 361 359 358
364 365 365 365 364 364 363 363 361 360 359 357 355 354 352 350 349 349 349 349 349 351 352 352 354 355 356 358 359 361 363 364 365 366 366 365 365 365 364 363 363 361
363 365 366 365 365 364 363 363 362 362 361 361 360 358 355 354 354 353 353 353 353 354 355 356 357 358 359 360 361 361 362 362 363 364 364 365 365 366 365 365 364 364

ECMWFNIL_850_thetae_060.txt.gz
Theta_e
340 339 338 338 338 337 336 333 330 329 331 332 332 331 332 332 334 335 337 338 339 338 338 338 338 341 341 342 344 345 346 345 346 346 345 344 343 342 334 325 326 328
340 338 337 336 337 336 335 332 328 328 329 331 333 334 334 334 334 335 336 338 338 338 338 338 338 339 339 341 343 344 345 345 345 345 345 344 343 342 339 331 325 325
342 339 337 335 334 333 332 331 330 328 328 329 331 333 333 334 334 334 335 337 338 339 339 339 339 339 339 339 341 342 343 343 343 343 344 344 343 342 341 337 330 325
344 341 338 335 333 332 331 332 331 329 329 330 331 332 332 331 332 332 333 335 336 338 340 340 341 340 340 340 340 340 341 341 341 342 342 342 342 341 341 341 338 332
344 341 339 336 334 333 333 333 332 331 329 329 330 332 332 331 331 331 332 334 335 336 338 340 340 340 340 339 339 339 339 339 339 340 340 340 341 340 340 341 341 339
344 343 341 339 337 335 334 333 332 331 330 329 329 330 330 330 330 331 332 334 334 335 337 338 338 338 338 338 339 339 339 338 338 338 338 338 339 340 340 340 339 339
345 343 341 340 339 337 335 333 333 332 331 329 329 329 329 329 330 330 332 333 334 334 334 335 335 335 335 336 337 339 339 339 338 338 337 337 337 338 338 339 338 337
345 343 342 341 340 339 337 335 334 333 332 331 330 328 328 328 329 329 330 331 333 333 333 333 334 334 334 334 335 336 337 338 339 338 338 337 337 337 337 337 337 336
347 346 345 343 342 340 338 336 335 333 333 333 331 330 329 328 329 330 330 330 331 332 333 333 333 334 334 334 334 334 335 335 336 336 336 336 336 336 336 337 337 336
350 348 347 345 344 341 338 337 335 335 334 334 333 332 331 329 329 330 330 331 331 331 332 332 332 333 333 334 334 334 334 334 335 335 334 335 334 334 335 336 336 336
351 349 348 346 345 342 340 338 337 336 335 334 333 333 332 331 330 330 330 331 331 330 331 331 331 332 333 333 333 334 335 335 335 335 335 335 334 334 334 335 334 335
353 351 349 346 344 343 341 340 339 337 336 334 333 333 332 331 330 330 330 330 331 330 331 331 331 332 332 333 334 334 335 336 336 336 336 335 335 336 336 336 336 335
355 353 349 346 344 342 340 340 339 338 336 335 333 332 332 331 331 330 330 330 330 330 331 331 331 333 333 334 334 335 336 336 337 337 337 337 337 336 336 337 338 337
356 354 351 348 345 343 341 340 339 338 337 335 333 332 332 331 330 330 331 331 331 331 332 332 332 333 335 335 336 337 337 337 338 338 339 339 339 338 338 338 339 339
357 356 354 352 349 346 343 341 340 339 338 337 335 334 332 332 332 332 332 332 332 332 332 333 334 335 335 335 335 336 337 337 337 338 340 341 342 341 340 341 341 340
358 357 356 354 352 350 346 343 342 341 340 339 337 335 334 333 333 333 333 332 333 333 333 334 335 335 335 334 335 335 337 338 339 339 340 342 343 343 343 342 342 341
359 358 358 357 355 353 350 347 345 343 343 341 339 337 335 335 334 334 334 334 334 333 333 334 335 334 334 334 334 336 339 341 342 342 342 343 344 344 344 343 343 343
360 360 359 358 357 356 354 352 350 347 346 344 342 339 338 337 336 335 335 335 335 334 334 334 333 332 333 334 335 337 340 344 345 345 345 345 345 345 345 345 346 345
361 362 362 361 360 359 357 355 353 351 348 346 344 342 340 339 337 336 335 336 337 337 336 335 333 333 333 334 336 337 340 343 345 347 347 347 347 347 348 348 348 348
362 363 363 363 362 361 360 358 355 353 350 349 347 345 344 341 339 337 336 337 338 338 338 336 334 333 335 336 338 338 340 344 346 347 349 349 350 350 350 350 350 349
364 364 364 365 364 363 362 360 358 355 352 351 349 348 346 343 340 339 337 337 338 340 340 338 336 335 337 338 339 340 342 345 348 349 351 351 351 352 352 352 352 351
365 365 366 366 365 365 364 362 360 359 355 353 351 350 349 346 344 343 342 340 340 341 342 341 338 338 339 339 339 341 345 349 351 352 353 354 353 354 354 354 354 354
365 366 366 366 366 366 364 364 363 361 359 356 353 351 350 349 347 346 345 345 345 345 345 344 340 340 342 343 344 347 350 351 353 354 354 355 355 356 356 357 357 357
365 366 366 366 366 366 366 365 364 363 362 360 357 355 353 350 348 347 348 349 348 348 348 347 346 346 347 349 349 351 352 353 354 355 356 356 356 357 358 358 360 360
365 366 366 366 366 366 366 366 364 364 363 362 360 359 356 354 352 350 349 349 350 350 351 351 352 352 353 353 353 353 355 356 357 357 358 358 358 358 359 359 360 361
365 366 366 365 366 366 365 365 365 365 364 363 362 361 359 358 356 354 351 351 350 350 351 352 353 354 354 355 355 356 356 357 358 359 359 359 359 359 360 361 362 362

ECMWFNIL_850_thetae_063.txt.gz
Theta_e
343 342 342 340 339 338 337 337 338 338 338 338 337 334 331 330 330 331 335 337 336 336 338 337 337 337 340 343 344 345 345 345 346 346 347 346 344 343 342 338 331 328
345 344 343 341 340 338 337 338 338 339 338 338 337 332 329 329 330 330 333 337 338 338 339 338 337 337 338 341 342 343 344 344 344 345 346 346 345 343 342 340 333 327
346 346 345 342 339 337 337 337 338 339 339 339 337 332 329 330 330 329 332 335 336 337 339 339 338 337 337 338 340 340 341 342 342 343 345 345 345 344 342 341 338 331
346 345 344 342 340 338 337 337 338 339 339 338 337 332 329 330 332 331 331 334 334 335 336 338 337 337 337 337 338 338 339 339 341 342 343 344 344 344 343 341 340 337
346 345 343 342 341 340 339 338 337 338 338 338 337 333 329 329 332 333 333 334 334 334 336 337 338 338 338 338 337 337 337 338 339 340 340 341 341 342 342 342 341 340
348 346 344 342 341 341 340 337 336 337 336 336 336 333 329 328 331 333 333 334 332 332 334 337 338 339 339 339 338 338 338 338 338 339 339 338 339 340 340 342 341 341
348 348 345 343 342 341 339 337 336 336 334 336 336 334 330 329 330 332 332 332 331 331 332 334 336 338 339 340 340 339 339 338 338 338 338 337 336 337 338 339 340 340
349 349 347 345 343 341 339 338 337 335 334 335 335 332 330 329 329 331 332 332 331 330 331 333 334 335 338 339 339 339 338 338 338 338 337 336 335 335 336 336 337 338
350 350 349 347 345 342 340 339 338 336 335 335 333 332 331 330 329 329 330 331 331 330 331 332 333 334 335 337 336 336 336 336 336 336 336 336 334 334 334 334 335 335
351 351 350 349 348 344 341 339 338 337 336 335 333 332 332 331 330 329 329 329 330 330 330 331 332 333 333 333 334 334 334 334 334 335 335 334 333 332 332 333 333 333
351 351 351 350 349 347 344 341 339 338 337 336 334 334 333 332 331 330 330 329 329 328 329 329 331 331 332 332 331 332 332 333 334 334 333 333 333 333 333 333 332 332
352 352 352 352 350 348 346 342 341 339 338 336 335 334 333 332 332 331 330 329 328 328 328 329 330 330 330 330 331 331 332 332 332 332 333 333 333 333 334 334 334 334
352 353 353 352 352 350 348 345 342 340 339 336 336 334 333 332 331 331 331 329 328 328 328 329 329 329 329 330 330 331 331 332 332 332 332 332 333 333 334 334 335 334
352 352 353 353 353 352 350 348 344 342 340 337 336 335 334 332 332 331 330 329 329 328 328 328 329 329 330 329 330 330 331 331 331 331 331 332 332 333 334 335 335 335
353 354 354 354 355 354 353 351 348 345 343 340 338 337 335 334 333 331 331 330 329 328 328 328 329 329 329 330 330 330 330 331 331 332 332 332 332 333 335 336 336 336
354 354 354 355 354 355 354 353 351 348 346 344 341 339 337 335 335 334 333 331 330 329 329 328 329 329 329 329 330 330 331 331 331 332 332 333 334 335 337 337 338 337
355 356 356 356 356 355 355 354 353 351 349 347 345 342 340 338 337 336 334 333 331 331 330 329 330 330 330 330 330 330 330 331 331 332 334 335 337 338 338 338 340 341
356 356 356 357 357 357 357 356 355 354 352 350 348 345 343 341 339 337 336 335 334 333 332 331 331 331 331 330 331 330 331 331 332 333 336 337 338 339 340 341 342 343
356 357 357 357 357 358 358 358 357 356 354 353 350 348 346 343 341 338 337 336 336 335 333 332 332 332 331 331 331 331 331 333 334 335 337 339 340 341 341 343 343 345
357 357 357 358 358 358 359 358 358 357 356 355 354 352 349 346 342 340 338 337 336 336 335 334 333 332 332 332 332 332 333 334 336 338 340 342 342 343 344 344 345 347
357 358 358 359 360 359 360 360 359 358 358 358 357 356 353 350 348 344 341 339 338 338 337 336 334 334 334 334 333 334 335 337 339 341 343 343 344 345 346 346 347 348
358 359 360 360 360 360 360 360 360 360 360 360 359 358 357 355 353 350 346 343 341 340 339 337 334 334 335 335 335 336 338 341 342 343 344 344 345 346 347 348 349 350
360 360 360 361 360 361 361 361 361 362 361 362 362 360 360 358 356 354 350 348 345 343 341 338 335 336 337 336 337 338 341 343 344 345 346 346 346 347 348 349 350 351
361 361 361 361 361 361 362 362 362 362 363 363 363 363 362 360 359 357 354 351 349 346 343 341 337 336 337 338 339 341 343 345 346 346 347 348 348 349 350 351 352 353
362 362 362 362 362 362 362 363 363 363 364 364 364 364 363 362 361 359 358 356 354 351 349 346 343 340 340 340 341 342 345 346 348 348 349 350 350 351 352 352 353 353
363 362 362 362 362 363 363 364 363 364 365 364 365 365 364 364 363 361 360 359 357 355 354 351 350 348 345 344 343 345 346 348 349 350 350 351 351 352 353 354 354 355

ECMWFNIL_850_thetae_066.txt.gz
Theta_e
345 344 343 342 342 341 340 340 340 339 338 337 338 337 336 336 336 336 335 335 335 335 335 336 337 337 337 338 338 340 343 344 345 345 345 345 345 344 344 343 343 342
346 344 343 342 342 341 341 340 338 338 338 337 337 337 337 337 336 336 336 335 334 334 334 335 335 336 337 337 337 339 341 343 344 344 344 344 345 345 344 343 343 342
346 344 343 341 341 340 340 339 339 338 337 337 337 337 337 337 337 337 336 335 333 333 334 334 335 336 336 337 337 338 339 341 341 342 343 343 344 345 344 344 343 341
347 345 343 341 339 338 339 340 339 338 338 337 337 337 337 337 338 337 336 335 333 332 334 335 336 337 337 337 337 337 337 338 339 340 341 341 342 343 344 345 344 342
348 347 345 343 341 340 339 339 339 338 338 337 337 337 337 337 338 337 336 334 332 331 333 335 337 337 338 337 337 337 337 337 338 338 339 339 341 341 342 343 343 343
348 348 346 344 342 341 340 339 338 338 338 337 337 336 337 337 337 337 335 332 332 332 331 333 336 336 337 337 337 337 336 336 336 337 337 337 338 339 340 340 341 342
348 348 348 346 345 342 340 339 338 339 338 338 337 337 337 337 336 336 334 332 332 333 332 332 333 334 335 337 337 337 337 336 336 336 336 336 337 337 337 338 338 339
348 347 348 348 347 345 342 339 338 338 338 338 338 337 337 336 335 335 333 332 332 333 333 333 333 333 334 336 338 337 337 337 337 337 336 336 336 335 335 335 335 336
348 348 348 348 347 347 345 341 339 337 337 338 337 336 336 335 334 333 332 332 330 331 333 334 334 332 333 334 337 337 338 338 337 337 337 336 336 335 334 334 334 334
349 348 348 348 348 348 347 345 342 339 337 336 335 335 335 334 332 332 332 332 330 330 331 333 333 332 331 331 333 335 336 337 337 337 336 336 335 334 334 333 333 332
349 348 348 348 349 348 348 347 345 343 339 337 335 334 333 332 332 331 332 331 330 330 330 331 331 331 331 330 331 333 334 335 336 336 336 335 334 333 333 333 332 332
348 349 348 348 349 348 348 348 347 345 342 338 336 334 333 333 332 332 331 330 329 329 329 330 330 330 330 329 330 332 333 334 334 334 334 333 333 333 333 333 332 332
349 348 348 349 348 349 349 349 348 347 344 340 337 335 335 334 333 332 332 330 330 329 329 329 329 329 329 328 328 330 331 332 332 332 332 332 332 332 332 332 332 333
348 348 349 348 348 349 349 349 349 348 346 342 339 337 335 334 333 333 332 331 330 330 330 329 329 329 328 328 327 328 329 330 330 330 330 331 330 331 332 332 332 332
348 349 349 349 349 349 349 350 350 349 348 345 342 338 336 335 335 334 334 333 331 330 330 330 330 329 328 327 328 328 328 329 329 329 329 329 330 330 331 331 331 332
349 348 349 349 349 349 350 350 350 350 350 348 344 341 338 337 336 336 335 334 332 332 331 331 330 329 328 327 327 327 328 328 328 329 329 329 329 330 330 330 330 331
350 349 349 350 349 350 350 350 351 351 351 351 348 345 343 341 339 337 336 335 334 333 332 331 331 329 328 328 328 328 328 328 328 328 328 329 329 330 330 330 331 332
350 350 350 350 350 350 351 351 351 351 352 352 351 349 347 344 342 340 337 336 335 334 333 332 330 329 328 328 328 328 328 329 328 328 329 329 329 329 330 331 332 332
351 351 351 351 350 350 351 351 352 352 353 353 352 351 349 347 344 342 338 337 336 335 334 332 331 330 329 329 328 329 329 329 330 330 330 331 331 331 331 332 333 333
352 352 352 352 351 351 352 352 352 353 353 353 353 353 352 350 347 343 340 338 337 336 335 333 332 331 330 330 330 330 331 331 332 332 332 332 333 333 333 334 334 336
352 353 353 352 352 352 353 353 353 354 354 354 355 355 355 353 350 346 343 341 338 337 336 334 333 332 331 331 331 332 333 333 334 334 335 335 334 334 335 335 336 338
353 353 353 353 353 353 354 354 354 355 354 355 356 356 356 356 355 353 351 347 344 344 341 336 333 333 333 332 332 333 334 335 336 336 336 335 335 335 336 337 338 341
353 353 353 353 353 354 355 354 355 355 356 357 357 357 358 358 357 357 356 354 352 350 346 340 334 333 334 333 333 335 336 337 337 337 337 337 337 336 337 339 341 343
352 352 352 353 354 354 355 355 356 356 358 358 358 358 358 358 359 359 358 358 357 355 351 345 340 336 336 335 335 337 338 338 338 338 338 339 338 339 340 341 343 344
352 352 353 353 355 356 356 357 358 358 359 359 359 360 360 360 360 360 360 360 359 358 356 354 349 343 340 339 339 341 342 341 341 341 341 342 341 341 342 344 345 347
352 353 354 355 356 357 358 359 359 360 360 360 360 360 360 361 361 361 361 361 361 360 360 358 356 352 348 346 347 347 348 347 346 346 344 345 344 345 346 347 348 350

ECMWFNIL_850_thetae_069.txt.gz
Theta_e
346 344 341 339 339 339 337 336 337 338 339 339 339 339 338 337 337 338 338 338 338 338 337 337 337 337 337 338 338 339 339 339 341 343 345 345 346 346 345 344 343 343
347 346 344 342 341 340 339 338 338 338 338 338 339 339 338 337 337 337 338 337 337 337 337 337 337 336 337 337 337 338 338 338 339 341 343 344 344 345 345 344 344 344
347 346 345 343 342 342 342 341 340 339 339 338 338 338 338 338 338 338 338 338 337 337 337 337 336 336 336 336 337 337 337 338 338 340 342 343 343 343 343 344 344 344
347 346 345 344 343 343 343 342 341 341 340 339 338 338 338 338 338 338 338 338 338 337 337 336 336 335 335 336 336 336 337 337 337 338 339 341 341 341 342 343 343 344
348 348 346 344 344 344 343 343 342 341 341 339 338 338 338 337 338 338 338 338 338 338 337 336 335 335 335 336 336 336 336 337 337 337 337 338 339 339 339 340 341 342
348 348 347 346 345 343 342 342 341 341 340 339 338 338 338 337 337 337 337 337 338 338 338 336 334 333 334 336 337 337 337 337 337 336 336 336 337 337 337 337 338 340
347 347 347 348 347 345 343 341 340 339 339 338 338 337 337 337 337 337 337 337 337 338 338 336 334 332 333 335 337 338 338 338 337 336 336 336 336 336 336 336 336 337
347 347 347 347 348 347 345 343 341 339 339 339 338 337 337 337 336 336 336 336 337 337 337 336 333 333 333 333 336 337 337 337 337 337 336 336 336 335 335 335 336 336
348 348 347 347 348 347 346 345 342 340 339 338 338 337 337 337 336 336 335 335 336 335 335 334 333 333 333 333 333 335 335 336 336 336 337 337 336 336 336 336 336 335
348 348 348 348 348 347 347 346 344 342 339 338 338 337 337 336 336 335 336 336 335 335 333 332 332 333 333 333 332 332 334 335 336 337 337 337 336 336 336 336 336 335
348 348 349 348 348 347 346 346 346 345 342 339 338 337 336 335 335 335 335 335 334 333 331 330 330 331 333 333 333 333 333 334 335 336 336 336 335 335 335 335 335 334
348 348 348 348 348 347 346 347 347 347 345 342 340 337 336 335 334 334 334 333 332 331 330 329 329 330 332 333 333 333 332 332 332 333 334 335 334 334 334 334 333 333
347 347 348 348 347 347 347 347 347 347 346 345 343 340 338 336 334 333 332 332 331 330 329 328 328 329 330 331 332 332 331 332 331 330 332 333 333 333 333 333 332 332
347 347 348 348 347 347 347 347 347 347 347 347 345 343 340 336 334 332 331 331 331 330 329 329 329 328 328 329 331 331 331 330 330 330 331 331 332 332 332 332 331 331
346 347 347 348 347 347 347 347 347 347 347 347 346 344 341 339 336 334 333 331 331 331 330 330 329 328 328 328 329 330 330 330 329 329 329 329 330 330 330 330 330 330
346 347 347 348 348 347 347 347 347 347 347 347 347 346 344 341 339 336 334 333 332 332 331 331 330 329 328 328 327 328 328 328 328 328 328 328 328 329 329 329 329 329
347 347 348 347 348 348 348 348 348 347 348 348 348 348 346 344 342 340 337 335 333 333 332 332 331 330 328 328 328 328 328 328 328 328 328 328 328 328 328 329 329 329
347 348 348 348 348 348 348 348 348 347 348 348 348 348 348 347 346 344 340 337 335 334 332 332 330 329 328 328 328 328 328 329 329 329 329 328 328 328 328 328 328 328
348 347 348 348 347 347 348 347 348 348 347 348 349 348 349 349 349 347 344 341 338 335 333 332 331 329 328 328 329 328 328 329 329 329 329 328 328 328 328 328 328 329
348 347 348 347 347 347 347 347 347 348 348 349 348 349 349 350 350 350 348 346 342 339 335 333 332 330 328 328 328 328 329 329 329 330 330 329 329 328 329 329 329 329
348 348 347 347 347 347 348 348 347 348 349 348 349 349 350 350 351 351 350 348 346 343 340 337 334 331 330 329 329 329 329 330 331 331 331 330 330 329 330 330 330 331
348 347 347 347 347 347 348 348 348 349 348 349 349 349 350 350 351 351 351 351 350 348 346 342 336 334 333 331 331 331 332 332 332 332 332 332 332 331 331 331 332 332
348 348 348 347 348 348 348 349 349 349 349 350 350 350 350 351 351 352 353 353 352 352 351 346 340 336 335 334 333 333 335 335 334 333 334 333 332 333 333 333 333 333
348 348 348 348 348 349 349 349 350 350 351 350 351 352 352 352 352 353 353 354 354 355 355 352 346 343 340 339 338 337 338 338 337 337 337 336 335 334 334 334 334 334
348 348 348 349 349 350 350 350 350 351 351 352 352 352 353 353 353 354 355 356 356 356 357 356 354 352 348 345 344 344 344 344 344 344 343 340 338 337 335 335 336 335
348 349 349 350 350 350 350 351 351 352 352 352 353 354 354 355 355 356 356 357 358 358 358 358 357 356 354 351 349 349 349 350 351 350 348 345 343 342 341 339 339 338

ECMWFNIL_850_thetae_072.txt.gz
Theta_e
348 345 341 340 339 338 338 338 337 337 335 335 335 336 338 339 339 340 339 342 344 343 344 345 345 345 345 344 344 345 345 344 341 341 342 344 346 348 349 347 345 343
350 347 345 344 341 338 338 338 337 336 335 335 335 336 338 339 339 339 339 342 343 342 343 344 345 346 347 344 342 344 346 344 341 340 342 343 343 346 347 347 346 344
351 350 349 347 343 338 338 337 337 336 336 335 334 336 337 338 339 339 339 340 341 341 342 343 344 345 346 344 342 344 345 344 340 338 340 340 341 343 344 344 345 345
351 350 350 349 345 341 340 338 339 337 337 336 336 336 338 338 338 338 339 338 339 340 341 341 342 342 343 343 342 344 345 343 341 338 338 339 339 340 340 341 344 344
349 349 349 349 348 347 344 341 340 339 339 339 338 337 338 338 338 338 338 337 337 338 339 340 341 341 342 342 342 344 342 342 342 339 340 341 338 337 338 338 340 341
349 348 349 349 349 350 347 343 341 341 340 340 339 339 337 337 337 337 337 337 337 338 338 339 340 341 341 339 340 342 339 340 342 341 342 343 338 336 337 337 337 337
348 348 349 350 349 347 345 343 342 341 341 341 341 340 339 338 337 336 337 337 337 337 338 339 339 339 340 338 337 339 337 337 340 339 342 345 342 338 336 336 336 336
348 349 348 349 347 345 344 343 342 341 342 342 341 340 339 338 337 336 336 336 337 337 337 338 338 338 340 338 335 335 335 335 337 337 340 344 344 339 336 335 337 336
348 348 349 348 346 346 344 343 341 340 340 340 340 340 339 337 337 336 336 336 336 336 336 337 338 338 340 339 335 333 333 333 336 337 337 339 340 338 336 336 336 336
347 348 348 348 347 347 345 344 344 343 340 339 339 338 338 337 336 336 336 335 335 335 335 336 336 337 338 338 334 331 331 332 333 335 336 336 336 336 337 337 336 337
346 347 348 348 347 346 344 344 347 348 343 338 338 338 338 337 335 335 336 335 335 334 335 335 335 336 336 335 334 332 331 331 331 332 334 334 335 336 337 337 337 338
346 346 347 347 346 346 346 346 349 351 347 340 336 337 338 337 336 336 336 335 334 334 334 334 334 334 334 333 333 332 331 330 331 331 332 333 334 335 337 337 337 337
345 346 346 346 346 346 348 349 350 352 350 344 338 337 338 337 336 335 335 335 335 334 334 334 334 334 333 331 331 331 332 331 331 331 332 332 332 333 334 335 335 334
344 345 346 347 347 346 348 349 350 351 349 345 341 338 338 336 336 335 335 334 334 334 334 334 334 333 332 331 330 330 331 332 332 332 332 332 331 331 331 333 334 335
344 345 346 347 347 347 348 348 349 348 347 345 343 341 340 338 338 339 336 333 332 333 333 333 333 332 331 329 328 328 329 330 332 332 332 332 331 330 331 331 332 334
345 345 345 346 347 348 347 348 348 347 346 346 344 343 343 342 341 342 341 338 333 332 333 333 331 331 330 328 327 327 328 328 330 331 331 331 331 331 330 330 329 331
345 345 345 345 346 346 347 347 348 348 347 347 346 345 345 345 344 344 345 345 341 335 332 331 331 331 330 328 327 327 327 328 329 329 330 330 330 330 329 329 328 328
347 346 345 345 345 346 347 347 347 347 347 347 346 346 346 346 347 346 346 348 349 345 339 333 331 331 330 329 328 327 327 327 328 328 329 328 329 328 328 328 328 328
347 347 346 345 346 346 346 347 347 347 348 347 347 347 347 347 347 348 347 348 349 349 345 339 335 332 331 330 329 329 328 328 329 328 328 328 327 327 327 328 327 328
347 347 347 346 346 346 346 346 347 347 347 347 347 347 348 347 347 348 348 347 348 348 347 344 340 336 332 330 331 330 329 329 330 330 330 329 329 328 328 328 328 328
347 348 347 347 347 346 346 346 347 348 348 348 348 348 348 347 347 348 348 348 348 348 347 346 344 339 333 329 330 330 330 331 331 331 331 330 329 329 329 328 328 328
348 348 348 348 347 347 347 347 347 348 348 348 348 348 348 347 347 348 348 348 349 349 349 348 345 340 336 332 330 330 332 333 333 333 333 331 330 329 329 328 328 328
348 348 347 348 348 348 347 347 347 348 347 348 348 348 348 348 347 348 348 348 348 349 349 348 347 343 339 336 333 333 334 334 335 335 334 333 331 330 330 330 329 329
347 348 348 348 348 348 347 347 348 348 347 348 348 348 348 348 348 348 348 347 348 349 349 349 348 346 343 340 338 338 337 337 337 337 336 335 333 332 332 331 331 330
347 348 348 347 347 347 347 348 347 348 347 347 347 347 348 348 348 348 348 348 349 349 350 350 350 349 348 345 342 341 341 342 341 341 340 338 335 334 334 333 333 333
348 347 347 347 347 347 347 348 348 348 348 348 347 348 348 349 350 350 349 349 350 350 351 351 351 352 351 349 347 345 345 346 345 345 344 341 338 339 339 337 337 337

ECMWFNIL_850_thetae_078.txt.gz
Theta_e
331 329 328 328 329 329 331 336 339 337 334 334 332 332 332 332 338 347 346 341 338 341 341 341 343 344 343 343 344 345 345 343 344 344 346 346 348 353 356 354 351 347
336 334 331 331 331 330 332 338 342 341 338 335 335 334 334 333 335 342 345 341 338 340 341 341 343 343 343 343 343 343 342 342 342 342 344 345 345 351 356 356 353 347
337 336 335 335 334 333 335 339 344 345 342 339 338 339 341 341 338 339 340 338 336 338 341 343 343 342 343 343 343 342 342 341 341 340 342 344 344 347 352 355 355 351
339 338 337 337 337 337 337 340 345 348 347 343 340 341 346 348 345 340 339 336 335 336 340 342 343 343 343 342 342 342 341 339 340 340 340 341 343 344 346 352 355 355
340 339 339 340 340 341 340 342 346 347 347 346 341 340 345 351 350 346 341 337 334 335 338 342 343 343 343 343 343 342 341 340 339 339 339 338 342 344 343 346 351 354
341 341 342 342 342 344 343 342 345 346 345 346 342 339 344 349 351 350 346 338 335 336 336 339 341 343 343 342 342 342 341 341 340 339 339 338 340 341 341 341 343 347
343 342 343 343 344 346 346 342 343 345 344 345 343 340 342 347 349 351 349 342 337 336 337 337 338 339 341 341 341 342 340 341 342 340 339 339 339 339 338 338 339 340
343 343 343 345 345 346 346 344 344 345 343 344 346 344 343 345 346 347 348 345 340 338 338 339 338 337 339 339 339 340 340 339 342 341 338 338 340 339 337 337 337 338
345 345 344 345 345 345 345 344 344 344 343 345 347 346 345 345 345 345 347 345 341 339 339 340 341 338 339 339 337 338 339 338 339 339 338 338 338 339 338 336 336 335
347 346 345 345 346 345 344 345 344 343 343 345 347 348 346 345 344 343 345 344 342 341 340 341 342 341 340 339 336 335 337 338 338 338 338 337 337 338 337 336 335 334
347 347 346 345 345 345 344 345 349 347 343 343 346 347 348 348 345 343 343 342 343 342 341 339 341 341 339 340 338 336 335 336 337 338 337 336 336 337 336 336 335 334
347 346 345 345 345 346 345 347 353 354 350 345 343 346 351 351 348 345 344 342 340 340 340 339 339 339 339 339 339 338 336 335 336 337 337 335 334 335 335 335 334 336
347 345 345 345 346 348 350 351 355 358 356 350 344 344 351 354 352 348 347 344 338 337 338 337 337 338 337 336 337 339 339 336 335 335 335 334 332 332 334 334 332 333
348 347 346 345 347 349 353 355 355 356 358 356 348 344 348 354 356 352 350 348 343 337 336 335 334 335 336 334 334 337 338 338 336 336 334 332 331 332 332 332 334 337
351 350 349 348 349 349 352 355 355 356 358 358 354 349 347 350 355 355 353 352 349 342 338 337 334 334 334 333 333 334 336 336 335 336 335 333 331 331 331 332 337 345
354 353 351 351 351 349 350 353 356 356 358 358 357 354 351 349 352 355 356 354 352 347 342 340 338 334 333 333 332 332 334 335 335 335 335 334 333 331 331 333 336 342
356 355 354 353 352 351 350 351 355 357 357 357 358 356 354 352 351 354 357 356 355 351 345 342 341 336 332 331 331 331 332 333 334 334 334 334 335 334 333 333 336 340
358 356 356 354 353 352 351 350 353 356 357 356 357 357 355 354 352 352 355 357 358 356 351 344 340 337 333 331 330 330 331 331 332 334 335 334 335 335 333 331 332 338
359 358 356 355 354 353 352 351 352 356 356 355 356 357 356 355 353 352 353 355 358 359 357 352 346 341 335 331 331 330 330 331 331 332 335 335 333 333 333 331 328 329
361 360 358 356 355 354 354 353 352 354 356 355 355 356 357 357 355 354 352 353 355 357 358 357 354 350 342 335 331 330 329 331 331 331 333 336 338 336 334 332 329 327
362 361 359 357 356 355 355 355 354 354 355 356 355 356 358 358 357 356 354 353 354 356 356 357 358 357 353 344 335 331 330 331 331 332 334 339 345 345 342 337 333 330
363 363 361 358 357 356 356 356 355 354 355 356 356 357 358 359 358 358 357 355 353 354 355 357 358 358 358 354 344 337 338 338 335 333 334 340 348 351 350 347 342 337
365 364 363 361 359 357 356 356 355 354 355 355 356 357 360 361 360 358 358 357 355 353 353 355 357 357 358 356 351 345 345 345 340 335 332 334 340 346 350 352 350 342
366 366 364 362 360 359 357 356 356 355 355 354 354 357 362 363 361 359 358 357 357 355 352 351 353 356 357 356 353 351 350 348 344 340 336 332 332 334 337 342 343 339
367 367 366 363 361 361 359 359 357 356 354 353 352 357 362 362 361 360 359 358 358 357 355 351 350 352 353 352 350 348 349 348 347 345 343 337 334 332 331 332 333 333
367 367 367 364 363 363 363 363 361 357 354 354 353 353 357 359 360 362 362 361 360 358 356 354 351 350 350 348 345 344 345 346 347 346 345 342 338 336 335 333 332 331

ECMWFNIL_850_thetae_081.txt.gz
Theta_e
327 328 327 326 326 325 325 326 327 328 329 328 328 328 329 329 330 329 329 331 335 337 339 340 341 342 343 345 351 355 352 347 344 346 347 345 347 348 346 346 349 349
327 327 327 326 326 326 325 326 326 327 328 328 328 329 330 330 331 331 330 330 333 336 337 339 340 342 343 342 346 350 348 344 342 344 346 345 346 348 347 346 347 347
329 327 326 326 326 326 325 326 326 326 326 327 328 330 331 331 331 332 331 331 332 334 336 338 339 340 342 342 343 345 343 342 342 342 343 344 344 345 345 345 343 344
332 330 328 326 326 326 326 326 326 326 327 327 329 330 331 331 332 333 334 333 331 332 335 337 339 339 340 341 341 342 342 341 342 341 341 343 343 343 345 345 343 344
336 333 332 330 328 327 326 327 327 327 328 328 329 330 330 331 332 334 335 334 332 330 333 336 339 339 339 339 339 341 340 339 341 340 339 341 342 342 344 345 344 346
339 337 335 334 333 331 329 328 328 328 329 329 330 331 331 331 331 332 334 335 333 331 332 334 337 339 339 339 339 339 340 338 339 339 338 338 339 340 342 343 343 345
341 339 337 337 336 334 333 332 331 331 331 331 332 332 333 332 331 331 332 335 335 333 332 333 335 338 339 340 339 339 339 339 338 338 338 337 337 338 340 342 341 342
345 342 339 338 337 337 336 335 334 334 333 334 335 334 334 334 333 331 331 334 335 334 333 332 333 335 337 338 339 338 339 339 339 337 337 337 337 336 337 340 340 340
348 345 341 340 339 337 337 337 337 336 337 337 337 335 336 336 335 333 332 333 335 335 333 332 333 334 335 336 337 338 338 337 338 338 336 336 336 336 336 337 336 335
351 348 344 342 341 340 338 338 339 339 339 339 338 337 336 337 339 337 335 334 335 335 335 334 334 335 335 335 335 336 336 336 337 337 337 336 336 337 337 338 337 334
353 350 347 344 342 341 340 341 341 341 342 340 340 338 337 338 341 341 339 338 337 335 334 334 333 334 335 336 335 336 336 336 336 336 336 336 335 335 336 338 338 335
354 351 348 345 344 343 342 342 342 343 343 343 341 340 339 339 341 343 342 341 339 336 334 333 332 333 334 335 335 336 336 335 336 335 336 335 335 334 334 335 335 334
355 352 348 346 344 343 343 344 345 344 345 344 342 341 341 341 342 343 343 341 340 339 336 334 333 333 333 333 334 334 335 334 334 334 335 335 334 333 333 333 333 332
356 353 350 347 345 345 344 345 346 346 345 345 343 342 343 343 342 342 343 342 341 340 338 336 336 336 334 333 333 333 334 333 333 333 333 334 334 333 333 332 331 331
357 355 353 350 347 346 346 345 345 346 346 346 345 344 344 345 344 342 342 342 341 341 340 338 338 337 336 335 333 333 332 332 332 332 332 332 333 333 333 332 331 331
359 357 355 353 350 348 347 346 346 347 348 347 347 345 345 346 347 346 345 344 342 342 341 340 338 337 336 334 333 333 332 332 331 331 331 332 332 332 331 331 330 330
361 358 356 354 352 350 348 348 348 348 349 348 348 347 347 347 348 350 349 346 345 343 342 341 338 335 334 334 333 333 333 333 332 331 331 331 331 332 331 331 330 329
362 360 358 355 353 352 350 349 350 350 350 350 349 350 349 349 349 351 352 350 349 347 344 342 339 335 334 333 332 332 332 332 332 332 331 331 332 332 331 332 331 330
364 362 359 356 354 352 351 351 351 351 352 352 352 352 351 351 351 352 353 353 352 350 348 345 342 339 337 334 332 331 331 332 333 333 332 332 332 331 332 332 331 332
364 363 360 357 355 354 353 352 351 352 353 353 354 355 355 354 352 351 353 354 354 353 351 349 345 343 341 338 335 333 332 331 332 333 333 333 332 332 332 331 332 332
365 363 361 359 356 354 354 353 352 352 353 354 356 357 356 356 354 352 352 353 355 354 354 352 349 346 344 342 339 336 335 334 334 334 334 334 333 332 332 331 331 332
365 364 362 360 358 356 355 355 354 353 353 355 357 358 357 357 356 354 352 351 353 354 355 355 352 349 348 346 343 339 339 339 339 338 337 336 335 334 333 332 332 332
365 364 363 361 359 357 356 356 355 354 353 354 356 358 358 358 357 357 355 352 352 353 354 354 354 353 352 350 347 344 345 345 344 342 340 337 336 335 334 334 333 333
365 364 364 362 361 359 357 356 356 355 354 353 355 357 358 358 357 357 357 355 352 352 353 354 354 354 354 353 350 349 349 349 347 346 343 340 338 337 336 335 335 334
365 365 364 363 362 360 358 357 356 356 355 354 355 356 357 358 358 357 357 357 354 352 351 353 354 354 354 354 353 352 352 352 353 352 349 345 341 339 337 336 334 334
365 365 364 363 363 361 359 358 357 356 356 355 355 355 357 358 358 357 357 357 356 354 352 352 352 353 354 354 353 353 353 354 356 356 353 348 344 341 337 335 335 333

ECMWFNIL_850_thetae_084.txt.gz
Theta_e
329 329 332 336 336 333 333 332 332 330 328 328 328 328 326 326 328 330 329 331 335 339 340 341 340 342 344 345 345 346 348 347 346 347 346 343 339 337 337 341 343 344
328 327 329 334 336 334 332 330 330 329 327 327 327 326 326 327 327 329 330 330 332 335 338 339 340 341 343 345 343 344 348 347 345 345 345 344 342 339 340 344 345 345
328 327 326 329 332 332 331 329 329 328 327 326 327 326 326 326 327 328 329 330 331 332 335 337 339 340 342 344 342 342 344 345 343 343 344 344 344 342 342 343 345 345
328 327 326 327 328 328 327 328 328 327 327 326 326 326 326 326 327 328 329 330 331 332 335 335 336 339 341 342 342 341 341 342 341 342 343 343 344 344 342 341 342 344
330 328 327 327 327 327 326 326 326 326 326 326 325 325 326 326 327 328 329 329 330 331 334 335 336 337 340 341 341 341 340 339 340 340 341 342 343 343 343 342 342 341
335 331 329 328 326 327 328 326 326 326 325 325 325 325 326 326 327 328 329 329 329 329 331 334 335 336 338 339 339 340 340 338 339 339 340 341 342 342 342 343 342 339
341 336 333 330 328 327 327 327 326 326 325 325 325 326 326 326 326 328 329 329 329 328 329 331 333 335 338 338 338 338 339 339 338 339 339 339 340 341 341 342 342 341
345 341 338 335 332 329 328 327 326 326 326 326 325 326 326 326 326 328 329 330 329 329 329 329 331 334 336 338 339 338 339 339 338 338 338 337 338 339 339 340 341 342
349 346 342 339 337 335 331 329 328 327 326 326 326 326 326 327 327 328 329 330 329 329 329 329 330 331 334 337 339 339 338 338 338 337 337 336 335 336 338 339 339 340
351 349 347 344 342 339 336 333 331 330 328 327 327 327 327 327 328 329 329 330 331 330 330 331 331 331 332 335 336 338 338 338 338 338 337 336 335 335 336 336 337 338
353 352 350 347 346 343 340 337 335 333 332 331 330 329 330 330 330 330 331 331 332 331 330 331 332 332 332 332 334 335 337 337 338 337 337 337 335 335 335 335 335 336
355 354 352 351 348 346 343 341 339 337 335 334 333 332 332 333 333 332 333 333 332 331 331 330 331 332 333 332 333 334 335 336 337 337 336 335 335 335 335 335 336 336
356 355 354 353 350 348 346 344 342 340 338 338 337 336 335 334 335 335 335 335 333 331 331 332 332 333 333 333 333 334 334 335 335 336 336 335 334 333 334 334 335 336
357 357 356 354 352 350 348 346 345 343 341 340 339 338 337 337 337 337 337 336 335 332 332 332 334 334 334 334 334 334 335 335 335 335 335 335 334 332 332 333 333 333
358 358 357 356 355 353 351 349 347 346 344 342 341 340 339 338 338 339 339 338 337 335 334 334 335 335 335 334 334 334 334 335 335 335 335 335 335 333 332 332 331 331
359 359 358 358 357 355 354 352 349 348 347 345 343 341 340 340 340 341 341 340 339 338 338 337 337 336 335 334 333 333 333 334 334 335 335 335 335 333 332 331 330 329
360 360 359 359 358 357 356 355 352 350 349 347 345 343 342 342 342 343 343 341 340 339 339 340 338 336 334 334 333 332 332 333 333 333 333 333 333 333 332 330 330 330
361 361 361 360 360 359 358 356 354 353 351 349 347 346 345 344 344 345 345 343 342 341 340 340 339 336 334 334 333 332 332 332 332 333 333 333 333 333 332 331 331 331
362 362 362 362 361 360 359 358 356 354 352 350 349 347 347 346 346 346 345 345 343 342 342 342 340 338 336 335 334 334 333 333 333 333 333 333 332 332 332 331 330 331
363 363 363 363 362 362 361 359 357 355 353 351 350 349 349 348 348 348 346 346 345 343 343 342 340 338 337 337 336 335 334 335 335 335 334 333 333 332 332 332 331 331
364 364 364 364 364 363 362 360 358 356 354 352 351 350 350 350 349 349 348 346 346 344 344 343 340 337 338 338 338 337 336 337 338 338 337 335 334 333 333 332 331 331
365 365 365 365 365 364 364 362 360 357 355 354 352 351 351 351 351 350 350 348 347 347 345 344 340 338 338 339 339 339 340 340 342 342 341 339 336 335 334 332 332 332
365 365 365 365 365 365 365 363 362 359 357 355 354 352 352 352 352 352 351 350 350 349 347 345 342 339 338 338 340 343 344 344 344 344 344 342 338 336 334 333 332 332
365 365 365 365 366 365 365 364 363 361 359 356 354 353 353 353 353 353 353 352 352 351 350 348 345 342 340 340 343 346 347 347 346 346 345 344 341 338 336 335 333 332
366 366 366 365 366 365 366 365 364 363 360 358 356 354 353 354 354 354 354 354 354 354 352 352 349 347 344 343 345 348 351 350 349 348 347 344 342 340 339 337 334 332
366 366 366 366 366 365 365 365 365 364 362 359 357 356 354 355 354 355 355 355 355 356 355 354 353 351 348 346 346 349 351 353 352 352 349 345 342 340 339 338 335 333

ECMWFNIL_850_thetae_087.txt.gz
Theta_e
332 331 330 329 329 328 329 331 331 330 330 329 329 330 328 328 329 329 330 332 335 338 338 338 339 339 339 341 342 343 345 347 347 347 346 345 344 343 342 342 341 338
331 331 330 329 328 328 330 332 333 332 331 328 328 329 329 328 329 330 329 330 331 334 337 338 339 339 339 340 341 341 343 346 346 347 346 346 344 341 339 339 339 339
331 331 330 329 328 328 330 331 331 332 332 329 327 328 329 328 328 329 329 329 329 331 334 337 338 339 339 339 339 340 341 344 345 344 344 345 344 341 337 336 339 341
331 331 330 330 329 329 329 329 329 330 330 329 328 328 328 327 327 327 328 328 328 329 331 334 337 339 338 338 339 339 340 342 344 345 343 343 344 342 337 336 340 343
331 330 329 330 329 329 329 329 328 328 328 329 328 328 328 327 326 326 327 327 327 328 329 331 334 337 338 338 339 339 340 340 343 345 344 342 343 343 340 339 340 343
337 333 330 329 329 329 329 328 327 328 328 328 327 327 328 328 327 327 327 327 327 327 329 330 332 334 336 338 338 339 340 340 341 343 343 342 342 343 343 341 341 342
342 339 335 331 330 329 329 328 328 328 329 329 328 328 328 327 327 326 326 326 327 327 328 329 331 332 334 336 338 339 340 340 341 341 340 340 341 341 342 343 342 341
345 344 340 337 334 331 329 328 328 328 328 329 330 329 328 327 326 325 325 325 326 327 327 329 330 331 333 335 336 338 339 340 341 340 340 339 339 339 340 341 341 341
346 346 345 342 339 335 331 329 327 327 327 328 329 328 328 328 326 326 325 325 325 326 326 327 330 332 333 334 335 337 338 339 339 340 340 338 338 337 338 339 340 340
347 346 346 346 344 342 337 332 329 327 326 327 327 327 328 328 327 327 326 325 325 326 326 326 328 330 331 333 333 335 337 338 339 339 339 338 338 337 337 337 337 338
348 347 347 347 348 346 343 339 334 330 327 327 326 326 327 327 328 327 327 326 325 326 326 326 327 329 330 331 331 332 335 337 338 339 339 339 338 338 337 336 336 336
348 348 349 349 349 349 348 346 342 337 332 329 327 327 327 327 328 328 327 327 326 326 326 326 327 328 330 330 330 330 333 335 337 339 339 339 339 339 338 338 336 335
349 349 350 351 351 351 351 349 347 344 340 335 331 330 329 329 328 329 328 328 327 327 327 327 328 329 330 330 330 330 331 333 334 336 338 339 339 339 339 339 338 336
350 350 351 351 352 353 352 351 350 349 346 343 339 336 334 333 332 331 331 331 330 329 330 329 329 330 332 332 330 329 331 332 333 334 335 337 337 337 338 338 337 336
351 351 351 352 353 353 354 353 352 351 350 348 345 342 339 337 337 336 335 333 333 333 333 332 332 333 333 334 332 330 330 331 332 333 333 334 335 335 336 336 336 334
351 352 352 353 353 353 354 355 354 353 352 351 349 347 344 342 340 339 338 336 336 336 335 335 335 335 335 334 332 331 330 331 332 332 333 333 333 335 335 334 334 334
352 353 353 354 354 354 355 355 355 355 354 353 352 350 348 345 343 342 341 339 338 338 337 337 337 337 337 335 332 331 332 333 333 333 334 333 333 334 334 334 334 333
354 354 354 354 355 355 355 356 356 356 356 355 354 353 351 348 346 344 342 341 340 340 339 339 338 338 338 336 333 332 332 334 335 336 337 336 334 334 335 335 334 334
355 356 356 356 356 356 356 357 357 357 357 356 356 355 354 351 349 346 343 343 342 341 341 339 339 339 338 337 334 333 333 334 336 337 338 338 335 334 334 334 334 333
357 357 356 357 357 357 357 358 358 358 358 358 357 357 356 354 352 348 345 344 343 343 341 341 340 340 339 338 336 333 334 335 336 338 339 339 337 335 333 333 332 333
358 358 358 358 358 358 358 358 359 359 359 359 359 358 357 356 354 351 347 344 343 344 343 342 341 340 340 338 337 335 335 336 338 339 340 340 339 336 334 333 332 332
359 359 359 359 359 359 359 359 360 360 360 360 360 360 359 358 356 354 351 347 345 344 343 343 342 341 341 339 338 337 336 337 339 340 342 342 341 338 335 333 332 332
360 360 359 360 359 360 360 360 361 361 361 362 362 361 360 359 357 355 353 350 347 345 344 343 342 341 341 340 338 337 338 339 340 342 343 343 341 339 337 334 332 332
359 360 361 360 360 360 361 361 362 362 362 363 363 362 361 360 358 356 354 350 349 346 344 343 342 341 342 341 339 339 339 340 341 342 343 344 343 341 339 336 333 332
356 359 360 361 362 362 362 363 362 363 364 364 363 363 363 362 360 358 355 352 350 348 346 345 343 342 342 342 341 340 340 341 342 344 345 345 344 343 342 339 337 334
356 357 360 362 364 364 364 364 364 364 364 364 364 364 363 363 362 360 358 355 352 350 348 346 345 344 344 343 342 342 342 343 344 345 345 344 345 345 344 343 341 337

ECMWFNIL_850_thetae_090.txt.gz
Theta_e
333 334 334 333 333 332 333 332 332 332 333 334 332 331 331 332 332 332 331 334 337 339 340 340 341 342 342 345 347 347 346 344 345 346 346 345 345 343 343 343 343 343
331 332 333 333 332 332 331 331 330 329 330 331 331 331 333 333 333 334 332 332 333 336 339 341 340 340 340 342 344 345 344 343 343 345 346 346 345 344 343 343 343 343
329 331 332 332 332 332 331 330 329 328 327 328 329 330 332 332 333 335 335 333 332 333 336 338 339 340 340 340 342 342 342 342 343 344 344 345 345 344 344 342 341 340
329 329 331 331 332 331 330 330 329 327 327 327 328 329 331 331 332 333 334 334 332 331 332 333 335 338 339 340 340 339 340 340 342 343 344 343 343 344 343 342 338 337
333 330 329 331 331 331 331 330 329 327 327 327 328 329 331 331 330 331 331 330 329 329 330 330 331 333 336 338 339 339 339 339 340 342 343 343 343 343 343 342 339 336
339 334 330 329 330 331 331 330 329 328 327 327 328 329 330 330 329 329 329 329 327 327 327 328 329 330 332 334 335 337 338 338 339 340 341 343 343 343 343 343 341 338
343 340 336 331 330 330 330 330 330 328 327 328 328 328 328 328 328 328 327 327 327 326 326 326 326 328 330 330 332 333 336 337 338 339 340 340 341 342 342 342 342 341
345 344 341 337 334 330 329 330 330 330 329 329 329 329 328 327 327 327 327 327 327 326 326 326 325 326 328 329 330 331 333 335 337 338 338 339 339 340 340 341 341 342
345 345 344 343 340 337 333 330 329 329 329 329 329 329 328 328 327 327 327 328 328 328 328 327 327 326 326 327 328 329 330 332 335 337 337 338 338 338 339 340 340 340
346 345 345 344 344 342 340 337 334 331 329 328 328 329 328 328 327 328 328 328 328 329 329 328 327 327 326 326 327 328 329 330 332 334 337 337 338 338 338 338 338 339
346 345 345 345 344 344 344 343 342 338 334 331 329 328 328 328 327 328 328 328 327 327 327 327 327 327 326 326 326 327 328 329 330 331 334 337 338 338 338 338 338 337
346 345 345 345 345 345 345 345 345 344 342 338 333 330 329 327 327 327 327 327 326 326 326 326 326 327 327 327 326 327 327 328 330 330 331 334 337 338 338 338 338 337
346 346 346 346 346 345 346 345 346 346 346 345 342 338 334 331 329 328 327 327 326 326 326 326 326 327 327 327 327 327 326 327 330 330 330 331 334 336 337 338 338 337
347 347 346 347 346 345 346 346 346 347 347 347 347 345 342 338 334 332 330 329 327 327 326 326 326 327 327 327 326 327 327 328 329 330 330 330 331 332 334 336 337 338
347 347 347 347 346 346 346 346 347 347 348 349 348 349 348 345 342 339 336 334 331 329 328 327 328 328 328 329 328 329 329 329 330 330 330 329 330 330 331 333 334 336
348 347 347 347 347 347 347 347 348 348 348 349 350 351 351 349 347 345 343 340 337 334 333 332 331 331 331 331 332 332 332 331 332 331 330 330 329 330 331 331 332 333
348 347 348 348 347 347 347 348 349 349 349 350 351 352 352 352 351 349 347 345 343 341 339 337 336 335 334 334 334 334 334 334 333 333 332 330 330 330 331 331 331 332
348 348 348 348 348 348 348 348 349 349 350 351 351 352 353 353 353 352 350 349 347 346 344 341 339 337 336 335 335 335 336 335 335 335 334 332 330 330 331 331 331 332
349 349 349 349 348 348 349 349 349 350 351 351 352 353 353 354 354 354 353 352 350 349 346 343 340 338 336 337 336 336 336 336 336 336 335 333 331 331 332 332 331 331
349 349 350 350 350 350 350 350 350 351 352 352 352 353 354 354 355 355 355 355 353 351 349 346 342 338 337 338 337 337 337 337 338 337 337 335 332 332 332 333 332 332
351 351 352 352 352 352 352 352 352 352 352 353 354 354 355 355 356 356 356 356 355 354 352 349 343 339 338 338 338 338 338 338 339 339 338 337 334 333 333 333 333 333
353 353 353 353 354 354 354 354 354 354 354 354 355 355 355 356 356 357 357 358 357 357 355 352 344 339 339 339 338 339 338 339 339 339 340 339 336 335 334 333 333 334
355 355 355 355 355 356 356 355 353 352 353 353 354 355 356 356 357 358 358 359 358 358 356 353 345 339 339 339 338 339 339 339 340 340 341 340 338 335 335 334 334 333
357 356 356 357 356 356 357 356 352 347 348 351 352 354 355 356 357 358 359 359 360 359 357 353 346 340 339 340 339 340 340 340 340 341 341 341 339 337 336 335 335 334
358 358 358 358 357 357 357 357 355 351 349 351 350 351 355 358 357 357 359 361 361 360 359 356 350 344 342 341 339 340 340 341 340 341 342 342 340 338 337 336 335 334
358 359 359 359 359 358 357 356 355 353 352 354 354 354 357 360 359 357 359 361 362 362 361 359 355 348 342 340 339 340 340 341 341 342 342 342 341 338 338 336 336 335

ECMWFNIL_850_thetae_093.txt.gz
Theta_e
332 333 334 334 335 334 334 335 337 338 337 336 335 335 334 333 332 332 332 333 336 340 342 343 343 343 343 344 346 348 348 347 346 346 345 346 345 344 343 343 343 342
332 331 332 333 334 334 333 334 335 336 337 336 335 335 333 332 332 332 332 332 333 335 339 341 342 342 342 343 344 345 347 347 347 346 347 347 346 345 344 343 343 342
334 330 330 331 333 334 333 333 333 334 335 335 335 335 334 332 332 333 334 335 335 334 335 337 340 342 342 342 343 343 345 346 346 346 346 347 346 345 345 344 343 342
337 332 329 329 331 333 333 333 333 333 334 333 333 333 333 332 332 333 334 335 336 335 334 334 337 340 341 341 341 342 342 343 345 345 345 346 345 345 345 345 344 341
341 336 331 328 329 331 332 333 333 332 332 331 330 330 331 331 331 331 332 333 334 334 334 333 335 337 338 339 340 340 341 341 341 342 343 345 345 344 345 345 345 343
344 342 338 332 329 329 330 332 332 331 331 330 329 328 328 328 329 330 330 331 332 333 333 332 333 334 334 334 335 336 337 338 339 340 341 342 344 344 344 344 345 344
345 345 343 339 334 330 328 330 331 331 330 330 328 328 327 327 328 329 330 330 331 332 332 331 330 330 331 331 331 331 333 334 335 337 338 339 342 343 343 343 343 344
346 346 345 344 341 335 330 329 330 331 330 329 329 327 327 327 327 328 329 330 331 331 330 330 329 328 329 329 329 329 330 330 332 333 335 337 339 341 342 342 341 342
346 346 346 345 345 341 336 331 329 329 330 330 329 328 327 327 327 327 327 328 329 330 329 329 329 329 328 328 327 327 328 328 329 331 332 335 337 338 340 340 340 340
346 347 346 346 345 344 343 338 333 330 328 329 329 329 328 328 327 327 327 327 328 328 328 329 328 329 329 328 327 327 327 327 327 328 329 331 333 336 337 339 339 339
346 346 347 346 346 345 345 344 341 337 333 330 328 328 328 328 328 328 328 327 327 326 327 327 328 327 328 328 327 327 327 327 327 327 328 329 330 332 335 336 338 338
347 347 347 347 347 346 346 345 345 343 341 338 335 332 330 329 328 328 328 328 327 326 326 326 326 326 326 327 327 327 327 327 327 326 326 328 329 330 332 334 336 337
347 347 347 347 347 347 346 346 345 345 345 344 342 340 338 335 333 331 328 327 327 327 327 326 326 326 326 326 326 326 326 326 327 326 326 326 328 329 330 331 334 337
347 347 347 347 347 347 347 346 346 346 345 345 344 344 343 342 341 338 335 332 330 327 327 327 327 326 326 326 326 326 326 326 326 326 326 326 327 328 329 329 331 334
348 347 347 347 347 347 347 347 346 346 346 346 345 345 345 345 345 344 343 341 337 333 330 328 327 327 327 327 326 326 326 326 326 326 326 327 327 329 329 330 329 331
347 347 347 347 347 348 348 347 347 346 346 347 346 346 346 346 346 346 346 346 345 341 337 333 330 328 328 328 327 327 327 327 327 328 328 328 329 329 330 330 329 329
347 347 347 347 348 348 347 347 347 347 346 347 346 346 346 347 347 347 347 348 348 347 344 341 335 331 331 330 329 329 328 328 329 330 330 331 331 331 331 330 329 328
348 347 347 348 348 347 348 347 347 347 347 347 347 347 347 347 347 348 349 349 350 350 349 347 341 336 333 333 332 332 331 332 333 333 333 333 333 333 332 331 330 329
347 347 347 347 348 348 348 348 348 347 348 347 347 347 347 348 348 348 349 349 351 352 352 350 347 341 337 335 335 334 334 335 336 336 336 335 335 334 333 332 331 329
347 347 347 347 348 348 348 348 348 348 348 348 348 348 348 348 348 349 350 350 351 352 353 353 352 348 344 340 337 336 336 336 338 337 337 336 336 336 334 334 332 331
347 348 348 348 348 348 347 348 348 348 349 349 348 349 349 350 351 350 351 352 352 353 354 354 355 353 350 346 343 340 338 338 339 339 339 338 337 336 336 336 335 332
347 348 348 348 348 348 348 348 349 349 349 349 349 349 350 352 352 352 353 353 353 354 354 355 355 355 354 352 348 345 344 343 342 341 340 339 338 337 336 337 335 334
348 348 349 349 349 349 349 350 350 350 350 350 351 350 350 351 353 354 354 354 355 355 355 355 355 355 355 354 351 350 350 348 345 342 341 340 339 338 338 336 336 334
349 349 349 350 350 350 350 351 352 352 352 352 353 353 353 353 353 354 354 355 355 356 356 356 355 354 354 354 352 352 352 351 349 346 343 341 340 339 338 337 336 334
352 352 351 351 351 351 351 352 353 353 354 354 354 354 354 354 354 353 354 354 355 356 356 357 357 356 355 353 352 352 353 352 351 350 347 343 341 340 339 338 337 335
354 355 354 353 353 353 353 353 354 354 355 355 355 355 355 355 355 353 353 354 354 355 356 357 358 359 358 356 354 352 352 352 352 351 348 343 341 340 339 339 338 336

ECMWFNIL_850_thetae_096.txt.gz
Theta_e
334 334 335 335 335 335 335 335 338 340 343 345 346 346 345 342 342 343 341 341 341 342 343 343 344 344 344 344 343 346 346 346 351 350 343 344 345 346 347 346 346 348
334 333 333 334 335 335 335 334 335 338 339 341 344 345 343 339 339 341 340 341 340 340 341 342 343 343 344 345 344 346 345 344 349 352 346 344 346 345 347 347 346 346
335 333 333 333 333 333 335 335 334 335 336 338 340 339 337 339 340 340 339 340 338 338 338 340 342 342 343 345 344 346 346 344 348 351 347 344 345 345 348 349 349 348
338 336 333 332 332 332 333 334 334 334 335 336 337 336 338 341 339 336 336 337 337 339 339 339 339 339 341 344 344 344 346 345 345 347 346 344 344 344 347 349 350 349
343 341 337 333 332 332 332 332 333 334 333 334 335 335 336 337 335 333 334 334 336 337 337 338 338 338 339 341 342 343 343 346 346 344 343 345 346 346 348 349 347 347
344 344 342 337 334 332 331 331 332 334 333 332 333 333 333 333 333 333 332 333 336 337 337 339 338 337 339 339 339 340 340 346 351 347 342 343 346 351 353 351 346 344
345 345 344 342 337 333 330 329 331 332 333 333 333 332 330 331 332 331 331 332 335 338 339 339 337 336 337 337 337 338 335 339 344 344 343 343 344 348 351 350 346 344
345 345 345 345 342 336 331 329 329 330 332 332 332 331 329 329 329 329 329 329 331 333 334 335 334 333 336 336 336 336 333 335 337 336 338 342 341 341 345 347 346 344
346 346 346 346 345 342 337 332 329 328 330 332 331 331 330 328 327 327 327 327 329 330 330 331 332 331 333 333 332 331 330 335 339 335 333 335 335 338 342 344 344 343
346 346 346 346 346 346 344 339 335 331 328 329 331 332 332 329 327 327 327 326 328 329 329 329 329 329 330 330 330 329 328 330 333 331 329 331 332 337 342 345 345 344
347 347 346 346 345 346 346 344 344 340 334 328 328 332 333 331 328 327 328 327 327 328 328 328 328 328 327 328 328 329 328 328 330 329 328 328 330 332 335 339 341 343
348 347 346 347 346 346 347 347 347 346 343 334 329 328 330 330 330 328 327 328 327 327 327 326 327 327 327 326 328 330 329 329 330 330 328 327 328 330 331 333 334 336
347 347 347 347 346 345 347 348 348 348 348 344 336 332 329 329 330 329 327 327 327 327 327 326 326 326 326 325 326 329 329 327 329 331 330 329 328 331 335 338 339 339
347 347 347 347 346 346 346 347 348 348 348 347 344 341 337 334 334 333 330 328 327 327 327 327 327 326 326 325 324 326 326 326 327 328 330 332 330 330 335 338 342 344
348 347 347 347 346 346 346 346 347 347 347 346 346 345 344 342 341 341 339 335 332 330 329 328 328 327 326 326 325 325 326 326 326 325 327 328 328 330 332 334 338 341
348 347 347 347 347 346 347 347 347 347 347 347 347 346 346 345 345 345 345 344 342 340 337 335 333 330 328 327 327 326 326 326 326 326 326 326 326 327 329 331 336 339
347 347 346 347 347 347 347 347 347 347 346 347 347 347 347 346 346 345 345 346 346 345 344 343 341 338 332 328 327 328 327 327 327 327 326 327 327 327 327 328 333 337
346 347 347 347 346 346 347 347 347 347 347 347 347 347 347 346 347 346 346 346 346 346 347 347 347 346 341 334 329 328 327 328 329 329 329 328 327 327 328 328 329 333
347 346 346 347 346 347 347 347 346 347 347 347 347 347 347 346 347 347 346 347 347 346 347 347 348 348 347 342 336 332 330 329 332 333 334 333 331 329 329 330 330 331
350 347 346 347 347 347 346 347 346 346 347 347 347 347 346 347 347 347 347 347 347 347 348 348 349 349 349 346 341 338 336 334 335 336 337 336 335 333 332 332 332 333
354 351 347 346 347 347 347 347 347 347 347 347 347 347 347 348 347 347 348 347 348 348 349 349 350 351 350 349 345 343 343 342 342 341 339 338 336 334 334 334 333 334
355 354 351 348 346 346 347 347 347 347 347 347 347 348 349 349 348 348 348 348 348 348 348 349 350 351 351 351 350 349 350 349 348 347 344 341 338 336 335 335 335 335
355 355 354 352 349 347 346 347 348 347 348 348 347 348 350 351 351 350 349 348 349 349 348 350 350 351 351 353 353 353 353 353 353 351 349 345 342 339 337 336 335 335
355 355 356 354 353 352 350 348 348 348 348 348 348 349 350 352 353 354 353 352 351 350 351 351 351 352 352 353 354 354 354 355 355 354 353 350 346 342 340 338 336 335
355 355 357 356 356 355 355 353 352 351 350 350 350 350 350 352 354 355 356 356 355 355 354 353 353 353 353 354 354 355 355 355 356 356 355 353 349 345 341 339 337 336
354 354 356 358 358 357 356 357 356 355 355 354 353 354 354 355 355 355 356 357 357 357 357 356 356 355 354 355 355 355 356 356 356 357 356 354 351 348 344 341 339 337

ECMWFNIL_850_thetae_099.txt.gz
Theta_e
335 335 335 337 342 347 350 351 350 351 352 353 351 350 351 350 350 352 351 347 342 343 344 345 345 344 345 345 344 347 346 346 353 352 344 345 347 351 354 352 352 351
334 335 336 337 340 345 347 350 351 350 350 351 350 349 349 349 348 347 347 345 342 343 343 343 344 344 345 346 343 345 345 342 349 353 347 345 348 352 354 352 351 351
333 334 335 337 340 342 344 349 350 349 349 350 350 348 348 349 348 343 340 342 342 344 344 340 342 343 343 346 344 345 346 342 346 353 350 346 347 351 354 353 351 351
335 334 334 338 344 346 346 348 349 347 347 349 349 349 348 348 348 344 340 338 339 344 346 341 340 343 342 343 345 346 346 344 344 348 347 345 345 348 354 356 352 351
337 336 333 337 346 349 348 349 348 347 346 347 348 348 348 347 348 348 345 338 334 341 347 343 339 342 342 340 343 344 346 348 348 345 344 346 346 348 354 356 354 353
340 339 335 335 343 348 349 349 348 348 348 347 347 348 348 347 347 349 348 344 339 342 348 347 344 345 345 342 341 341 346 352 353 349 344 344 348 352 356 356 354 352
342 342 339 337 342 345 347 349 349 347 347 348 347 347 348 348 348 347 347 347 345 345 347 348 347 348 348 346 342 338 341 347 352 353 350 347 347 350 355 357 354 349
346 345 342 342 346 347 345 347 347 344 344 346 347 347 347 348 348 346 346 346 346 347 346 347 348 345 346 349 346 339 337 341 347 348 347 347 346 344 348 353 353 348
348 349 347 345 349 350 347 346 346 344 342 342 345 347 346 346 347 347 347 343 342 347 347 347 348 344 341 348 350 344 339 342 348 348 343 342 344 344 345 350 353 350
350 351 351 351 351 350 349 347 346 345 344 341 342 345 345 345 344 346 349 343 336 341 343 341 342 339 336 343 348 345 340 340 345 349 349 347 348 349 350 351 353 353
353 352 353 353 352 350 349 347 345 344 345 343 342 344 344 345 343 342 347 345 335 333 334 331 330 329 329 337 345 345 342 340 342 345 347 348 348 349 351 350 351 353
354 354 354 353 352 351 349 348 346 344 344 345 344 344 343 344 345 343 344 343 335 329 329 327 326 328 326 330 340 346 345 344 344 345 346 347 346 347 348 348 348 350
356 355 355 354 353 353 351 348 347 345 345 344 345 345 343 342 344 345 345 342 334 327 328 329 326 327 327 326 331 340 345 346 346 346 347 347 347 347 347 347 346 348
358 356 356 355 354 355 353 350 348 347 346 345 345 346 345 342 341 343 346 346 340 331 328 330 330 327 327 327 326 329 337 344 345 345 345 346 347 347 347 347 345 346
358 357 357 357 356 356 355 352 350 349 348 346 346 346 346 345 342 341 343 346 347 341 332 332 336 333 327 326 326 326 328 335 341 342 342 344 345 345 345 345 345 344
357 356 356 358 358 357 357 354 351 351 350 348 348 347 348 347 345 342 341 342 347 348 342 337 340 341 335 328 326 325 325 328 334 338 339 339 341 342 342 342 343 344
356 356 356 357 358 359 358 355 351 352 352 351 350 350 349 350 349 347 344 342 344 347 348 345 342 342 340 332 327 326 326 325 327 332 336 335 334 334 336 336 338 341
356 357 357 355 356 358 358 355 350 350 353 353 353 353 352 352 353 352 349 346 345 345 348 348 347 344 342 337 330 326 327 326 327 333 339 339 335 332 331 332 334 337
355 357 357 356 356 357 358 356 352 348 349 352 354 355 355 355 354 354 352 349 348 348 347 348 348 348 347 345 338 330 328 327 328 333 340 343 343 341 337 333 331 332
353 355 356 356 357 357 356 356 355 351 348 349 352 355 356 355 354 353 351 349 348 348 349 349 349 350 350 350 346 340 334 332 329 330 334 339 344 348 347 344 338 331
353 354 355 356 356 357 357 356 356 355 351 349 353 355 356 354 352 351 350 348 347 347 349 350 350 349 350 351 350 346 342 341 339 337 336 336 339 344 347 350 349 344
354 354 355 357 356 356 357 357 357 356 354 353 354 355 356 356 354 352 351 349 349 348 348 351 351 351 350 350 350 349 347 347 347 345 344 342 341 341 343 345 346 346
352 353 354 356 357 356 356 356 357 357 356 357 357 356 355 356 356 356 355 353 353 352 350 350 351 351 351 350 350 349 348 349 349 349 349 349 346 344 344 343 340 339
348 351 353 355 356 357 356 356 356 356 356 357 357 356 355 355 355 355 356 357 357 357 355 354 352 352 351 351 350 350 349 349 349 350 350 351 350 348 347 345 343 341
339 344 348 351 354 356 356 356 355 355 354 355 355 354 353 354 354 353 354 356 357 358 358 357 356 355 354 352 350 349 349 349 349 350 350 351 352 351 350 349 347 345
334 338 341 344 348 352 353 354 355 355 354 353 354 353 351 352 353 352 352 353 355 357 358 358 358 357 356 356 354 352 351 350 350 350 351 351 352 353 353 352 350 348

ECMWFNIL_850_thetae_102.txt.gz
Theta_e
332 333 336 338 340 344 347 344 345 348 350 351 347 347 353 356 353 353 350 344 343 346 348 346 345 346 347 347 346 346 346 347 349 347 344 342 340 344 352 353 351 351
332 333 334 336 338 341 345 343 344 348 350 352 350 347 350 353 353 353 352 345 341 344 345 345 344 344 346 346 344 343 345 346 348 347 345 344 344 348 354 354 351 350
332 332 333 335 336 339 342 343 344 346 347 349 349 346 346 348 349 351 352 347 341 342 343 343 344 344 344 346 344 343 345 346 346 348 346 345 345 348 353 354 352 350
333 333 332 334 337 338 341 344 345 344 346 348 348 346 347 347 344 344 346 344 341 341 342 341 342 342 343 345 346 344 344 345 345 348 349 346 344 346 352 355 353 351
332 333 331 333 341 344 343 346 347 345 346 348 347 346 348 349 345 339 338 340 339 340 340 338 338 340 340 342 345 345 345 345 345 345 346 348 346 344 349 355 352 352
332 333 333 330 340 348 348 347 348 347 347 348 346 345 346 348 348 341 336 337 338 337 339 338 336 337 339 340 342 344 345 346 348 346 343 346 347 344 349 354 353 351
336 332 334 331 334 345 350 349 349 349 348 347 347 347 346 344 343 341 340 337 335 338 343 344 339 337 340 340 339 341 343 344 350 351 346 345 345 344 352 357 354 352
348 339 335 333 334 340 347 350 350 349 348 349 348 348 348 345 340 341 345 343 339 340 344 346 344 338 340 343 340 339 340 341 346 350 348 345 344 342 346 354 356 353
357 351 342 337 339 342 345 348 350 349 348 348 349 347 348 349 344 343 347 346 343 344 344 343 345 341 338 342 342 338 337 337 342 346 344 342 343 343 342 346 351 352
357 358 353 347 346 347 347 347 348 350 348 347 349 348 347 348 348 347 347 344 341 345 344 341 342 340 335 337 341 341 337 334 339 345 345 340 338 339 339 341 343 345
355 356 356 354 351 349 349 347 347 349 349 348 348 348 347 346 347 348 348 345 339 339 340 338 337 338 335 332 335 338 336 332 334 340 344 343 341 337 337 340 341 342
354 353 353 354 354 352 349 349 347 347 348 349 348 347 346 346 347 346 347 347 343 336 334 333 331 333 334 330 331 334 334 332 331 332 335 338 340 338 336 337 339 339
354 353 351 351 352 351 350 348 348 346 345 347 347 346 344 345 346 346 346 346 345 341 335 331 327 328 329 327 328 333 337 336 334 333 332 332 332 332 334 336 337 336
355 354 353 351 350 351 349 347 347 346 345 345 346 345 345 344 344 346 347 346 345 343 338 334 330 327 327 327 326 329 335 340 339 338 339 339 337 336 338 342 344 344
357 356 354 351 350 350 350 349 347 346 345 344 345 345 345 345 343 344 346 347 346 344 342 340 337 331 327 327 326 326 327 332 337 340 342 345 345 345 345 346 347 347
356 356 354 352 351 350 351 352 350 348 347 345 345 345 345 345 344 342 343 345 347 347 344 343 343 340 333 327 326 327 326 326 329 333 338 342 344 345 345 346 346 346
353 354 355 355 354 352 353 354 353 351 350 348 345 345 345 346 345 343 342 342 344 346 347 347 346 346 342 335 330 328 327 327 326 327 331 335 338 341 341 342 343 343
350 351 353 355 355 355 355 356 355 354 353 352 350 348 345 346 347 346 344 342 341 343 346 348 348 348 346 344 339 335 331 329 328 327 327 328 332 334 336 337 338 338
352 351 352 353 355 356 357 356 355 355 355 355 354 353 350 347 347 347 347 346 344 342 342 345 347 348 348 346 345 341 338 335 332 330 329 329 330 332 333 334 336 337
353 352 352 353 354 355 356 356 355 355 355 354 354 353 352 351 350 348 349 348 348 346 343 342 344 346 347 348 347 345 343 340 339 337 334 333 333 335 337 338 338 339
352 353 353 354 354 354 354 355 354 354 354 353 352 350 351 351 351 351 351 351 351 350 348 346 345 346 347 347 348 348 347 346 345 345 342 340 338 337 338 340 341 343
347 350 352 353 354 354 354 354 354 353 353 353 352 350 350 350 351 352 354 354 354 354 354 352 350 349 347 348 348 348 349 349 349 349 349 348 346 343 341 340 340 340
338 341 346 350 351 353 353 354 355 354 353 354 352 351 351 351 352 352 354 356 356 356 356 357 355 354 352 350 349 349 350 350 350 350 350 350 350 349 348 346 344 343
338 335 339 344 347 349 351 352 354 354 354 353 353 352 353 352 353 352 353 355 357 357 357 356 357 357 357 355 353 351 351 351 351 350 351 351 350 350 350 349 348 348
340 336 333 336 340 344 348 350 352 353 354 354 354 355 355 355 354 354 353 353 354 356 357 356 357 357 358 358 357 355 353 352 352 351 351 351 351 351 350 350 349 349
339 336 332 332 335 338 343 348 350 351 353 354 355 355 355 355 354 354 354 353 353 354 355 356 357 357 356 356 357 357 357 355 354 353 353 352 351 351 351 351 350 350

ECMWFNIL_850_thetae_105.txt.gz
Theta_e
335 338 343 346 346 346 347 347 348 347 348 348 347 349 351 350 349 346 345 345 346 348 348 347 348 349 352 353 352 352 349 343 341 341 341 340 339 342 343 345 348 348
335 334 336 339 341 342 343 343 344 343 345 346 346 349 352 354 354 352 350 348 345 346 348 347 347 348 350 351 352 352 348 344 345 344 342 342 340 340 343 346 347 346
333 333 334 335 337 339 340 341 343 342 343 345 346 348 350 354 356 354 353 352 347 344 346 346 345 346 347 348 347 347 346 345 348 347 343 343 342 340 342 345 346 345
331 332 333 334 335 337 338 339 341 342 342 345 346 347 348 351 354 355 353 351 347 343 344 345 345 344 345 346 344 343 344 345 347 347 345 343 344 344 344 346 347 347
332 332 331 333 334 335 336 336 337 339 340 342 344 345 347 347 349 352 352 349 345 342 341 343 343 343 344 345 345 343 343 344 345 346 346 345 344 344 345 347 347 348
331 333 332 332 333 333 335 335 335 336 337 338 340 341 344 344 343 346 348 345 342 340 339 340 341 341 342 343 345 345 343 344 344 344 345 345 345 344 344 347 349 349
333 331 332 333 333 333 334 335 335 335 335 335 337 338 341 342 342 343 344 342 340 339 338 337 338 338 339 340 342 344 344 344 345 345 345 345 345 345 343 346 351 351
343 337 333 332 334 336 338 338 338 337 336 337 336 337 339 342 342 343 342 339 337 338 337 337 336 335 336 336 338 341 343 343 344 345 345 343 344 345 343 346 352 353
349 348 343 336 332 335 341 343 344 343 341 341 340 339 340 342 342 342 340 337 335 336 337 336 335 334 335 335 335 337 339 341 342 342 343 343 342 342 342 344 348 349
350 352 352 349 340 334 337 342 347 348 346 345 345 344 343 343 343 342 341 340 336 335 335 336 336 336 336 335 334 334 335 337 338 339 340 341 341 342 342 342 342 343
352 352 355 356 352 344 337 338 343 347 348 347 347 347 347 347 345 343 343 343 340 337 336 336 336 337 336 335 334 333 333 334 335 336 336 335 337 339 341 340 340 339
354 353 355 357 357 353 348 345 345 347 349 349 347 346 347 348 348 346 344 343 341 340 338 337 337 337 336 334 333 332 332 332 332 332 332 332 331 332 334 335 335 335
353 353 353 354 356 357 354 352 350 348 349 348 347 347 346 346 348 347 346 345 343 341 339 337 337 338 336 333 330 330 331 331 330 329 330 330 330 329 328 330 330 331
353 352 353 353 354 355 355 354 351 349 348 348 348 348 346 345 346 347 347 346 345 344 342 339 337 337 336 332 328 327 328 329 328 327 328 328 328 328 327 327 327 327
354 353 353 354 354 353 353 353 352 350 348 348 347 347 347 346 344 344 345 346 346 346 345 343 341 339 337 334 330 327 326 327 327 327 327 327 326 326 326 326 326 327
353 353 354 355 355 353 351 350 350 349 348 348 348 347 348 348 346 344 344 344 345 346 345 345 344 342 341 338 335 331 328 327 327 327 327 327 327 326 326 326 326 326
352 352 353 355 355 355 353 351 350 349 348 350 350 347 346 348 348 346 344 342 343 344 344 345 345 344 343 342 341 338 334 331 329 328 328 328 328 327 326 326 326 326
351 351 352 353 354 355 355 354 353 351 348 349 351 348 346 346 347 347 346 344 343 343 343 344 344 344 344 344 343 342 341 338 335 333 331 330 328 327 326 326 326 327
352 351 351 352 352 353 354 355 355 353 350 350 352 351 349 348 347 346 345 345 345 345 344 343 342 344 345 344 343 343 342 343 341 339 337 335 333 330 328 327 327 327
352 353 352 352 351 351 352 354 354 354 353 352 353 353 351 350 350 348 346 345 345 345 346 344 342 343 344 345 345 344 344 344 344 344 344 342 341 338 335 332 329 327
348 350 351 352 352 351 352 352 353 354 354 354 354 353 352 351 352 351 349 346 345 346 347 346 344 343 344 346 347 347 346 345 345 346 346 346 346 345 343 341 338 335
341 343 345 348 350 350 351 351 352 351 352 353 353 352 352 352 353 353 352 349 347 347 348 349 347 345 345 346 349 350 350 348 347 347 347 348 348 347 347 347 346 344
337 337 338 341 344 347 348 350 350 350 351 353 353 352 352 352 352 353 352 350 349 348 348 349 350 350 349 348 348 350 351 352 351 349 348 348 348 348 348 348 348 348
336 336 333 334 338 340 343 347 349 349 350 351 353 353 353 353 352 352 351 351 351 350 348 349 351 352 351 350 349 348 349 350 352 352 351 350 349 349 348 348 349 349
335 336 334 333 334 335 338 342 345 347 348 350 351 352 353 353 353 352 352 351 351 351 350 351 352 352 351 351 351 350 348 348 350 352 353 351 351 351 350 350 350 350
329 332 331 331 333 334 336 338 339 342 345 348 350 351 352 354 354 354 353 353 353 352 352 352 352 352 352 353 353 352 351 350 352 353 353 352 352 353 353 352 351 351

ECMWFNIL_850_thetae_108.txt.gz
Theta_e
347 347 347 347 347 347 348 348 347 347 345 342 342 342 342 343 343 345 345 345 347 348 347 347 348 349 350 347 345 344 343 341 341 340 340 339 340 342 343 342 342 344
343 346 348 348 347 346 347 347 344 344 345 344 343 343 343 343 342 342 344 344 346 348 347 347 347 348 350 350 348 347 347 346 343 341 340 340 339 340 340 342 344 345
339 342 345 347 347 345 344 345 344 342 343 343 343 343 344 345 344 343 344 343 343 345 346 346 346 346 349 350 350 349 349 348 346 344 343 342 340 339 338 340 343 344
336 339 341 343 344 344 343 344 344 341 341 342 342 341 342 344 344 344 345 345 343 344 344 345 345 345 345 347 348 348 348 348 347 346 347 345 342 341 340 339 341 342
333 336 337 338 339 339 340 342 343 342 341 341 341 341 340 341 342 342 344 345 345 345 343 343 344 344 343 344 345 345 345 345 345 346 347 345 343 343 342 342 344 345
332 334 335 335 335 336 337 338 340 341 342 341 341 340 341 340 340 341 342 342 343 343 342 341 343 343 342 343 344 344 344 343 344 344 344 345 345 344 343 343 344 346
332 331 332 332 333 334 335 335 336 338 339 341 341 341 341 341 341 340 339 339 339 340 339 339 340 341 341 342 342 343 343 343 343 344 343 344 345 345 345 343 343 344
333 332 331 331 332 333 334 334 334 335 336 339 340 341 342 342 342 341 339 338 337 338 338 337 337 337 339 339 340 340 342 342 343 343 343 343 343 343 344 344 343 342
333 333 333 332 331 333 333 333 333 333 335 336 338 340 341 342 343 343 341 339 338 338 337 337 337 336 336 336 336 337 338 340 341 342 343 343 343 342 342 342 343 342
336 336 336 335 333 333 333 334 334 335 338 337 337 339 340 340 342 343 343 342 340 339 338 337 336 336 336 334 334 334 335 336 338 340 341 341 341 341 341 341 341 341
348 346 342 338 336 336 335 335 336 340 344 344 342 341 340 341 344 344 345 343 340 337 336 336 335 335 334 333 332 333 334 334 335 336 337 337 338 338 339 340 340 341
356 354 349 345 343 342 341 340 339 342 347 350 349 347 344 345 346 347 347 345 341 338 336 335 335 334 333 332 331 331 332 333 333 333 334 334 334 334 333 334 335 336
355 355 354 352 351 350 350 348 345 343 345 349 351 351 349 348 347 347 347 347 344 342 339 336 335 334 333 332 331 330 330 331 331 330 332 332 332 331 330 330 330 330
353 354 356 356 355 355 354 354 351 347 345 346 348 350 350 348 347 346 346 346 345 344 343 341 339 336 334 332 330 329 328 328 327 327 328 328 328 328 328 328 328 328
352 352 355 355 355 354 356 356 355 351 349 348 348 349 349 349 348 348 347 345 344 344 345 345 343 342 339 336 333 331 329 328 326 325 325 325 326 326 326 326 326 326
352 352 353 354 354 353 355 356 356 354 352 350 350 349 348 348 349 349 349 347 345 344 344 345 345 344 343 341 340 338 336 334 332 330 327 326 325 325 325 325 325 325
353 352 353 353 353 353 353 354 355 355 354 353 351 349 348 347 348 348 349 349 348 346 345 345 345 344 344 343 342 342 342 341 340 338 336 334 330 328 326 325 326 326
352 352 352 353 354 354 354 354 354 354 353 353 352 350 348 347 348 348 348 348 349 348 346 346 345 345 345 345 344 344 343 343 343 342 341 340 338 335 331 328 326 326
351 351 351 352 352 354 354 354 354 354 353 352 351 350 349 348 349 349 347 346 348 349 348 347 345 344 344 345 345 345 344 344 344 343 343 343 342 341 340 337 334 332
352 352 352 352 352 352 352 353 353 354 354 353 352 351 350 349 350 351 350 347 347 348 349 348 346 344 344 343 344 345 345 345 345 345 345 345 344 343 344 344 343 343
346 347 349 352 352 352 352 352 352 353 353 354 354 354 353 351 350 351 352 350 348 347 347 346 346 345 344 344 343 343 344 345 345 346 346 346 346 346 346 346 346 346
341 340 342 346 349 350 350 351 352 352 352 353 353 354 354 353 352 352 353 353 352 350 348 347 346 345 345 345 344 344 344 344 346 347 346 347 347 347 348 348 348 348
339 337 337 339 341 345 347 348 349 350 351 351 352 352 352 353 353 352 353 353 353 352 351 350 349 347 346 345 346 347 347 346 345 346 346 346 346 346 347 348 348 348
336 335 333 334 336 338 341 343 344 346 347 348 349 350 350 352 352 352 352 352 352 352 352 352 352 351 348 347 347 349 350 349 349 348 348 348 347 347 348 348 348 348
332 330 327 330 333 335 336 338 339 340 342 344 346 348 349 350 351 351 352 352 352 352 352 353 353 353 351 349 348 348 349 351 352 351 351 350 349 348 348 348 348 349
324 323 322 326 331 334 335 335 335 337 339 340 341 344 347 349 350 351 351 352 353 353 353 353 353 352 352 351 350 349 350 350 352 353 352 352 351 350 350 350 350 350

ECMWFNIL_850_thetae_111.txt.gz
Theta_e
347 348 348 348 347 347 348 347 346 347 344 340 340 343 343 343 344 345 344 344 344 344 345 344 344 344 346 347 348 348 347 343 341 340 340 340 340 341 343 346 346 344
345 348 349 348 346 347 348 347 346 346 345 341 339 341 342 342 343 344 345 345 345 346 347 346 345 345 347 348 348 348 346 343 341 340 340 339 339 339 340 342 344 344
342 346 348 347 345 346 347 347 347 346 346 343 341 340 341 341 342 342 343 344 345 346 347 347 346 346 347 347 347 347 346 345 344 342 341 339 340 339 339 339 341 343
339 343 345 345 344 345 346 347 347 346 346 345 343 342 341 342 342 341 341 342 342 344 345 345 345 345 345 345 345 345 346 346 346 344 342 341 341 340 339 338 339 341
336 339 341 342 342 343 344 346 346 346 345 343 343 343 342 343 343 342 341 341 341 342 342 343 344 345 344 343 343 343 344 343 344 344 343 343 344 342 341 340 338 338
334 335 337 338 339 340 341 342 343 344 344 343 342 342 342 342 343 342 342 342 342 343 342 341 342 344 343 342 341 342 342 342 341 342 342 343 343 343 342 342 340 340
332 333 334 335 336 337 337 337 338 341 342 343 342 342 342 342 341 341 341 342 343 343 341 340 340 342 343 341 340 340 341 341 341 341 341 341 342 343 343 343 342 341
332 332 333 334 335 335 335 335 335 337 339 341 342 342 342 342 341 340 340 341 341 341 341 340 339 341 341 341 340 340 340 340 341 341 341 341 341 341 342 342 342 342
333 333 332 333 333 334 334 334 334 334 336 338 339 341 343 343 342 342 342 343 342 341 341 340 339 339 339 338 338 338 338 338 340 340 340 341 341 340 341 341 341 341
333 333 334 333 332 332 333 332 333 333 333 335 336 338 341 343 344 343 343 344 343 342 341 340 338 337 337 337 336 336 336 336 337 338 338 339 339 339 341 341 341 341
335 333 334 334 333 332 331 331 331 332 332 333 333 335 338 341 344 346 345 345 344 343 342 341 340 339 337 336 336 335 334 334 334 335 335 336 336 337 338 339 339 339
344 336 332 332 333 333 333 332 332 332 332 333 333 333 337 341 344 346 346 346 345 344 344 343 342 341 339 337 336 335 334 333 332 333 334 334 334 335 335 335 335 335
350 344 338 334 334 334 334 335 335 336 335 334 334 335 337 341 344 345 346 345 346 346 346 346 345 343 342 340 338 336 333 332 331 331 332 333 333 333 333 333 332 332
352 351 348 345 342 341 340 337 337 340 340 337 337 339 340 342 343 344 345 345 345 345 344 345 346 345 344 343 341 339 337 334 331 331 330 330 330 330 331 331 331 329
354 353 353 352 351 350 349 345 340 342 346 345 342 341 342 344 344 344 345 346 345 345 344 344 344 344 343 344 343 343 341 339 336 334 332 331 330 328 328 328 327 327
355 355 356 356 354 353 353 352 347 345 349 352 350 346 344 345 345 345 346 347 347 347 347 347 346 344 343 343 344 344 344 343 342 340 339 338 336 334 332 330 328 326
353 355 355 355 354 353 353 353 352 349 350 353 353 351 349 347 347 347 347 347 346 346 347 348 347 347 344 343 344 344 344 344 344 343 342 342 341 341 339 338 336 334
352 352 353 352 352 352 352 352 352 350 350 351 351 351 351 350 349 349 349 348 347 347 347 347 347 347 347 346 344 344 344 345 345 344 344 344 343 343 342 342 341 341
353 352 352 352 352 352 351 351 351 350 349 351 351 350 351 351 350 350 349 348 347 347 347 346 346 346 347 348 347 345 345 345 345 345 345 345 345 345 344 344 344 343
353 352 352 352 352 351 351 351 351 351 351 352 352 351 351 351 351 351 350 349 348 348 348 347 346 345 345 347 348 348 347 345 344 344 344 344 344 345 345 345 345 345
350 351 351 351 351 351 351 351 351 351 352 352 352 352 352 351 351 351 351 350 349 349 349 349 347 346 346 347 348 348 348 347 346 344 344 343 343 344 344 345 345 346
345 345 346 346 346 345 346 348 350 350 350 350 351 352 352 352 352 353 351 351 350 349 350 350 350 348 347 347 347 347 347 347 346 345 345 344 343 343 343 344 345 346
339 339 339 339 339 340 341 343 345 347 347 347 348 350 351 351 352 353 353 353 353 352 352 352 352 351 350 348 348 347 347 346 346 346 346 345 345 344 344 344 344 345
335 333 334 336 337 338 339 340 341 343 343 343 344 345 347 349 350 351 352 353 353 353 353 353 353 353 353 352 351 350 349 348 347 347 347 347 347 348 347 346 345 346
329 328 331 336 337 337 338 337 338 340 340 340 340 341 343 346 348 349 350 350 351 352 353 353 353 353 353 353 353 352 352 351 350 349 348 348 349 350 350 349 349 349
321 323 330 334 336 337 337 336 336 338 340 339 339 339 341 343 346 348 349 349 350 351 352 353 353 353 353 353 353 353 353 353 352 352 351 350 350 350 350 351 351 351

ECMWFNIL_850_thetae_114.txt.gz
Theta_e
344 346 348 348 348 348 347 347 347 345 342 340 341 342 343 343 343 343 342 342 342 342 342 342 342 342 343 343 344 345 345 346 347 346 343 342 341 342 343 343 344 346
341 343 346 347 348 348 347 347 348 347 346 344 341 342 343 343 343 343 343 342 342 342 343 343 342 342 342 343 344 346 346 346 346 344 341 340 340 340 340 341 342 344
337 339 344 347 347 347 347 347 348 348 348 347 343 341 342 343 343 343 344 343 343 343 344 344 344 343 343 344 346 346 347 346 345 343 340 340 339 339 339 339 340 341
334 336 341 345 347 347 346 345 346 347 348 348 345 342 343 343 343 342 342 343 344 344 345 346 347 345 345 345 346 346 346 347 346 345 343 341 339 339 339 339 339 339
333 334 337 343 346 346 346 344 343 345 347 348 347 345 344 344 344 343 342 342 342 343 344 345 346 346 345 346 346 345 345 346 347 346 345 343 341 341 341 340 339 338
333 333 335 339 342 343 344 343 342 343 344 346 347 346 346 345 345 345 344 344 343 342 343 345 345 345 345 345 345 345 344 344 345 344 343 342 342 343 342 341 340 340
333 333 333 336 338 339 340 340 340 340 341 343 344 344 345 345 344 345 346 347 347 345 345 347 347 347 346 345 345 344 343 343 343 342 341 341 342 342 342 342 341 341
333 333 333 334 335 336 336 337 337 337 339 340 341 342 343 343 343 343 344 346 347 347 347 348 349 349 348 346 344 343 343 342 342 342 341 341 341 341 341 342 342 341
334 334 334 334 334 335 335 335 334 334 336 338 339 340 342 342 342 342 343 344 345 346 347 347 348 348 348 346 343 342 342 341 341 341 341 341 340 340 341 342 342 341
336 333 333 333 332 332 333 333 333 333 334 334 336 338 339 341 341 341 342 343 343 344 346 347 347 347 347 346 344 342 341 340 340 339 339 340 340 340 341 341 342 341
341 336 334 333 333 332 332 332 333 332 332 333 333 334 336 337 339 340 340 340 340 341 343 345 346 345 345 344 344 343 341 338 338 337 337 337 337 338 339 340 340 340
346 343 338 335 333 333 333 333 333 332 332 331 331 332 332 333 334 336 338 338 338 339 339 341 343 344 343 343 343 343 341 339 337 336 335 335 334 334 335 336 336 336
347 348 346 342 339 337 336 335 335 334 333 331 330 330 331 331 332 333 335 337 339 339 339 340 342 343 343 343 344 343 342 340 338 336 335 334 333 333 333 333 333 333
349 349 350 349 347 346 343 341 339 337 335 333 332 331 330 331 331 331 333 336 339 341 341 342 343 343 342 343 344 344 343 341 340 338 337 335 334 333 332 332 331 331
351 351 351 352 351 350 348 346 344 343 341 337 334 333 333 332 332 332 334 338 340 341 342 343 343 342 342 342 342 343 344 344 343 342 341 340 338 337 336 335 333 332
353 353 353 353 353 352 350 347 347 349 349 347 341 337 335 334 333 333 335 339 343 344 343 343 343 343 343 344 344 343 343 343 344 344 344 343 342 342 341 340 339 338
354 354 354 354 354 353 352 350 350 351 353 353 350 346 343 340 337 335 333 336 341 344 345 344 343 344 345 346 346 346 345 345 344 344 344 344 344 344 343 343 343 342
352 353 353 354 355 354 353 352 351 351 352 354 354 351 349 347 345 342 338 335 336 340 343 346 345 345 345 346 346 347 347 347 346 346 345 345 344 344 344 344 344 344
351 350 351 352 353 352 353 353 352 350 351 353 354 353 352 350 349 348 346 342 339 338 342 346 348 347 346 346 346 346 347 347 348 347 347 347 346 345 344 344 344 344
350 349 350 351 351 351 352 352 352 351 351 351 352 351 351 351 351 350 349 348 345 342 343 345 348 348 348 347 346 346 346 346 347 347 348 348 347 346 345 344 343 343
346 347 348 349 350 350 350 351 351 351 352 351 351 351 350 350 350 350 349 348 347 347 346 347 347 348 349 349 348 347 346 346 345 346 347 347 348 347 346 345 344 343
341 342 343 345 346 346 347 348 348 348 350 350 350 351 351 350 350 350 349 348 347 348 349 348 348 347 347 348 350 349 348 346 346 345 346 347 347 347 347 346 345 345
337 338 339 340 341 341 342 343 343 344 345 346 347 348 349 349 350 350 350 349 349 350 350 350 350 350 348 348 349 350 350 349 347 347 346 346 346 346 347 346 346 346
331 334 337 339 338 338 339 339 340 341 341 341 342 344 346 347 348 350 350 350 350 351 351 351 352 353 351 350 350 351 352 351 350 349 348 347 347 346 346 346 346 346
327 331 335 337 336 337 337 338 339 339 339 338 339 340 342 343 345 347 348 350 351 351 351 351 352 352 352 352 352 352 352 352 352 352 351 350 350 349 348 347 347 347
323 326 331 333 334 333 333 335 337 338 337 337 338 338 338 338 340 343 345 347 348 348 347 347 348 351 351 352 352 352 352 352 352 353 352 352 352 352 351 351 350 350

ECMWFNIL_850_thetae_117.txt.gz
Theta_e
342 346 348 348 348 348 348 348 347 344 340 340 342 342 344 345 345 345 345 344 343 342 341 341 341 341 342 343 343 343 344 344 346 347 347 347 345 343 343 344 344 344
339 344 347 348 348 348 348 347 348 347 344 343 344 343 343 344 345 344 345 344 343 342 342 342 341 342 342 343 343 344 345 345 346 347 347 346 343 341 341 341 342 342
335 340 344 347 347 347 347 347 348 348 348 347 347 345 344 344 344 344 344 345 344 344 344 343 343 343 343 344 344 345 346 347 348 348 347 345 343 341 340 340 340 340
333 336 339 343 346 347 346 347 347 348 349 349 349 346 345 345 344 344 344 344 345 345 345 345 346 346 345 345 345 346 347 348 348 348 347 346 345 343 342 341 340 340
333 334 335 338 343 346 346 345 346 347 347 349 349 348 346 345 345 344 343 344 344 345 346 346 347 347 347 346 346 346 347 347 347 348 348 348 347 345 344 343 343 342
333 333 334 335 339 344 346 345 345 345 345 346 348 348 347 346 346 345 344 343 343 343 344 345 346 347 347 347 346 346 346 346 346 346 346 347 346 346 345 345 345 344
333 333 333 334 335 340 344 345 345 344 343 344 345 346 347 347 346 346 345 344 344 344 344 344 344 346 347 347 346 345 345 345 344 344 344 345 344 344 344 344 345 345
336 334 334 334 334 336 340 342 343 342 342 343 343 344 345 345 345 345 345 345 345 345 346 345 344 345 348 348 346 345 344 344 343 343 344 343 342 343 343 343 344 344
337 335 334 334 334 334 336 338 340 340 340 340 341 342 343 343 344 344 343 344 344 345 346 346 345 346 347 347 347 346 344 343 343 342 342 342 342 342 342 342 343 343
339 338 336 335 334 334 334 335 337 337 337 337 338 340 340 341 342 342 342 342 342 344 345 345 346 346 346 346 346 345 344 343 342 341 341 341 340 340 341 342 342 342
344 343 341 338 335 335 334 334 335 335 336 336 336 337 337 338 338 339 341 341 342 343 344 344 345 346 346 345 345 344 343 341 340 340 340 339 338 338 337 338 339 339
346 346 345 343 339 337 335 335 334 334 334 335 335 336 337 337 336 335 336 337 339 341 342 343 344 345 345 345 344 343 342 341 340 339 339 338 336 335 335 335 335 336
347 347 346 346 344 340 336 335 334 333 333 333 334 335 336 337 336 334 333 333 335 338 340 341 342 344 345 345 344 344 344 343 342 341 339 338 336 335 335 335 334 334
346 346 346 346 347 345 342 339 337 335 334 333 333 333 334 334 334 334 333 332 332 334 337 340 341 342 344 345 345 346 345 345 344 344 343 341 340 340 339 339 338 336
345 346 346 346 347 347 347 346 343 339 337 335 334 334 333 333 333 333 333 333 332 332 333 337 339 339 340 343 345 346 346 346 346 345 344 344 343 343 343 342 342 341
345 346 346 347 346 347 348 349 349 347 345 342 339 336 334 334 333 334 334 334 333 333 332 333 334 335 337 340 343 345 346 347 347 346 345 345 344 344 344 344 343 343
346 346 346 347 349 348 347 348 350 351 351 349 346 343 340 337 335 335 337 336 335 334 332 332 332 333 334 336 339 342 345 347 347 346 346 345 344 344 344 344 344 344
349 349 348 348 350 351 350 349 350 352 352 352 350 349 348 346 343 340 340 340 340 338 337 337 336 334 332 333 337 341 344 346 346 346 346 345 344 344 343 343 343 344
351 351 350 350 351 351 352 352 352 353 353 353 352 351 351 351 350 347 346 346 347 346 345 344 342 338 335 334 336 340 344 345 345 346 346 345 345 344 344 344 344 343
350 350 350 350 351 351 352 353 353 353 353 353 353 352 351 351 351 351 351 351 352 351 350 349 346 343 339 337 337 340 342 344 345 345 346 345 345 345 345 345 344 344
348 349 349 349 350 350 351 351 352 352 352 352 352 352 351 351 351 352 352 353 353 352 351 351 349 346 344 341 340 341 342 343 345 345 345 346 345 345 345 345 345 345
343 344 345 347 348 349 350 350 350 350 350 350 351 350 351 351 351 351 351 351 352 352 351 350 349 349 347 346 345 344 344 344 345 345 346 346 346 346 346 345 345 345
339 339 340 342 343 344 345 346 346 347 348 348 348 348 348 349 350 350 351 351 351 351 351 350 350 350 349 349 348 348 347 346 346 346 345 345 346 347 347 347 347 347
335 336 337 338 339 340 341 341 341 343 345 345 344 344 345 346 347 348 349 350 350 351 350 350 350 350 349 349 349 349 348 348 348 348 347 347 347 348 348 348 349 349
335 336 336 336 337 337 338 339 339 340 340 340 339 340 340 340 342 344 347 349 349 350 350 350 350 350 350 351 351 350 349 349 349 350 350 350 351 351 351 351 351 351
334 336 335 335 336 336 336 337 337 337 337 337 337 337 337 337 338 341 343 344 344 345 346 348 349 349 349 350 350 350 350 350 350 351 351 351 352 352 352 352 353 353

ECMWFNIL_850_thetae_120.txt.gz
Theta_e
347 350 351 351 350 351 352 351 351 350 349 350 351 351 348 347 349 349 346 346 346 345 344 343 343 343 344 345 345 345 345 345 349 348 344 345 346 348 351 350 350 351
344 348 350 352 351 348 349 350 351 350 347 348 352 351 347 345 346 346 347 347 347 346 345 344 344 343 344 346 345 345 346 343 346 349 347 345 346 347 349 350 350 349
342 344 347 351 352 350 351 351 348 348 348 349 351 350 349 348 347 345 346 348 348 349 346 344 345 344 344 346 344 345 347 344 347 352 349 344 345 348 350 352 353 352
339 343 349 352 353 353 354 353 349 348 350 350 350 350 351 351 348 346 345 346 348 348 347 345 345 346 345 345 345 345 347 346 347 350 347 344 344 345 349 352 353 353
336 339 346 351 354 353 354 353 352 352 352 352 352 351 348 346 347 348 347 346 346 347 348 347 346 346 345 345 345 346 347 350 351 349 345 346 347 347 351 353 350 350
337 335 339 347 351 352 352 353 353 354 354 354 354 353 349 345 347 351 350 349 350 351 353 352 349 350 349 346 345 345 347 352 354 350 345 345 347 350 354 353 348 347
340 336 336 343 349 350 351 353 353 353 354 355 355 355 353 350 348 349 350 350 352 353 354 354 350 349 350 348 345 344 345 347 349 345 344 345 345 346 350 350 348 347
344 343 338 339 346 349 350 352 353 353 353 354 355 354 354 353 351 351 349 349 353 353 351 351 347 345 349 351 349 346 345 348 349 345 343 345 344 343 345 346 346 345
347 347 343 339 342 346 349 350 352 353 352 352 353 353 353 353 353 354 351 346 349 349 346 347 346 344 350 352 349 346 345 348 351 349 345 345 345 346 347 348 348 347
348 347 347 345 344 345 347 348 349 351 351 351 352 352 353 352 352 354 351 344 344 346 342 344 345 344 349 351 349 347 346 347 348 347 346 346 346 347 349 350 350 349
347 348 348 348 347 346 346 346 347 349 350 351 350 350 352 353 352 352 350 345 346 349 347 344 343 343 346 348 352 351 348 348 349 347 346 346 345 345 344 345 345 346
345 348 350 349 348 347 346 347 346 347 348 349 349 349 350 352 352 352 350 348 347 350 351 347 344 344 344 344 349 352 350 349 349 348 348 347 346 346 344 344 345 346
345 347 350 351 350 349 348 348 347 346 347 347 347 348 348 348 350 351 352 350 347 347 349 348 343 342 344 343 344 348 349 348 348 349 350 348 348 348 348 347 347 347
346 347 348 350 350 348 347 347 349 348 346 345 344 346 348 347 347 348 350 350 349 347 347 347 342 339 341 342 341 344 347 347 346 346 347 348 348 349 348 347 347 347
344 345 346 348 348 347 346 347 347 345 341 338 336 340 345 346 347 348 348 349 351 349 345 345 345 345 343 342 341 344 347 349 350 347 346 348 349 349 349 348 348 347
343 344 345 346 347 347 347 348 348 345 341 337 334 335 339 340 341 344 346 348 350 349 346 345 347 349 347 340 338 341 344 347 349 347 345 345 346 347 347 348 348 348
343 343 344 346 347 347 346 347 349 350 348 344 341 337 335 334 334 337 341 346 349 349 348 348 347 349 348 341 335 337 339 340 342 342 341 341 342 344 345 347 349 348
343 343 343 345 347 348 348 349 350 350 350 349 348 346 344 341 338 336 338 342 348 349 349 349 347 347 347 341 336 337 338 338 340 343 345 346 346 346 347 348 349 349
344 344 345 345 346 347 347 348 349 350 350 349 350 351 351 350 347 344 340 340 345 347 346 349 349 345 341 338 336 337 338 338 340 344 348 349 349 349 348 346 345 345
348 349 349 349 349 349 348 348 348 351 351 351 351 352 353 353 352 350 348 345 345 345 344 348 349 344 339 339 339 338 338 338 340 344 347 349 349 348 348 347 344 342
350 351 351 351 351 352 351 350 350 352 352 352 354 354 355 354 353 353 352 351 350 349 350 351 349 345 344 345 345 344 342 341 342 344 347 349 350 347 346 346 345 344
350 350 350 350 351 351 350 351 351 352 352 352 353 354 354 355 354 353 353 352 352 352 353 353 350 348 349 350 349 348 346 345 346 346 347 349 350 349 346 346 346 346
348 348 348 348 349 349 349 350 350 350 350 351 351 352 352 352 352 352 352 353 353 353 353 354 352 351 351 351 350 350 349 348 348 348 348 349 350 350 348 347 347 346
342 343 345 346 347 347 347 347 348 349 348 348 348 350 350 350 350 350 351 352 353 352 353 352 352 351 351 350 350 350 349 350 350 350 351 351 352 352 351 350 350 349
340 340 342 343 344 346 346 346 346 346 344 343 344 345 345 346 346 347 349 350 351 351 352 351 351 351 350 350 351 350 350 351 351 352 353 353 354 354 353 354 354 352
338 339 340 341 342 343 343 343 343 343 341 339 339 339 339 340 341 342 345 347 348 347 348 350 350 350 349 349 349 349 350 350 350 350 351 352 353 353 353 354 354 353

ECMWFNIL_850_thetae_123.txt.gz
Theta_e
351 352 351 353 355 356 356 356 355 354 355 355 353 353 355 354 354 354 352 348 344 344 344 344 344 344 345 345 346 346 349 351 354 354 349 346 352 356 353 352 352 351
352 355 354 355 355 353 354 357 357 355 354 355 355 354 354 353 352 350 350 348 347 347 346 344 344 343 345 348 345 345 347 345 349 356 353 347 350 355 354 352 352 351
352 355 354 355 353 351 355 356 355 354 354 354 355 355 354 352 350 347 346 347 349 350 347 345 345 343 344 347 344 346 348 345 348 356 354 346 348 355 356 354 354 354
350 354 355 356 353 351 355 356 353 353 355 355 355 355 354 354 353 348 345 347 349 350 348 345 347 346 345 346 345 348 351 348 348 351 348 345 346 350 355 356 356 355
350 353 354 355 354 353 354 355 355 354 354 354 354 354 353 353 354 352 349 346 346 347 347 346 347 347 346 345 345 349 351 351 350 349 345 346 347 348 354 357 356 356
351 351 353 354 354 355 355 354 355 354 353 354 354 354 353 352 354 355 353 350 350 351 352 351 350 350 349 346 344 347 351 354 356 353 347 346 348 350 356 357 354 353
351 350 352 354 355 355 355 355 355 354 354 354 354 354 354 353 353 355 355 354 354 354 355 355 352 352 353 350 345 344 346 351 354 350 345 347 349 349 352 355 352 348
351 351 351 352 354 354 355 355 355 355 355 355 355 355 355 355 354 355 355 355 355 355 356 358 352 350 355 355 351 346 345 351 354 349 344 347 348 346 348 353 353 348
350 350 350 350 351 353 353 354 354 355 355 355 355 355 355 355 354 354 354 354 356 356 355 356 351 348 354 357 354 348 346 352 357 355 351 350 351 350 350 354 355 353
349 349 349 348 348 349 351 352 352 354 355 354 355 354 354 355 354 356 355 352 354 355 351 351 351 349 353 356 353 350 348 349 353 354 354 353 353 354 354 354 355 355
349 348 348 347 347 347 348 349 350 352 354 354 353 352 353 354 354 356 357 352 352 355 351 348 350 351 353 355 356 355 353 353 353 352 352 351 350 351 351 351 351 352
349 348 347 347 346 345 345 346 346 348 351 352 352 351 351 354 354 355 356 353 352 356 355 350 348 351 351 352 357 358 356 355 355 354 353 352 351 350 349 349 349 350
349 349 347 345 346 345 344 345 345 346 347 349 350 350 350 352 353 354 355 355 354 356 357 353 349 350 350 348 352 357 357 356 354 352 352 352 350 349 349 348 348 348
347 349 348 347 347 346 345 345 345 345 345 346 347 348 348 348 349 351 353 354 354 354 355 354 351 351 352 349 348 351 354 355 354 352 351 350 349 348 347 346 345 345
346 349 349 349 349 349 348 348 347 346 346 345 346 346 347 346 346 347 348 350 352 352 352 352 351 351 352 351 350 349 351 352 352 352 351 349 348 348 347 346 345 344
346 347 347 348 348 349 349 349 349 349 348 348 347 347 346 346 346 345 345 346 348 350 350 350 348 348 349 350 351 350 350 352 351 352 351 350 349 348 348 346 345 344
346 345 345 346 346 348 348 348 348 349 350 351 351 350 348 347 346 346 345 345 345 346 348 348 347 346 346 347 348 347 347 349 351 352 352 352 352 351 349 347 346 344
347 345 345 346 346 347 348 348 347 348 350 350 350 352 351 349 349 348 346 344 344 344 344 345 345 345 345 346 346 344 342 340 343 347 350 350 350 350 349 348 347 345
351 350 351 350 348 348 349 349 349 349 351 351 350 351 352 351 351 350 347 346 345 344 344 344 344 345 345 345 345 344 340 337 336 339 344 347 348 348 348 348 348 347
351 351 351 348 346 346 347 348 349 350 351 351 351 350 351 352 353 353 352 351 348 347 348 349 348 347 346 346 345 343 340 337 334 333 339 345 347 346 346 346 347 348
349 349 348 345 343 344 345 346 348 349 349 350 351 350 350 351 351 353 355 355 354 352 352 352 352 350 349 348 346 343 341 339 336 334 337 342 346 347 346 346 348 349
350 350 349 348 348 349 350 350 350 351 351 351 350 350 351 351 352 353 353 354 355 354 353 353 352 350 349 348 345 343 343 343 343 342 340 340 343 346 348 349 351 351
350 351 351 350 351 351 352 353 353 353 353 353 352 352 353 353 353 353 353 353 353 353 352 352 350 349 349 349 347 346 345 347 349 348 347 345 346 346 347 349 350 350
349 349 350 350 351 351 351 352 352 353 353 352 352 352 353 353 353 354 353 353 353 353 352 352 350 349 351 351 351 350 349 350 351 350 350 352 352 350 348 348 349 349
346 347 348 349 350 350 350 350 351 351 350 350 350 351 351 351 351 351 352 352 352 351 352 351 350 350 351 352 352 352 351 351 351 350 351 353 355 353 351 350 350 349
344 345 346 348 348 348 347 348 348 347 346 345 346 347 347 347 348 348 348 349 349 349 350 351 350 351 351 351 350 350 351 350 350 351 351 352 353 353 352 351 351 350